[[{"header":{"parameterUnit":"m.s-1","parameterCategory":1,"la1":30.6,"la2":28.766,"lo1":-90.7593,"lo2":-88.6598,"dy":0.0162,"dx":0.0183,"nx":116,"ny":114,"refTime":"2023-03-16T18:00:00:Z","depth":0,"parameterNumber":2,"parameterNumberName":"U-component_of_WINDS"},"data":[0.0,0.0,0.0,0.0,0.0,0.0,0.0,0.0,0.0,0.0,0.0,0.0,0.0,0.0,0.0,0.0,0.0,0.0,0.0,0.0,0.0,0.0,0.0,0.0,0.0,0.0,0.0,0.0,0.0,0.0,0.0,0.0,0.0,0.0,0.0,0.0,0.0,0.0,0.0,0.0,0.0,0.0,0.0,0.0,0.0,0.0,0.0,0.0,0.0,0.0,0.0,0.0,0.0,0.0,0.0,0.0,0.0,0.0,0.0,0.0,0.0,0.0,0.0,0.0,0.0,0.0,0.0,0.0,0.0,0.0,0.0,0.0,0.0,0.0,0.0,0.0,0.0,0.0,0.0,0.0,0.0,0.0,0.0,0.0,0.0,0.0,0.0,0.0,0.0,0.0,0.0,0.0,0.0,0.0,0.0,0.0,0.0,0.0,0.0,0.0,0.0,0.0,0.0,0.0,0.0,0.0,0.0,0.0,0.0,0.0,0.0,0.0,0.0,0.0,0.0,0.0,0.0,0.0,0.0,0.0,0.0,0.0,0.0,0.0,0.0,0.0,0.0,0.0,0.0,0.0,0.0,0.0,0.0,0.0,0.0,0.0,0.0,0.0,0.0,0.0,0.0,0.0,0.0,0.0,0.0,0.0,0.0,0.0,0.0,0.0,0.0,0.0,0.0,0.0,0.0,0.0,0.0,0.0,0.0,0.0,0.0,0.0,0.0,0.0,0.0,0.0,0.0,0.0,0.0,0.0,0.0,0.0,0.0,0.0,0.0,0.0,0.0,0.0,0.0,0.0,0.0,0.0,0.0,0.0,0.0,0.0,0.0,0.0,0.0,0.0,0.0,0.0,0.0,0.0,0.0,0.0,0.0,0.0,0.0,0.0,0.0,0.0,0.0,0.0,0.0,0.0,0.0,0.0,0.0,0.0,0.0,0.0,0.0,0.0,0.0,0.0,0.0,0.0,0.0,0.0,0.0,0.0,0.0,0.0,0.0,0.0,0.0,0.0,0.0,0.0,0.0,0.0,0.0,0.0,0.0,0.0,0.0,0.0,0.0,0.0,0.0,0.0,0.0,0.0,0.0,0.0,0.0,0.0,0.0,0.0,0.0,0.0,0.0,0.0,0.0,0.0,0.0,0.0,0.0,0.0,0.0,0.0,0.0,0.0,0.0,0.0,0.0,0.0,0.0,0.0,0.0,0.0,0.0,0.0,0.0,0.0,0.0,0.0,0.0,0.0,0.0,0.0,0.0,0.0,0.0,0.0,0.0,0.0,0.0,0.0,0.0,0.0,0.0,0.0,0.0,0.0,0.0,0.0,0.0,0.0,0.0,0.0,0.0,0.0,0.0,0.0,0.0,0.0,0.0,0.0,0.0,0.0,0.0,0.0,0.0,0.0,0.0,0.0,0.0,0.0,0.0,0.0,0.0,0.0,0.0,0.0,0.0,0.0,0.0,0.0,0.0,0.0,0.0,0.0,0.0,0.0,0.0,0.0,0.0,0.0,0.0,0.0,0.0,0.0,0.0,0.0,0.0,0.0,0.0,0.0,0.0,0.0,0.0,0.0,0.0,0.0,0.0,0.0,0.0,0.0,0.0,0.0,0.0,0.0,0.0,0.0,0.0,0.0,0.0,0.0,0.0,0.0,0.0,0.0,0.0,0.0,0.0,0.0,0.0,0.0,0.0,0.0,0.0,0.0,0.0,0.0,0.0,0.0,0.0,0.0,0.0,0.0,0.0,0.0,0.0,0.0,0.0,0.0,0.0,0.0,0.0,0.0,0.0,0.0,0.0,0.0,0.0,0.0,0.0,0.0,0.0,0.0,0.0,0.0,0.0,0.0,0.0,0.0,0.0,0.0,0.0,0.0,0.0,0.0,0.0,0.0,0.0,0.0,0.0,0.0,0.0,0.0,0.0,0.0,0.0,0.0,0.0,0.0,0.0,0.0,0.0,0.0,0.0,0.0,0.0,0.0,0.0,0.0,0.0,0.0,0.0,0.0,0.0,0.0,0.0,0.0,0.0,0.0,0.0,0.0,0.0,0.0,0.0,0.0,0.0,0.0,0.0,0.0,0.0,0.0,0.0,0.0,0.0,0.0,0.0,0.0,0.0,0.0,0.0,0.0,0.0,0.0,0.0,0.0,0.0,0.0,0.0,0.0,0.0,0.0,0.0,0.0,0.0,0.0,0.0,0.0,0.0,0.0,0.0,0.0,0.0,0.0,0.0,0.0,0.0,0.0,0.0,0.0,0.0,0.0,0.0,0.0,0.0,0.0,0.0,0.0,0.0,0.0,0.0,0.0,0.0,0.0,0.0,0.0,0.0,0.0,0.0,0.0,0.0,0.0,0.0,0.0,0.0,0.0,0.0,0.0,0.0,0.0,0.0,0.0,0.0,0.0,0.0,0.0,0.0,0.0,0.0,0.0,0.0,0.0,0.0,0.0,0.0,0.0,0.0,0.0,0.0,0.0,0.0,0.0,0.0,0.0,0.0,0.0,0.0,0.0,0.0,0.0,0.0,0.0,0.0,0.0,0.0,0.0,0.0,0.0,0.0,0.0,0.0,0.0,0.0,0.0,0.0,0.0,0.0,0.0,0.0,0.0,0.0,0.0,0.0,0.0,0.0,0.0,0.0,0.0,0.0,0.0,0.0,0.0,0.0,0.0,0.0,0.0,0.0,0.0,0.0,0.0,0.0,0.0,0.0,0.0,0.0,0.0,0.0,0.0,0.0,0.0,0.0,0.0,0.0,0.0,0.0,0.0,0.0,0.0,0.0,0.0,0.0,0.0,0.0,0.0,0.0,0.0,0.0,0.0,0.0,0.0,0.0,0.0,0.0,0.0,0.0,0.0,0.0,0.0,0.0,0.0,0.0,0.0,0.0,0.0,0.0,0.0,0.0,0.0,0.0,0.0,0.0,0.0,0.0,0.0,0.0,0.0,0.0,0.0,0.0,0.0,0.0,0.0,0.0,0.0,0.0,0.0,0.0,0.0,0.0,0.0,0.0,0.0,0.0,0.0,0.0,0.0,0.0,0.0,0.0,0.0,0.0,0.0,0.0,0.0,0.0,0.0,0.0,0.0,0.0,0.0,0.0,0.0,0.0,0.0,0.0,0.0,0.0,0.0,0.0,0.0,0.0,0.0,0.0,0.0,0.0,0.0,0.0,0.0,0.0,0.0,0.0,0.0,0.0,0.0,0.0,0.0,0.0,0.0,0.0,0.0,0.0,0.0,0.0,0.0,0.0,0.0,0.0,0.0,0.0,0.0,0.0,0.0,0.0,0.0,0.0,0.0,0.0,0.0,0.0,0.0,0.0,0.0,0.0,0.0,0.0,0.0,0.0,0.0,0.0,0.0,0.0,0.0,0.0,0.0,0.0,0.0,0.0,0.0,0.0,0.0,0.0,0.0,0.0,0.0,0.0,0.0,0.0,0.0,0.0,0.0,0.0,0.0,0.0,0.0,0.0,0.0,0.0,0.0,0.0,0.0,0.0,0.0,0.0,0.0,0.0,0.0,0.0,0.0,0.0,0.0,0.0,0.0,0.0,0.0,0.0,0.0,0.0,0.0,0.0,0.0,0.0,0.0,0.0,0.0,0.0,0.0,0.0,0.0,0.0,0.0,0.0,0.0,0.0,0.0,0.0,0.0,0.0,0.0,0.0,0.0,0.0,0.0,0.0,0.0,0.0,0.0,0.0,0.0,0.0,0.0,0.0,0.0,0.0,0.0,0.0,0.0,0.0,0.0,0.0,0.0,0.0,0.0,0.0,0.0,0.0,0.0,0.0,0.0,0.0,0.0,0.0,0.0,0.0,0.0,0.0,0.0,0.0,0.0,0.0,0.0,0.0,0.0,0.0,0.0,0.0,0.0,0.0,0.0,0.0,0.0,0.0,0.0,0.0,0.0,0.0,0.0,0.0,0.0,0.0,0.0,0.0,0.0,0.0,0.0,0.0,0.0,0.0,0.0,0.0,0.0,0.0,0.0,0.0,0.0,0.0,0.0,0.0,0.0,0.0,0.0,0.0,0.0,0.0,0.0,0.0,0.0,0.0,0.0,0.0,0.0,0.0,0.0,0.0,0.0,0.0,0.0,0.0,0.0,0.0,0.0,0.0,0.0,0.0,0.0,0.0,0.0,0.0,0.0,0.0,0.0,0.0,0.0,0.0,0.0,0.0,0.0,0.0,0.0,0.0,0.0,0.0,0.0,0.0,0.0,0.0,0.0,0.0,0.0,0.0,0.0,0.0,0.0,0.0,0.0,0.0,0.0,0.0,0.0,0.0,0.0,0.0,0.0,0.0,0.0,0.0,0.0,0.0,0.0,0.0,0.0,0.0,0.0,0.0,0.0,0.0,0.0,0.0,0.0,0.0,0.0,0.0,0.0,0.0,0.0,0.0,0.0,0.0,0.0,0.0,0.0,0.0,0.0,0.0,0.0,0.0,0.0,0.0,0.0,0.0,0.0,0.0,0.0,0.0,0.0,0.0,0.0,0.0,0.0,0.0,0.0,0.0,0.0,0.0,0.0,0.0,0.0,0.0,0.0,0.0,0.0,0.0,0.0,0.0,0.0,0.0,0.0,0.0,0.0,0.0,0.0,0.0,0.0,0.0,0.0,0.0,0.0,0.0,0.0,0.0,0.0,0.0,0.0,0.0,0.0,0.0,0.0,0.0,0.0,0.0,0.0,0.0,0.0,0.0,0.0,0.0,0.0,0.0,0.0,0.0,0.0,0.0,0.0,0.0,0.0,0.0,0.0,0.0,0.0,0.0,0.0,0.0,0.0,0.0,0.0,0.0,0.0,0.0,0.0,0.0,0.0,0.0,0.0,0.0,0.0,0.0,0.0,0.0,0.0,0.0,0.0,0.0,0.0,0.0,0.0,0.0,0.0,0.0,0.0,0.0,0.0,0.0,0.0,0.0,0.0,0.0,0.0,0.0,0.0,0.0,0.0,0.0,0.0,0.0,0.0,0.0,0.0,0.0,0.0,0.0,0.0,0.0,0.0,0.0,0.0,0.0,0.0,0.0,0.0,0.0,0.0,0.0,0.0,0.0,0.0,0.0,0.0,0.0,0.0,0.0,0.0,0.0,0.0,0.0,0.0,0.0,0.0,0.0,0.0,0.0,0.0,0.0,0.0,0.0,0.0,0.0,0.0,0.0,0.0,0.0,0.0,0.0,0.0,0.0,0.0,0.0,0.0,0.0,0.0,0.0,0.0,0.0,0.0,0.0,0.0,0.0,0.0,0.0,0.0,0.0,0.0,0.0,0.0,0.0,0.0,0.0,0.0,0.0,0.0,0.0,0.0,0.0,0.0,0.0,0.0,0.0,0.0,0.0,0.0,0.0,0.0,0.0,0.0,0.0,0.0,0.0,0.0,0.0,0.0,0.0,0.0,0.0,0.0,0.0,0.0,0.0,0.0,0.0,0.0,0.0,0.0,0.0,0.0,0.0,0.0,0.0,0.0,0.0,0.0,0.0,0.0,0.0,0.0,0.0,0.0,0.0,0.0,0.0,0.0,0.0,0.0,0.0,0.0,0.0,0.0,0.0,0.0,0.0,0.0,0.0,0.0,0.0,0.0,0.0,0.0,0.0,0.0,0.0,0.0,0.0,0.0,0.0,0.0,0.0,0.0,0.0,0.0,0.0,0.0,0.0,0.0,0.0,0.0,0.0,0.0,0.0,0.0,0.0,0.0,0.0,0.0,0.0,0.0,0.0,0.0,0.0,0.0,0.0,0.0,0.0,0.0,0.0,0.0,0.0,0.0,0.0,0.0,0.0,0.0,0.0,0.0,0.0,0.0,0.0,0.0,0.0,0.0,0.0,0.0,0.0,0.0,0.0,0.0,0.0,0.0,0.0,0.0,0.0,0.0,0.0,0.0,0.0,0.0,0.0,0.0,0.0,0.0,0.0,0.0,0.0,0.0,0.0,0.0,0.0,0.0,0.0,0.0,0.0,0.0,0.0,0.0,0.0,0.0,0.0,0.0,0.0,0.0,0.0,0.0,0.0,0.0,0.0,0.0,0.0,0.0,0.0,0.0,0.0,0.0,0.0,0.0,0.0,0.0,0.0,0.0,0.0,0.0,0.0,0.0,0.0,0.0,0.0,0.0,-5.1254,-5.0532,0.0,0.0,0.0,0.0,0.0,0.0,0.0,0.0,0.0,0.0,0.0,0.0,0.0,0.0,0.0,0.0,0.0,0.0,0.0,0.0,0.0,0.0,0.0,0.0,0.0,0.0,0.0,0.0,0.0,0.0,0.0,0.0,0.0,0.0,0.0,0.0,0.0,0.0,0.0,0.0,0.0,0.0,0.0,0.0,0.0,0.0,0.0,0.0,0.0,0.0,0.0,0.0,0.0,0.0,0.0,0.0,0.0,0.0,0.0,0.0,0.0,0.0,0.0,0.0,0.0,0.0,0.0,0.0,0.0,0.0,0.0,0.0,0.0,0.0,0.0,0.0,0.0,0.0,0.0,0.0,0.0,0.0,0.0,0.0,0.0,0.0,0.0,0.0,0.0,0.0,0.0,0.0,0.0,0.0,0.0,0.0,0.0,0.0,0.0,0.0,0.0,0.0,0.0,0.0,0.0,0.0,0.0,0.0,0.0,0.0,0.0,0.0,0.0,0.0,-5.2247,-5.1714,0.0,0.0,0.0,0.0,0.0,0.0,0.0,0.0,0.0,0.0,0.0,0.0,0.0,0.0,0.0,0.0,0.0,0.0,0.0,0.0,0.0,0.0,0.0,0.0,-5.3479,-5.3479,-5.2571,0.0,0.0,0.0,0.0,0.0,0.0,0.0,0.0,0.0,0.0,0.0,0.0,0.0,0.0,0.0,0.0,0.0,0.0,0.0,0.0,0.0,0.0,0.0,0.0,0.0,0.0,0.0,0.0,0.0,0.0,0.0,0.0,0.0,0.0,0.0,0.0,0.0,0.0,0.0,0.0,0.0,0.0,0.0,0.0,0.0,0.0,0.0,0.0,0.0,0.0,0.0,0.0,0.0,0.0,0.0,0.0,0.0,0.0,0.0,0.0,0.0,0.0,0.0,0.0,0.0,0.0,0.0,0.0,0.0,0.0,0.0,0.0,0.0,0.0,0.0,0.0,0.0,0.0,0.0,0.0,0.0,-5.495,-5.495,-5.4047,-5.4876,-5.4876,-5.4259,-5.4205,-5.3812,-5.3182,-5.265,0.0,0.0,0.0,0.0,0.0,0.0,0.0,0.0,0.0,0.0,0.0,0.0,0.0,0.0,0.0,0.0,0.0,0.0,0.0,0.0,0.0,-5.1323,-5.2247,-5.2247,-5.2086,-5.1721,0.0,0.0,0.0,0.0,0.0,0.0,0.0,0.0,0.0,0.0,0.0,0.0,-4.2875,-4.3496,-4.3939,-4.4258,-4.7174,0.0,0.0,0.0,0.0,0.0,0.0,0.0,0.0,0.0,0.0,0.0,0.0,0.0,0.0,0.0,0.0,0.0,0.0,0.0,0.0,0.0,0.0,0.0,0.0,0.0,0.0,0.0,0.0,0.0,0.0,0.0,0.0,0.0,0.0,0.0,0.0,0.0,0.0,0.0,0.0,0.0,0.0,0.0,-5.5574,-5.6381,0.0,0.0,0.0,0.0,0.0,0.0,0.0,0.0,0.0,0.0,0.0,0.0,0.0,-5.4142,-5.4252,-5.6308,-5.7005,-5.6345,-5.8547,-5.8841,-5.7373,-5.8217,-5.8487,-5.8437,-5.8405,0.0,-5.3739,-5.4336,0.0,0.0,0.0,0.0,0.0,0.0,0.0,0.0,0.0,0.0,0.0,0.0,0.0,0.0,0.0,0.0,0.0,0.0,0.0,0.0,0.0,-4.9695,-5.0206,-5.0272,-5.0177,-4.9986,-4.958,0.0,0.0,0.0,0.0,0.0,0.0,0.0,0.0,0.0,-4.3128,-4.1801,-4.1094,-4.1373,-4.1982,-4.2855,-4.4569,-4.6793,-4.9185,-4.898,0.0,0.0,0.0,0.0,0.0,0.0,0.0,0.0,0.0,0.0,0.0,0.0,0.0,0.0,0.0,0.0,0.0,0.0,0.0,0.0,0.0,0.0,0.0,0.0,0.0,0.0,0.0,0.0,0.0,0.0,0.0,0.0,0.0,0.0,0.0,0.0,0.0,0.0,0.0,-5.5317,-5.6418,-5.6748,-5.6492,-5.5904,0.0,0.0,0.0,0.0,0.0,0.0,0.0,0.0,0.0,-5.5207,-5.6014,-5.6638,-5.7116,-5.8584,-5.9171,-5.8841,-5.9905,-6.0015,-5.9355,-5.9722,-5.9869,-5.9869,-5.9869,-5.8736,-5.6762,-5.623,-5.4568,-5.2301,0.0,0.0,0.0,0.0,-5.0525,-5.0588,0.0,0.0,0.0,0.0,0.0,0.0,0.0,0.0,0.0,0.0,0.0,0.0,-4.8063,-4.8077,-4.8191,-4.8293,-4.8524,-4.875,-4.8887,-4.9346,0.0,0.0,0.0,0.0,0.0,0.0,0.0,-4.2181,-4.1323,-4.0629,-4.0113,-4.0282,-4.1094,-4.232,-4.3301,-4.5234,-4.7827,-4.7758,-4.8424,0.0,0.0,0.0,0.0,0.0,0.0,0.0,0.0,0.0,0.0,0.0,0.0,0.0,0.0,0.0,0.0,0.0,0.0,0.0,0.0,0.0,0.0,0.0,0.0,0.0,0.0,0.0,0.0,0.0,0.0,0.0,0.0,0.0,0.0,0.0,0.0,0.0,0.0,-5.6822,-5.7666,-5.7446,-5.7776,-5.7336,0.0,0.0,0.0,0.0,0.0,0.0,-5.6822,-5.7005,-5.7409,-5.8033,-5.8804,-5.9428,-5.9832,-6.0603,-6.1006,-6.1006,-6.1006,-6.1006,-6.1006,-6.1006,-6.1006,-6.1006,-6.0786,-6.0272,-5.9368,-5.7776,-5.5831,-5.3781,-5.3191,-5.2493,-5.1788,-5.1788,-5.1788,-5.188,0.0,0.0,0.0,0.0,0.0,0.0,0.0,0.0,0.0,0.0,0.0,-4.6458,-4.6437,-4.6516,-4.6637,-4.6625,-4.7833,-4.8923,-4.9703,-4.9638,-4.9921,-5.0655,0.0,0.0,0.0,0.0,0.0,-4.2109,-4.0812,-4.0146,-4.0113,-4.0832,-4.1542,-4.2354,-4.387,-4.5747,-4.7773,-4.7792,-4.8216,-4.8859,0.0,0.0,0.0,0.0,0.0,0.0,0.0,0.0,0.0,0.0,0.0,0.0,0.0,0.0,0.0,0.0,0.0,0.0,0.0,0.0,0.0,0.0,0.0,0.0,0.0,0.0,0.0,0.0,0.0,0.0,0.0,0.0,0.0,0.0,0.0,0.0,0.0,0.0,0.0,-5.9148,-6.0419,0.0,0.0,0.0,0.0,-5.6748,-5.812,-5.9331,-6.0126,-6.086,-6.13,-6.1337,-6.2144,-6.2218,-6.1484,-6.2291,-6.2695,-6.2695,-6.2695,-6.2695,-6.2695,-6.2695,-6.2695,-6.2633,-6.1887,-6.108,-6.0199,-5.8584,-5.6969,-5.539,-5.4604,-5.3818,-5.3099,-5.3099,-5.3099,-5.3209,0.0,0.0,0.0,0.0,0.0,0.0,0.0,0.0,0.0,-4.9532,-4.7856,-4.6573,-4.6364,-4.52,-4.4669,-4.5251,-4.5715,-4.6448,-4.7558,-4.8511,-4.9086,-4.9204,0.0,0.0,0.0,0.0,-4.3836,-4.1907,-4.1426,-4.1196,-4.1173,-4.1091,-4.1665,-4.2911,-4.3525,-4.4794,-4.6504,-4.6982,-4.7541,-4.8111,-4.7587,-4.7467,0.0,0.0,0.0,0.0,0.0,0.0,0.0,0.0,0.0,0.0,0.0,0.0,0.0,0.0,0.0,0.0,0.0,0.0,0.0,0.0,0.0,0.0,0.0,0.0,0.0,0.0,0.0,0.0,0.0,0.0,0.0,0.0,0.0,0.0,0.0,0.0,0.0,-6.1496,-6.2989,0.0,-6.2071,-6.141,-6.119,-6.1484,-6.152,-6.2083,-6.3503,-6.3319,-6.3429,-6.398,-6.4273,-6.4016,-6.3209,-6.3503,-6.3356,-6.278,-6.278,-6.278,-6.278,-6.278,-6.278,-6.2732,-6.141,-6.0676,-6.0272,-5.8657,-5.7373,-5.6345,-5.6051,-5.5464,-5.473,-5.473,-5.473,-5.4693,0.0,0.0,0.0,0.0,0.0,0.0,0.0,0.0,-4.9848,-4.9183,-4.7822,-4.6645,-4.6029,-4.4753,-4.4103,-4.4509,-4.442,-4.508,-4.6708,-4.7519,-4.8281,0.0,-4.9664,0.0,0.0,-4.5216,-4.3852,-4.2083,-4.1895,-4.181,-4.1789,-4.1385,-4.1801,-4.2856,-4.3433,-4.4306,-4.5399,-4.638,-4.6864,-4.6959,-4.6692,-4.6969,-4.7413,0.0,0.0,0.0,0.0,0.0,0.0,0.0,0.0,0.0,0.0,0.0,0.0,0.0,0.0,0.0,0.0,0.0,0.0,0.0,0.0,0.0,0.0,0.0,0.0,0.0,0.0,0.0,0.0,0.0,0.0,0.0,0.0,0.0,0.0,-6.0382,-6.2622,-6.3172,-6.5191,-6.5999,-6.464,-6.4457,-6.4567,-6.4897,-6.4897,-6.5338,-6.6476,-6.5999,-6.5852,-6.6109,-6.5852,-6.5338,-6.4494,-6.4494,-6.409,-6.3246,-6.3246,-6.3099,-6.278,-6.278,-6.278,-6.2707,-6.1117,-6.0419,-6.0272,-5.8657,-5.7703,-5.7189,-5.7189,-5.6895,-5.6381,-5.6381,-5.6381,-5.6235,0.0,0.0,0.0,0.0,0.0,0.0,0.0,-5.0358,-4.9682,-4.8469,-4.752,-4.6488,-4.5292,-4.5229,-4.5082,-4.4525,-4.4226,-4.5067,-4.7488,-4.6815,-4.7586,0.0,0.0,0.0,-4.5957,-4.465,-4.3546,-4.2768,-4.2165,-4.186,-4.1895,-4.1839,-4.1952,-4.2226,-4.3642,-4.4387,-4.4705,-4.6167,-4.627,-4.5497,-4.619,-4.6832,-4.7184,0.0,0.0,0.0,0.0,0.0,0.0,0.0,0.0,0.0,0.0,0.0,0.0,0.0,0.0,0.0,0.0,0.0,0.0,0.0,0.0,0.0,0.0,0.0,0.0,0.0,0.0,0.0,0.0,0.0,0.0,0.0,0.0,0.0,-5.9441,-6.2144,-6.4237,-6.4273,-6.7063,-6.8091,-6.5778,-6.6916,-6.7504,-6.6769,-6.8091,-6.8972,-6.8972,-6.8972,-6.8568,-6.7797,-6.7026,-6.6219,-6.5375,-6.5375,-6.4971,-6.4127,-6.409,-6.3649,-6.2842,-6.278,-6.278,-6.2707,-6.1117,-6.0419,-6.0272,-5.8657,-5.7997,-5.7997,-5.7997,-5.7997,-5.7997,-5.7997,-5.796,-5.774,0.0,0.0,0.0,0.0,0.0,0.0,0.0,-5.0604,-5.0074,-4.8833,-4.8112,-4.743,-4.6755,-4.5595,-4.5236,-4.6208,-4.4409,-4.4231,-4.659,-4.6031,-4.6663,0.0,0.0,0.0,-4.6746,-4.5491,-4.4724,-4.4502,-4.4029,-4.3669,-4.3379,-4.3013,-4.3004,-4.3372,-4.3893,-4.4495,-4.5107,-4.6185,-4.6419,-4.6039,-4.5785,-4.579,-4.5818,0.0,0.0,0.0,0.0,0.0,0.0,0.0,0.0,0.0,0.0,0.0,0.0,0.0,0.0,0.0,0.0,0.0,0.0,0.0,0.0,0.0,0.0,0.0,0.0,0.0,0.0,0.0,0.0,0.0,0.0,0.0,-6.0352,-6.2222,-6.2693,-6.5044,-6.7136,-6.8311,-6.9743,-7.0844,-7.1321,-7.0734,-7.0697,-7.1651,-7.0513,-7.0036,-7.0624,-7.011,-6.9669,-6.9449,-6.9229,-6.8421,-6.7063,-6.7026,-6.6329,-6.4971,-6.4383,-6.398,-6.3723,-6.3099,-6.278,-6.2707,-6.1117,-6.0419,-6.0272,-5.8657,-5.7997,-5.7997,-5.7997,-5.7997,-5.7997,-5.7997,-5.7629,-5.7079,0.0,0.0,0.0,0.0,0.0,0.0,0.0,-5.0712,-5.0113,-4.8518,-4.891,-4.8813,-4.7335,-4.6925,-4.6783,-4.6908,-4.5152,-4.4578,-4.5811,-4.5811,0.0,0.0,0.0,-4.578,-4.6202,-4.5904,-4.5749,-4.5749,-4.5679,-4.5348,-4.4772,-4.4639,-4.4394,-4.4084,-4.4698,-4.5081,-4.5328,-4.6154,-4.6656,-4.6797,-4.6003,-4.5908,-4.6056,-4.4525,-4.4513,-4.5272,-4.4639,-4.5697,-4.7505,-4.8192,0.0,0.0,0.0,0.0,0.0,0.0,0.0,0.0,0.0,0.0,0.0,0.0,0.0,0.0,0.0,0.0,0.0,0.0,0.0,0.0,0.0,0.0,0.0,0.0,-6.336,-6.5734,-6.7287,-6.8165,-6.9302,-7.0917,-7.1835,-7.2826,-7.4074,-7.3046,-7.2679,-7.3634,-7.2092,-7.1321,-7.1798,-7.1064,-7.0587,-7.0587,-6.9963,-6.9302,-6.8715,-6.8017,-6.721,-6.6292,-6.5485,-6.4751,-6.4053,-6.3576,-6.3172,-6.2707,-6.1117,-6.0419,-6.0272,-5.8657,-5.7997,-5.7997,0.0,0.0,0.0,0.0,-5.7703,-5.7226,0.0,0.0,0.0,0.0,0.0,0.0,0.0,-5.0712,-5.0018,-4.8051,-4.9836,-5.0188,-4.7439,-4.8421,-4.8702,-4.7163,-4.6101,-4.5452,-4.522,-4.5752,0.0,-4.4435,-4.568,-4.6074,-4.5415,-4.6335,-4.6759,-4.6685,-4.7047,-4.6807,-4.5999,-4.6375,-4.5881,-4.4688,-4.5811,-4.604,-4.5672,-4.641,-4.7204,-4.7974,-4.6946,-4.6824,-4.6966,-4.4858,-4.5236,-4.668,-4.4637,-4.4909,-4.6446,-4.7869,0.0,0.0,0.0,0.0,0.0,0.0,0.0,0.0,0.0,0.0,0.0,0.0,0.0,0.0,0.0,0.0,0.0,0.0,0.0,0.0,0.0,0.0,0.0,0.0,-6.6805,-6.9749,-7.1984,-7.1357,-7.1174,-7.2606,-7.3413,-7.4147,-7.4955,-7.4294,-7.3817,-7.3817,-7.3156,-7.2679,-7.2496,-7.1908,0.0,0.0,0.0,-6.9559,-7.0073,-6.8678,-6.7871,-6.7687,-6.688,-6.5742,-6.4347,-6.4163,-6.3686,-6.2879,-6.1153,-6.0419,-6.0272,-5.8657,-5.7997,-5.7997,-5.7997,-5.7997,-5.7997,-5.7997,-5.7997,-5.7776,0.0,0.0,0.0,0.0,0.0,0.0,0.0,-5.0712,-5.0308,-4.9182,-5.0198,-5.0186,-4.8115,-4.8028,-4.8198,-4.8402,-4.6495,-4.526,-4.5207,0.0,-4.4619,-4.6065,-4.6941,-4.7543,-4.7825,-4.8484,-4.8528,-4.7866,-4.7899,-4.7684,-4.7258,-4.7019,-4.66,-4.612,-4.6691,-4.7214,-4.7756,-4.838,-4.9492,-5.0727,-4.9653,-4.8151,-4.6424,-4.5832,-4.5397,-4.5117,-4.5277,-4.6633,-4.834,-4.8057,-4.9393,-5.1285,-5.1554,0.0,0.0,0.0,0.0,0.0,0.0,0.0,0.0,0.0,0.0,0.0,0.0,0.0,0.0,0.0,0.0,0.0,0.0,0.0,0.0,-6.5678,-6.8581,-7.1055,-7.2689,-7.3523,-7.4111,-7.4404,-7.4588,-7.4992,-7.5799,-7.5139,-7.4661,-7.4661,-7.4515,-7.3891,-7.2569,-7.2973,-7.2936,-7.2312,-7.1982,-7.1248,-7.011,-6.9779,-6.8972,-6.7687,-6.688,0.0,-6.5999,-6.4677,-6.4016,-6.3723,-6.141,-6.0419,-6.0272,-5.8657,-5.7997,-5.7997,-5.7997,-5.7997,-5.7997,-5.7997,-5.7997,-5.785,0.0,0.0,0.0,0.0,0.0,0.0,0.0,-5.0712,-5.0404,-4.951,-5.0648,-5.0813,-4.9048,-4.9164,-4.9234,-4.8966,-4.648,-4.4849,0.0,-4.4242,-4.464,-4.6014,-4.7473,-4.8532,-4.9131,-4.974,-4.9837,-4.9437,-4.9422,-4.9106,-4.8513,-4.854,-4.8115,-4.7365,-4.7813,-4.8456,-4.9251,-4.9565,-5.0285,-5.1188,-5.1074,-4.9687,-4.7703,-4.7575,-4.6802,-4.5964,-4.7089,-4.8237,-4.926,-5.0122,-5.1312,-5.263,-5.348,-5.3844,-5.3871,0.0,0.0,0.0,0.0,0.0,0.0,0.0,0.0,0.0,0.0,0.0,0.0,0.0,0.0,-5.7712,0.0,0.0,-6.5019,-6.803,-7.0506,-7.2435,-7.3529,-7.5089,-7.5983,-7.5542,-7.5506,-7.5836,-7.6644,-7.5983,-7.5506,-7.5506,-7.4771,-7.4111,-7.3744,-7.3303,-7.3083,-7.3083,-7.2312,-7.1505,-7.0697,-6.9889,-6.9082,-6.8274,-6.7467,-6.688,-6.6476,-6.5264,-6.4494,-6.3943,-6.1484,-6.0419,-6.0272,-5.8657,-5.7997,-5.7997,-5.7997,-5.7997,-5.7997,-5.7997,-5.7997,-5.7813,0.0,0.0,0.0,0.0,0.0,0.0,0.0,0.0,-5.0442,-4.974,-5.0951,-5.1312,-4.9773,-5.0266,-5.0132,-4.8817,-4.6424,0.0,0.0,-4.482,-4.535,-4.6204,-4.8166,-4.9483,-5.0006,-5.078,-5.1096,-5.096,-5.1105,-5.0818,-5.0154,-5.0455,-4.9898,-4.872,-4.9001,-4.964,-5.044,-5.0505,-5.0986,-5.1689,-5.2267,-5.1538,-5.0102,-4.9901,-4.8831,-4.7702,-4.9227,-4.9567,-4.9613,-5.1929,-5.265,-5.2858,-5.4649,-5.5281,-5.5189,-5.3998,-5.4902,0.0,0.0,0.0,0.0,0.0,0.0,0.0,0.0,0.0,-5.4776,-5.5893,-5.7789,-6.0317,-6.3937,-6.5696,-6.7421,-6.9992,-7.2105,-7.3639,-7.4239,-7.6027,-7.7053,-7.6423,-7.635,-7.6607,-7.7237,-7.6717,-7.6276,-7.6093,-7.5028,-7.4551,-7.4882,-7.367,-7.3193,-7.367,-7.2312,-7.1394,-7.1064,-6.9779,-6.8972,-6.8678,-6.8017,-6.7283,-6.6476,-6.5668,-6.4861,-6.3943,-6.1484,-6.0236,-5.9832,-5.8547,-5.7997,-5.7997,-5.7997,-5.7997,-5.7997,-5.7997,-5.7997,-5.7776,0.0,0.0,0.0,0.0,0.0,0.0,0.0,0.0,0.0,-5.0558,-5.0956,-5.0786,-4.9709,-4.9798,-4.9216,-4.7365,0.0,0.0,-4.6153,-4.6272,-4.7007,-4.8466,-5.004,-5.0813,-5.0754,-5.2177,-5.2567,-5.1843,-5.2571,-5.2856,-5.2769,-5.2456,-5.1673,-5.0485,-5.0193,-5.0514,-5.1277,-5.1673,-5.2882,-5.4585,-5.4311,-5.3884,-5.3318,-5.2887,-5.1275,-4.9418,-5.1025,-5.0583,-4.9466,-5.1125,-5.1394,-5.1295,-5.2825,-5.3939,-5.4669,-5.4431,0.0,-5.4622,-5.4414,-5.5023,-5.5963,-5.6911,-5.6921,-5.7107,0.0,0.0,-5.9042,-6.119,-6.2829,-6.4783,-6.7895,-6.9147,-7.0026,-7.1041,-7.2864,-7.4239,-7.431,-7.6027,-7.7273,-7.7163,-7.7163,-7.72,-7.7273,-7.72,-7.69,-7.6166,-7.6607,-7.6283,-7.4992,-7.4735,-7.4368,-7.3707,-7.2826,-7.1688,-7.0257,-7.0073,-6.9229,-6.7834,-6.7724,-6.7283,-6.6476,-6.5668,-6.4861,-6.3943,-6.1484,-5.9612,-5.8253,-5.807,-5.7997,-5.7997,-5.7997,-5.7997,-5.7997,-5.7997,-5.7997,-5.7776,0.0,0.0,0.0,0.0,0.0,0.0,0.0,0.0,0.0,0.0,-5.0939,-5.0952,-5.0509,-5.0057,-4.9149,-4.7474,0.0,0.0,-4.6551,-4.6992,-4.8091,-5.0048,-5.1115,-5.1874,-5.2215,-5.288,-5.3057,-5.2695,-5.3056,-5.3203,-5.3192,-5.3009,-5.2573,-5.1823,-5.167,-5.2052,-5.2862,-5.3034,-5.3747,-5.4795,-5.5083,-5.496,-5.465,-5.4943,-5.4089,-5.2744,-5.2671,-5.2236,0.0,0.0,-5.2769,-5.3043,-5.3713,-5.4221,-5.4499,-5.4054,-5.483,0.0,-5.6973,-5.7457,-5.7898,0.0,-5.9504,-6.0189,-6.0622,-6.0155,-6.0421,-6.3275,-6.4239,-6.5662,-6.9079,-7.0331,-7.0939,0.0,-7.2533,-7.365,-7.4196,-7.551,-7.6628,-7.7212,-7.7273,-7.7273,-7.7273,-7.7273,-7.7163,-7.6827,-7.668,-7.6313,-7.5652,-7.4698,-7.4037,-7.3707,-7.2936,-7.1945,-7.0807,-7.033,-6.9522,-6.8385,-6.7907,-6.7504,-6.7136,-6.5888,-6.4347,-6.2548,-6.1043,-5.9758,-5.8657,-5.818,-5.7997,-5.7997,-5.7997,-5.7997,-5.7997,-5.7997,-5.7997,-5.7776,0.0,0.0,0.0,0.0,0.0,0.0,0.0,0.0,0.0,0.0,0.0,-5.1089,-5.1089,-5.032,-4.922,0.0,0.0,0.0,0.0,-4.7897,-4.9372,-5.1545,-5.2136,-5.2885,-5.3827,-5.4107,-5.4226,-5.4226,-5.4472,-5.4626,-5.4626,-5.4626,-5.4254,-5.362,-5.3391,-5.3658,-5.4231,-5.3989,-5.4252,-5.4895,-5.5472,-5.5658,-5.567,-5.5923,-5.586,-5.5454,-5.4451,-5.3604,0.0,0.0,-5.3602,-5.3897,-5.4134,-5.4221,-5.4192,-5.3885,-5.4938,-5.6494,-5.7631,0.0,0.0,-6.0309,-6.1807,-6.3025,-6.2774,-6.2156,-6.2413,-6.5124,-6.5638,-6.6534,-6.9596,-7.0804,-7.1312,-7.1312,-7.2142,-7.3131,-7.4158,-7.5192,-7.6088,-7.6888,-7.6974,-7.6974,-7.6974,-7.7163,-7.7273,-7.7273,-7.679,-7.635,-7.6093,-7.4771,-7.3927,-7.3707,-7.2936,-7.2129,-7.1293,-7.0513,-6.9706,-6.8898,-6.8091,-6.7467,-6.699,-6.5338,-6.3503,-6.1557,-6.075,-5.9942,-5.9148,-5.8327,-5.7997,-5.7997,-5.7997,-5.7997,-5.7997,-5.7997,-5.7997,-5.7813,0.0,0.0,0.0,0.0,0.0,0.0,0.0,0.0,0.0,0.0,0.0,0.0,0.0,0.0,0.0,0.0,0.0,0.0,0.0,-4.9325,-5.1128,-5.3135,-5.3255,-5.3961,-5.55,-5.6369,-5.6769,-5.6769,-5.7685,-5.8165,-5.8165,-5.8165,-5.7477,-5.6242,-5.5389,-5.5032,-5.4994,-5.4231,-5.4559,-5.5665,-5.5703,-5.6203,-5.6824,-5.5581,-5.5844,-5.6777,-5.6351,0.0,0.0,0.0,-5.2794,-5.2395,-5.3027,-5.3352,0.0,-5.4275,-5.4505,0.0,0.0,0.0,-5.9618,-6.1394,-6.3361,-6.5074,-6.6049,-6.601,-6.6208,-6.7611,-6.7975,-6.8515,-6.994,-7.0804,-7.1312,-7.1312,-7.2142,-7.3131,-7.4158,-7.5192,-7.5871,-7.6112,-7.613,-7.613,0.0,-7.6864,-7.7273,-7.7273,-7.7273,-7.6937,-7.613,-7.5322,-7.4515,-7.3707,-7.2936,-7.2129,-7.1293,-7.0513,-6.9706,-6.8898,-6.8091,-6.688,-6.5338,-6.3649,-6.2401,-6.1557,-6.075,-5.9942,-5.9148,-5.8327,-5.7997,-5.7997,-5.7997,-5.7997,-5.7997,-5.7997,-5.7997,-5.7886,0.0,0.0,0.0,0.0,0.0,0.0,0.0,0.0,0.0,0.0,0.0,0.0,0.0,0.0,0.0,0.0,0.0,0.0,0.0,-5.0327,-5.1821,-5.2736,-5.3842,-5.4704,-5.5275,-5.6326,-5.703,-5.7361,-5.7991,-5.8319,-5.8319,-5.8319,-5.8081,-5.7642,-5.7335,-5.722,-5.722,-5.6913,-5.7344,-5.8127,-5.7022,-5.7753,-5.9346,-5.7819,-5.7128,-5.6953,0.0,0.0,0.0,0.0,0.0,0.0,-5.2449,0.0,0.0,-5.2285,0.0,0.0,0.0,0.0,-6.1523,-6.4459,-6.6555,-6.8065,-6.8718,-6.8097,-6.7516,-6.7963,-6.6529,-6.5765,-6.759,-6.8571,-6.9214,-6.9755,-7.0944,-7.2406,-7.4043,-7.4572,-7.5152,-7.6014,-7.6093,0.0,0.0,0.0,-7.6754,-7.7237,-7.7273,-7.6974,-7.613,-7.5836,-7.5065,-7.3744,-7.345,-7.2642,-7.1293,-7.0513,-6.9706,-6.8898,-6.8091,-6.6843,-6.5301,-6.4714,-6.3429,-6.1557,-6.075,-5.9942,-5.9158,-5.868,-5.8482,-5.8503,-5.8796,-5.8716,-5.8482,-5.8482,-5.826,-5.7886,0.0,0.0,0.0,0.0,0.0,0.0,0.0,0.0,0.0,0.0,0.0,0.0,0.0,0.0,0.0,0.0,0.0,0.0,0.0,0.0,-5.2198,-5.3133,-5.392,-5.4611,-5.5246,-5.622,-5.6983,-5.7586,-5.8359,-5.8896,-5.9204,-5.9204,-5.9204,-5.9165,-5.8858,-5.8742,-5.8704,-5.8434,-5.8588,-5.8934,-5.755,-5.8176,-5.9704,-5.8011,-5.7124,0.0,0.0,0.0,0.0,0.0,0.0,0.0,0.0,0.0,0.0,0.0,0.0,0.0,0.0,-5.9868,-6.2524,-6.6374,-6.8334,-6.953,-7.0233,-6.9418,-6.853,-6.8476,-6.6375,-6.4941,-6.6257,-6.7063,-6.7692,-6.8199,-6.9553,-7.1156,-7.3077,-7.3693,-7.4297,-7.5434,-7.5873,-7.5909,0.0,0.0,0.0,-7.6827,-7.69,-7.6644,-7.613,-7.5836,-7.5065,-7.3744,-7.3413,-7.2789,-7.1762,-7.066,-6.9559,-6.8458,-6.765,-6.668,-6.5521,-6.5073,-6.3775,-6.1818,-6.0809,-5.9942,-5.9158,-5.8858,-5.8713,-5.8773,-5.9212,-5.9102,-5.8713,-5.8713,-5.8397,-5.7923,0.0,0.0,0.0,0.0,0.0,0.0,0.0,0.0,0.0,0.0,0.0,0.0,0.0,0.0,0.0,0.0,0.0,0.0,0.0,0.0,0.0,-5.4182,-5.3569,-5.3946,-5.5546,-5.6101,-5.6771,-5.7624,-5.8858,-5.9858,-6.0666,-6.0666,-6.0666,-6.0627,-5.9819,-5.9435,-5.9396,-5.8627,-5.8319,-5.828,-5.7368,-5.755,-5.8165,-5.6434,0.0,0.0,0.0,0.0,0.0,0.0,0.0,0.0,0.0,0.0,0.0,0.0,0.0,-5.4274,-5.7441,-6.001,-6.2828,-6.7096,-6.8767,-6.9626,-7.069,-7.0099,-6.9277,-6.9043,-6.7368,-6.5897,0.0,0.0,-6.6711,-6.6745,-6.8132,-6.9816,-7.1572,-7.2644,-7.3617,0.0,0.0,0.0,0.0,0.0,0.0,-7.6056,-7.6093,-7.6093,-7.6093,-7.5395,-7.4588,-7.3707,-7.2973,-7.2532,-7.2459,-7.0844,-6.9265,-6.7724,-6.6953,-6.6358,-6.5969,-6.4771,-6.3527,-6.2289,-6.0983,-5.9966,-5.9121,-5.8821,-5.8696,-5.8776,-5.9248,-5.9158,-5.8756,-5.8736,-5.8439,-5.8042,0.0,0.0,0.0,0.0,0.0,0.0,0.0,0.0,0.0,0.0,0.0,0.0,0.0,0.0,0.0,0.0,0.0,0.0,0.0,0.0,0.0,0.0,0.0,0.0,0.0,0.0,0.0,0.0,0.0,-5.8704,-5.8934,-5.8934,-5.8934,-5.8934,-5.8704,-5.8627,-5.8588,-5.8396,-5.8665,-5.9088,0.0,-5.7857,-5.9011,0.0,0.0,0.0,0.0,0.0,0.0,0.0,0.0,0.0,0.0,0.0,-5.2002,0.0,0.0,-5.6593,-5.9269,-6.2051,-6.4986,-6.8178,-6.9635,-7.0403,-7.0805,-7.0574,-6.9696,-6.7769,-6.5375,-6.3425,0.0,0.0,0.0,-6.5899,-6.8673,0.0,-7.3374,-7.3875,0.0,-7.5598,0.0,-7.5873,-7.5285,-7.5028,0.0,-7.6056,-7.6093,-7.6093,-7.6093,-7.5909,-7.5139,-7.3744,-7.3487,-7.2826,-7.1651,-7.0,-6.9009,-6.8568,-6.776,-6.6911,-6.5992,-6.5645,-6.4033,-6.1491,-6.1156,-5.9975,-5.8336,-5.8598,-5.8913,-5.9266,-5.976,-5.9855,-5.969,-5.9337,-5.8932,-5.8508,0.0,0.0,0.0,0.0,0.0,0.0,0.0,0.0,0.0,0.0,0.0,0.0,0.0,0.0,0.0,0.0,0.0,0.0,0.0,0.0,0.0,0.0,0.0,0.0,0.0,0.0,0.0,0.0,0.0,0.0,0.0,-5.7742,-5.7511,-5.7165,-5.755,-5.7742,-5.7742,-5.7742,0.0,0.0,0.0,0.0,0.0,0.0,0.0,0.0,0.0,0.0,0.0,0.0,0.0,-5.3473,-5.3264,-5.2811,-5.2504,-5.3516,0.0,-5.7529,-6.0705,-6.303,-6.5323,-6.8525,-6.9652,-6.9967,-6.9831,-6.9353,-6.8367,-6.6174,-6.3632,0.0,-6.1062,0.0,0.0,0.0,0.0,0.0,-7.2858,-7.3549,-7.4368,0.0,-7.6355,0.0,-7.5989,-7.5652,-7.5763,-7.657,-7.6313,-7.6093,-7.6093,-7.5763,-7.4992,-7.3744,-7.334,-7.2569,-7.1293,-6.9706,-6.8898,-6.8898,-6.8091,-6.7096,-6.5969,-6.5787,-6.403,-6.1193,-6.0951,-5.9774,-5.8042,-5.8524,-5.899,-5.9441,-5.9916,-5.9962,-5.9776,-5.9492,-5.899,-5.8418,0.0,0.0,0.0,0.0,0.0,0.0,0.0,0.0,0.0,0.0,0.0,0.0,0.0,0.0,0.0,0.0,0.0,0.0,0.0,0.0,0.0,0.0,0.0,0.0,0.0,0.0,0.0,0.0,0.0,0.0,0.0,0.0,0.0,0.0,0.0,0.0,0.0,0.0,0.0,0.0,0.0,0.0,0.0,0.0,0.0,0.0,0.0,0.0,0.0,0.0,-5.4555,-5.3043,-5.428,-5.3827,-5.3279,-5.5379,-5.6664,-5.8213,-6.1955,-6.3612,-6.5182,-6.8608,-6.9463,-6.9304,-6.8719,-6.773,-6.639,-6.4615,0.0,-6.0408,-6.0421,-6.142,-6.2591,-6.3645,0.0,-6.8871,-7.1625,-7.2788,-7.4009,-7.5783,-7.6761,-7.7273,-7.7273,-7.668,-7.6497,-7.709,-7.6497,-7.6056,-7.5946,-7.5175,-7.4368,-7.356,-7.2863,-7.2165,-7.1439,-6.9853,-6.9082,-6.9045,-6.8017,-6.7022,-6.5969,-6.546,-6.3735,-6.1172,-6.072,-5.9535,-5.8042,-5.8524,-5.899,-5.9441,-5.9916,-5.9885,-5.9559,-5.9441,-5.8894,-5.8238,0.0,0.0,0.0,0.0,0.0,0.0,0.0,0.0,0.0,0.0,-5.2427,-5.2033,0.0,0.0,0.0,0.0,0.0,0.0,0.0,0.0,0.0,0.0,0.0,0.0,0.0,0.0,0.0,0.0,0.0,0.0,0.0,0.0,0.0,0.0,0.0,0.0,0.0,0.0,0.0,0.0,0.0,0.0,0.0,0.0,0.0,0.0,0.0,0.0,0.0,0.0,-5.7026,-5.5989,-5.5553,-5.5689,-5.6225,-5.7216,-5.893,-6.1006,-6.3156,-6.5174,-6.7303,-6.9769,-7.0331,-7.0137,-6.9601,-6.815,0.0,0.0,-6.1754,-6.043,-6.04,-6.1005,-6.2361,-6.4973,0.0,0.0,0.0,0.0,-7.4833,0.0,0.0,0.0,0.0,-7.7163,0.0,-7.635,-7.6166,-7.5799,-7.5139,-7.4368,-7.3523,-7.2716,-7.2569,-7.2422,-7.2312,-7.0697,-6.9889,-6.9853,-6.7724,-6.6443,-6.5992,-6.5208,-6.352,-6.1193,-6.1087,-5.9893,-5.8042,-5.8524,-5.899,-5.9441,-5.9916,-6.0297,-6.0469,-5.9712,-5.9284,-5.9158,0.0,0.0,0.0,0.0,0.0,0.0,0.0,-5.2318,-5.3163,-5.4725,-5.48,-5.4559,-5.4336,-5.4167,0.0,0.0,0.0,0.0,0.0,0.0,0.0,0.0,0.0,0.0,0.0,0.0,0.0,0.0,0.0,0.0,0.0,0.0,0.0,0.0,0.0,0.0,0.0,0.0,0.0,0.0,0.0,0.0,0.0,0.0,0.0,0.0,0.0,0.0,0.0,0.0,-5.8559,-5.815,-5.7905,-5.7658,-5.773,-5.9286,-6.0492,-6.1779,-6.3797,-6.5792,-6.7758,-6.9562,-7.0271,-6.998,-6.8015,0.0,0.0,0.0,-5.993,-5.9252,-5.9709,0.0,0.0,0.0,0.0,0.0,0.0,0.0,0.0,0.0,0.0,0.0,0.0,-7.6937,-7.6533,-7.613,-7.5322,-7.4661,-7.4294,-7.3523,-7.2899,-7.2496,-7.2092,-7.2092,-7.2496,-7.0477,-6.9706,-7.0073,-6.765,-6.6191,-6.5607,-6.4818,-6.3339,-6.1402,-6.1402,-6.0478,-5.902,-5.9223,-5.9497,-5.9776,-5.976,-5.987,-6.0044,-5.9559,-5.923,-5.9084,0.0,0.0,0.0,0.0,0.0,0.0,0.0,-5.3356,-5.4264,-5.6421,-5.7039,-5.7197,-5.7004,-5.6087,-5.5527,0.0,0.0,0.0,0.0,0.0,0.0,0.0,0.0,0.0,0.0,0.0,0.0,0.0,0.0,0.0,0.0,0.0,0.0,0.0,0.0,0.0,0.0,0.0,0.0,0.0,0.0,0.0,0.0,0.0,0.0,0.0,0.0,0.0,0.0,0.0,-5.976,-5.9842,-6.012,-5.948,-5.8994,-6.0634,-6.1549,-6.248,-6.4553,-6.6532,-6.8378,-6.9738,-7.0586,-7.0181,-6.665,-6.5199,0.0,0.0,-5.8459,-5.8493,-5.932,0.0,-6.1803,0.0,0.0,0.0,0.0,0.0,0.0,0.0,0.0,0.0,0.0,-7.6754,0.0,-7.613,-7.4588,-7.3597,-7.345,-7.2826,-7.2496,-7.2496,-7.1908,-7.1872,-7.2496,-7.0293,-6.9486,-7.0073,-6.7467,-6.5925,-6.5264,-6.4273,-6.2989,-6.1594,-6.1594,-6.1066,-6.0145,-6.0082,-6.0186,-6.0303,-5.975,-5.9592,-5.9696,-5.9475,-5.923,-5.9084,0.0,0.0,0.0,0.0,0.0,0.0,0.0,-5.3857,-5.5316,-5.7946,-5.8249,-5.8515,-5.9379,-5.8568,-5.7341,0.0,0.0,0.0,0.0,0.0,0.0,0.0,0.0,0.0,0.0,0.0,0.0,0.0,0.0,0.0,0.0,0.0,0.0,0.0,0.0,0.0,0.0,0.0,0.0,0.0,0.0,0.0,0.0,0.0,0.0,0.0,0.0,0.0,0.0,0.0,0.0,-6.1142,-6.1163,-6.0964,-6.0665,-6.0371,0.0,0.0,-6.5757,-6.8257,-7.0793,-7.1716,-7.2509,-7.1923,-6.7663,0.0,0.0,-5.9553,-5.8917,-5.9331,-6.0139,-6.0378,-6.1484,0.0,0.0,-6.4988,0.0,0.0,0.0,0.0,0.0,0.0,0.0,-7.7237,-7.69,-7.6166,-7.4588,-7.3377,-7.2642,-7.2532,-7.2496,-7.2496,-7.2422,-7.2422,-7.2496,-7.0844,-7.0036,-7.0073,-6.6916,-6.5375,-6.5264,-6.3649,-6.2438,-6.1594,-6.1594,-6.1399,-6.1048,-6.0698,-6.0821,-6.1186,-6.0379,-6.0311,-6.0585,-5.969,-5.9625,-5.9977,0.0,0.0,0.0,0.0,0.0,0.0,-5.3664,-5.428,-5.5663,-5.885,-5.9117,-5.9198,-5.974,-5.9801,-5.8896,0.0,0.0,0.0,0.0,0.0,0.0,0.0,0.0,0.0,0.0,0.0,0.0,-5.6626,0.0,0.0,0.0,0.0,0.0,0.0,0.0,0.0,0.0,0.0,0.0,0.0,0.0,0.0,0.0,0.0,0.0,0.0,0.0,0.0,0.0,0.0,0.0,0.0,-6.0657,-6.0667,0.0,0.0,-6.3105,-6.4671,-6.7019,-6.9627,-7.1948,-7.2753,-7.2401,-7.0933,-6.7391,0.0,-6.2433,-5.8998,-5.8782,-5.9441,-6.0272,-6.042,-6.1131,-6.3301,-6.2658,0.0,0.0,0.0,0.0,0.0,0.0,0.0,0.0,0.0,-7.6056,-7.4735,-7.4037,-7.334,-7.2532,-7.2496,-7.2496,-7.2496,-7.2496,-7.2275,-7.1798,-7.066,-6.9853,-6.9339,-6.6623,-6.5301,-6.5264,-6.3551,-6.2658,-6.2353,-6.2664,-6.264,-6.2333,-6.194,-6.1804,-6.167,-6.0243,-5.9962,-6.0311,-5.9625,-5.9712,-6.0103,0.0,0.0,0.0,0.0,0.0,-5.1558,-5.4126,-5.4703,-5.6018,-5.9292,-5.9798,-5.9937,-6.0065,-6.053,-5.9973,-5.7907,0.0,0.0,0.0,0.0,0.0,0.0,0.0,0.0,0.0,0.0,-5.5955,-5.6882,-5.7858,-5.8397,0.0,0.0,0.0,0.0,0.0,0.0,0.0,0.0,0.0,0.0,0.0,0.0,0.0,0.0,0.0,0.0,0.0,0.0,0.0,0.0,0.0,0.0,0.0,0.0,0.0,0.0,-6.3213,-6.4508,-6.7774,-7.0455,-7.2564,-7.3656,-7.2614,-7.0591,0.0,0.0,-6.1737,-5.8934,-5.8988,-5.9685,-5.9979,-6.0419,-6.1117,-6.2254,0.0,-6.2404,0.0,0.0,0.0,0.0,0.0,-7.3597,-7.6019,-7.6387,-7.5799,-7.4184,-7.4037,-7.3597,-7.2569,-7.2496,-7.2496,-7.2496,-7.2275,-7.1872,-7.1293,-7.0257,-6.9449,-6.8862,-6.6696,-6.5521,-6.5264,-6.3833,-6.3062,-6.2805,-6.3191,-6.3409,-6.3445,-6.2665,-6.238,-6.2259,-6.021,-5.9792,-6.0217,-5.9609,-5.9792,-6.0311,0.0,0.0,0.0,0.0,0.0,0.0,-5.4126,-5.5164,-5.6588,-5.9165,-6.0242,-6.0781,-6.0793,-6.0781,-6.0435,-5.955,0.0,0.0,0.0,0.0,0.0,0.0,0.0,0.0,0.0,0.0,-5.8072,-5.8072,-5.9414,-5.9645,-5.8806,-5.928,-5.905,0.0,0.0,0.0,0.0,0.0,0.0,0.0,0.0,0.0,0.0,0.0,0.0,0.0,0.0,0.0,0.0,0.0,0.0,0.0,0.0,0.0,0.0,0.0,-6.234,-6.4518,-6.7883,-7.0514,-7.273,-7.4452,-7.367,-7.1615,0.0,0.0,-6.2108,-5.9698,-5.9832,-6.0162,-5.9368,-6.0529,-6.1594,-6.1594,-6.0939,0.0,0.0,0.0,0.0,0.0,0.0,-7.1101,-7.3487,-7.5909,-7.6613,-7.5028,-7.4918,-7.4184,-7.2606,-7.2496,-7.2496,-7.2496,-7.1725,-7.1293,-7.1293,-6.9706,-6.8898,-6.8898,-6.7247,-6.6072,-6.5264,-6.4457,-6.3613,-6.278,-6.2805,-6.3431,-6.4257,-6.2522,-6.2389,-6.3015,-6.0437,-5.9962,-6.0659,-5.9722,-5.9977,-6.0781,0.0,0.0,0.0,0.0,0.0,0.0,0.0,-5.3818,-5.4895,-5.7473,-5.855,-5.9319,-5.9858,-6.0435,-6.0704,-6.0396,0.0,0.0,0.0,0.0,0.0,0.0,0.0,0.0,0.0,0.0,-5.7679,-5.7679,-5.9012,-5.964,-5.9698,-6.0175,-5.9935,-5.9127,0.0,0.0,0.0,0.0,0.0,0.0,0.0,0.0,0.0,0.0,0.0,0.0,0.0,0.0,0.0,0.0,0.0,0.0,0.0,0.0,0.0,0.0,0.0,0.0,-6.6491,-6.8572,-7.0237,-7.1338,-7.0,-6.7981,-6.6439,0.0,-6.0786,-5.9478,-5.9404,-5.9478,-5.9258,-5.9625,-6.0309,-6.141,-6.0945,0.0,0.0,0.0,0.0,0.0,-7.2202,-7.4735,0.0,-7.6833,-7.6833,-7.5799,-7.5726,-7.5028,-7.3413,-7.3303,-7.3083,-7.2532,-7.1725,-7.1064,-7.0477,-6.9449,-6.8605,-6.8054,-6.6439,-6.5558,-6.5264,-6.387,-6.3062,-6.2855,-6.3571,-6.4079,-6.4313,-6.3238,-6.3,-6.3078,-6.0781,-6.0269,-6.0734,-6.0118,-6.0283,-6.0757,0.0,0.0,0.0,0.0,0.0,0.0,0.0,-5.3933,-5.4818,-5.6753,-5.7742,-5.8627,-5.9396,-5.9973,-6.0435,-6.0781,0.0,0.0,0.0,0.0,0.0,0.0,0.0,0.0,-5.6618,-5.7319,-5.7846,-5.8122,-5.9118,-5.9845,-6.0333,-6.1114,-6.0968,-5.9973,-5.9973,0.0,0.0,0.0,0.0,0.0,0.0,0.0,-6.1243,0.0,0.0,0.0,0.0,0.0,0.0,0.0,0.0,0.0,0.0,0.0,0.0,0.0,0.0,0.0,0.0,-6.721,-6.8715,-6.9816,-6.8274,0.0,0.0,0.0,-6.0162,-5.9368,-5.9184,-5.9111,-5.8804,-5.9024,-5.9515,-6.0529,-6.0529,0.0,0.0,0.0,0.0,0.0,0.0,0.0,-7.5909,-7.676,-7.6974,-7.6166,-7.6093,-7.5395,-7.378,-7.3707,-7.3193,-7.2092,-7.1284,-7.0624,-7.011,-6.9009,-6.8054,-6.7247,-6.6219,-6.5448,-6.4824,-6.3759,-6.3135,-6.283,-6.352,-6.4019,0.0,-6.3191,-6.296,-6.3091,-6.0947,-6.0378,-6.0746,-6.0283,-6.0378,-6.0757,0.0,0.0,0.0,0.0,0.0,0.0,0.0,0.0,-5.5895,-5.6714,-5.7665,-5.8588,-5.9319,-5.9511,-5.9935,-6.0742,0.0,0.0,0.0,0.0,0.0,0.0,0.0,0.0,-5.8072,-5.8058,-5.841,-5.9111,-5.9573,-6.0073,-6.0654,-6.1907,-6.1931,-6.0896,-6.0896,-6.0396,0.0,0.0,0.0,0.0,-6.1127,-6.1293,0.0,0.0,0.0,0.0,0.0,0.0,0.0,0.0,0.0,0.0,0.0,0.0,0.0,0.0,0.0,0.0,0.0,0.0,0.0,0.0,0.0,0.0,0.0,0.0,0.0,0.0,0.0,-5.8914,-5.8143,-5.8621,-5.9111,-5.9184,0.0,0.0,0.0,-6.4383,0.0,0.0,-7.1908,-7.378,-7.378,-7.5946,-7.698,-7.624,-7.613,-7.5432,-7.3854,-7.3707,-7.2973,-7.1431,-7.055,-7.0073,-7.0,-6.8458,-6.7283,-6.6512,-6.6439,-6.5595,-6.409,-6.4016,-6.3576,-6.2805,-6.2904,-6.3498,-6.4275,-6.2671,-6.2512,-6.3091,-6.1051,-6.0481,-6.0746,-6.0283,-6.0378,-6.0781,0.0,0.0,0.0,0.0,0.0,0.0,0.0,0.0,0.0,0.0,-5.6973,-5.8357,-5.855,-5.9742,-6.0589,0.0,0.0,0.0,0.0,0.0,0.0,0.0,0.0,0.0,-5.811,-5.8405,-5.8465,-5.829,-5.8741,-5.955,-6.0707,-6.1368,-6.1729,-6.1793,-6.1793,-6.132,0.0,0.0,0.0,0.0,-6.0858,-6.0935,0.0,0.0,0.0,0.0,-6.1562,-6.1358,0.0,0.0,0.0,0.0,0.0,0.0,0.0,0.0,-5.9538,0.0,-6.1337,0.0,-6.4053,-6.442,-6.409,0.0,0.0,0.0,0.0,0.0,0.0,0.0,0.0,0.0,0.0,0.0,0.0,0.0,-6.2487,0.0,0.0,-7.1358,-7.3413,-7.4625,-7.4625,-7.6209,-7.72,-7.7017,-7.646,-7.5689,-7.4661,-7.4037,-7.323,-7.2275,-7.0844,-6.9816,-6.9192,-6.8201,-6.7283,-6.6476,-6.5888,-6.5081,-6.4053,-6.3429,-6.2989,-6.2855,-6.3659,-6.4158,-6.4369,-6.4054,-6.3706,-6.3192,-6.2093,-6.1298,-6.0746,-6.0283,-6.0378,-6.0746,0.0,0.0,0.0,0.0,0.0,0.0,0.0,0.0,0.0,0.0,0.0,0.0,0.0,0.0,0.0,0.0,0.0,0.0,0.0,0.0,0.0,0.0,0.0,-5.8359,-5.811,-5.8286,-5.8423,-5.8547,-5.8792,-5.9578,-6.0904,-6.1754,-6.2026,-6.1734,-6.1567,-6.1243,-6.0781,-6.0781,-6.1012,-6.1358,-6.0973,0.0,0.0,0.0,0.0,0.0,-6.2204,-6.1858,0.0,-6.2243,-6.2089,-6.131,0.0,0.0,0.0,0.0,-5.9242,-5.9869,-5.9869,-6.1276,-6.278,-6.278,-6.2511,-6.2034,0.0,0.0,0.0,0.0,0.0,0.0,0.0,0.0,0.0,0.0,-5.9566,0.0,0.0,0.0,-6.8972,-7.2129,-7.3266,-7.4404,-7.5842,-7.646,-7.6754,-7.6754,-7.635,-7.5579,-7.4404,-7.3927,-7.2973,-7.1431,-7.055,-6.9889,-6.9449,-6.8274,-6.71,-6.5925,-6.5521,-6.4677,-6.3503,-6.3025,-6.278,-6.2855,-6.368,-6.4158,-6.4407,-6.4283,-6.3859,-6.3243,-6.2397,-6.1562,-6.0769,-6.0508,-6.0456,-6.0482,0.0,0.0,0.0,0.0,0.0,0.0,0.0,0.0,0.0,0.0,0.0,0.0,0.0,0.0,0.0,0.0,0.0,0.0,0.0,0.0,0.0,0.0,0.0,-5.8298,-5.8298,-5.8111,-5.8327,-5.9001,-5.9148,-5.9876,-6.1151,-6.2484,-6.2576,-6.1588,-6.1301,-6.105,-6.0781,-6.0781,-6.1243,-6.1831,-6.1089,0.0,0.0,0.0,0.0,0.0,0.0,0.0,0.0,-6.2589,-6.2666,-6.2002,-6.1392,0.0,0.0,0.0,0.0,0.0,-5.9331,-6.1056,-6.2743,-6.2487,-6.1924,-6.119,0.0,0.0,0.0,0.0,0.0,0.0,0.0,-5.8068,0.0,0.0,0.0,0.0,-6.6213,-6.688,-6.8348,-7.1908,-7.2532,-7.3707,-7.6283,-7.6166,-7.5909,-7.5909,-7.5799,-7.5139,-7.378,-7.345,-7.2459,-7.0513,-7.011,-6.9963,-7.011,-6.8385,-6.6769,-6.5301,-6.5191,-6.431,-6.278,-6.278,-6.278,-6.283,-6.3305,-6.377,-6.4199,-6.3883,-6.3469,-6.3051,-6.2358,-6.1562,-6.0781,-6.0734,-6.0456,-6.0161,0.0,0.0,0.0,0.0,0.0,0.0,0.0,0.0,0.0,0.0,0.0,0.0,0.0,0.0,0.0,0.0,0.0,0.0,0.0,0.0,0.0,-6.0589,-5.9711,-5.9201,-5.9201,-5.8408,-5.807,-5.818,-5.8877,-5.9899,-6.1193,-6.2503,-6.3063,-6.3002,-6.2949,-6.2127,-6.0781,-6.0781,-6.0858,-6.0973,-6.0858,0.0,0.0,0.0,0.0,0.0,0.0,0.0,0.0,-6.1935,-6.2216,-6.1887,-6.069,0.0,0.0,0.0,0.0,0.0,-6.0052,-6.1484,-6.245,-6.1117,-6.0676,-6.0382,0.0,0.0,0.0,0.0,0.0,0.0,0.0,-5.8454,-5.8044,0.0,0.0,-6.3057,0.0,0.0,-7.0036,-7.1358,-7.2679,-7.345,-7.3266,-7.4368,-7.5102,-7.5102,-7.4441,-7.3964,-7.3707,-7.2422,-7.1835,-7.2129,-7.0146,-6.9412,-7.0073,-6.7834,-6.6219,-6.5301,-6.4604,-6.3759,-6.278,-6.278,-6.278,-6.2818,-6.3082,-6.322,-6.3293,-6.337,-6.2963,-6.2293,-6.2139,-6.1562,-6.0757,-6.0351,-6.0161,-6.0118,0.0,0.0,0.0,0.0,0.0,0.0,0.0,0.0,0.0,0.0,0.0,0.0,0.0,0.0,0.0,0.0,0.0,0.0,0.0,0.0,0.0,-6.0781,-5.9901,-5.9389,-5.9389,-5.8482,-5.8217,-5.8657,-5.9465,-6.0599,-6.2082,-6.2721,-6.3234,-6.3518,-6.2426,-6.1512,-6.0781,-6.0781,-6.105,-6.1512,0.0,0.0,0.0,0.0,0.0,0.0,0.0,0.0,0.0,0.0,-6.2743,-6.2565,-6.1493,0.0,0.0,0.0,0.0,0.0,-5.8988,-5.9648,-6.0126,-5.9832,-6.075,-6.1374,0.0,0.0,0.0,0.0,0.0,0.0,0.0,0.0,-5.988,-6.1651,0.0,-6.4108,-6.7257,-6.7944,-6.8935,-7.1064,-7.1578,-7.2275,-7.367,-7.4074,-7.4258,-7.4258,-7.3891,-7.3303,-7.2459,-7.2129,-7.1541,-7.0587,-6.9889,-6.9082,-6.8164,-6.6623,-6.5668,-6.5301,-6.4494,-6.3649,-6.278,-6.278,-6.278,-6.2818,-6.3014,-6.3106,-6.3104,-6.325,-6.2682,-6.1734,-6.199,-6.1415,-6.0351,-5.9901,-5.9885,-6.0044,0.0,0.0,0.0,0.0,0.0,0.0,0.0,0.0,0.0,0.0,0.0,0.0,0.0,0.0,0.0,0.0,0.0,0.0,0.0,0.0,-6.0781,-6.0781,-5.9991,-5.9509,-5.9389,-5.8667,-5.8694,-5.9478,-6.0493,-6.1851,-6.3567,-6.3576,-6.3702,-6.3733,-6.2119,-6.1166,-6.0819,-6.1012,-6.1473,-6.2139,0.0,0.0,0.0,0.0,0.0,0.0,0.0,0.0,0.0,0.0,0.0,0.0,0.0,0.0,0.0,-5.9859,-5.8753,-5.8033,-5.8217,-5.8437,-5.8694,-5.9355,0.0,0.0,0.0,0.0,0.0,0.0,0.0,0.0,0.0,-5.9848,0.0,-6.4162,-6.4339,-6.5071,-6.7871,-6.7871,-6.8605,-7.1284,-7.1027,-7.1615,-7.4111,-7.378,-7.3413,-7.3413,-7.3413,-7.2899,-7.1651,-7.1798,-7.1174,-6.9522,-6.9522,-6.8641,-6.6806,-6.5815,-6.5228,-6.5007,-6.42,-6.3466,-6.278,-6.278,-6.267,-6.2524,-6.2591,-6.2503,-6.2354,-6.2368,-6.1812,-6.0967,-6.1333,-6.0856,-5.9885,-5.9526,-5.9543,-5.9712,0.0,0.0,0.0,0.0,0.0,0.0,0.0,0.0,0.0,0.0,0.0,0.0,0.0,0.0,0.0,0.0,0.0,0.0,0.0,0.0,-6.0781,-6.0781,-6.0324,-5.9855,-5.9407,-5.9223,-5.9515,-6.0309,-6.1887,-6.3689,-6.576,-6.5506,-6.4855,-6.3771,-6.3295,-6.2243,-6.0858,-6.1678,-6.2062,-6.2178,-6.2897,0.0,0.0,0.0,0.0,0.0,0.0,0.0,0.0,0.0,0.0,0.0,0.0,0.0,-6.0594,-5.9671,-5.8753,-5.8143,-5.8891,-5.9685,-6.0236,-6.0309,-5.9318,0.0,-6.0089,-5.9795,0.0,-6.0089,0.0,0.0,0.0,-5.979,-6.0175,-6.2592,-6.3602,-6.5464,-6.9366,-7.0513,-7.1321,-7.2312,-7.2349,-7.2422,-7.2642,-7.2606,-7.2606,-7.2606,-7.2606,-7.2532,-7.2422,-7.1064,-7.055,-7.1109,-6.9009,-6.7787,-6.7614,-6.6072,-6.4934,-6.4163,-6.3319,-6.2853,-6.278,-6.278,-6.2401,-6.1679,-6.1381,-6.082,-6.0099,-5.9811,-5.9626,-5.9571,-5.9588,-5.9551,-5.9441,-5.9407,-5.9139,-5.8855,0.0,0.0,0.0,0.0,0.0,0.0,0.0,0.0,0.0,0.0,0.0,0.0,0.0,0.0,0.0,0.0,0.0,0.0,0.0,-6.0319,-6.0781,-6.0781,-6.0351,-6.0044,-5.9839,-5.9679,-6.0129,-6.1153,-6.3796,-6.554,-6.6272,-6.5245,-6.4238,-6.3245,-6.2205,-6.1704,-6.1639,-6.1947,-6.2716,-6.3666,-6.3974,-6.3589,0.0,0.0,0.0,0.0,0.0,0.0,0.0,0.0,-6.1639,-6.2024,-6.1447,-6.1,-6.0519,-5.9671,-5.8753,-5.807,-5.8364,-5.9061,-5.9625,-5.9625,-5.9208,0.0,0.0,-6.0529,-6.0052,-6.0346,-5.9735,0.0,0.0,0.0,-6.1357,-6.3294,-6.4725,-6.6464,-6.9018,-7.0036,-7.1027,-7.2349,-7.1615,-7.1211,-7.1725,-7.1762,-7.1541,-7.1064,-7.1468,-7.1321,-7.033,-7.0146,-6.9779,-6.9082,-6.8641,-6.7724,-6.6219,-6.5595,-6.464,-6.3282,-6.2989,-6.278,-6.278,-6.278,-6.2365,-6.1606,-6.1263,-6.0646,-5.9889,-5.9514,-5.9212,-5.8971,-5.8971,-5.9139,-5.9389,-5.9389,-5.9084,-5.8753,0.0,0.0,0.0,0.0,0.0,0.0,0.0,0.0,0.0,0.0,0.0,0.0,0.0,0.0,0.0,0.0,0.0,0.0,-5.9511,-6.0319,-6.0781,-6.0781,-6.0495,-6.0269,-6.0103,-6.0536,-6.1222,-6.2214,-6.5331,-6.6623,-6.6098,-6.4942,-6.4044,-6.337,-6.1969,-6.1914,-6.2858,-6.2589,-6.3128,-6.4205,-6.4474,-6.4089,0.0,0.0,0.0,0.0,0.0,0.0,0.0,0.0,-6.1396,-6.1639,-6.132,-6.0895,-6.035,-5.963,-5.8835,-5.8209,-5.8042,-5.84,-5.8841,0.0,0.0,0.0,-6.086,-6.0786,-6.0456,-6.075,-6.0162,-5.9661,-5.9979,0.0,0.0,-6.3025,-6.4677,-6.6402,-6.8274,-6.9192,-7.022,-7.1578,-7.077,-7.033,-7.0881,-7.0917,-7.0697,-7.0146,-7.0624,-7.044,-6.9339,-6.9559,-6.9229,-6.8091,-6.8385,-6.7467,-6.5338,-6.5301,-6.4457,-6.278,-6.278,-6.2695,-6.2438,-6.2695,-6.2071,-6.0847,-6.0876,-6.0277,-5.9282,-5.9039,-5.8756,-5.8482,-5.8482,-5.8693,-5.9009,-5.9284,-5.9084,-5.8696,0.0,0.0,0.0,0.0,0.0,0.0,0.0,0.0,0.0,0.0,0.0,0.0,0.0,0.0,0.0,0.0,0.0,0.0,-5.9473,-6.0319,-6.0781,-6.0781,-6.0781,-6.0597,-6.0118,-6.1766,-6.2889,-6.3505,-6.6307,-6.6843,-6.5264,-6.4961,-6.4636,-6.4332,-6.3139,-6.336,-6.4512,-6.3654,-6.3308,-6.3385,-6.4231,-6.4077,-6.3308,0.0,0.0,0.0,0.0,0.0,0.0,0.0,-6.1524,-6.0935,-6.1831,-6.1172,-5.9991,-5.9526,-5.9047,-5.8591,-5.8119,-5.7997,-5.7997,0.0,0.0,0.0,-6.0015,-6.0382,-6.0603,-6.141,-6.0933,-6.0162,-5.9331,-5.9184,-5.9698,-6.13,-6.2989,-6.4897,-6.732,-6.8321,-6.9165,-6.9972,-7.0073,-7.0073,-7.0073,-7.0073,-7.0073,-7.0073,-7.0073,-7.0073,-7.0073,-6.9339,-6.8898,-6.8898,-6.8091,-6.6916,-6.5301,-6.5301,-6.4457,-6.278,-6.278,-6.2401,-6.163,-6.2438,-6.1459,-5.9258,-6.0052,-5.9501,-5.7997,-5.7997,-5.7997,-5.7997,-5.7997,-5.7997,-5.8119,-5.9065,-5.9084,-5.8756,0.0,0.0,0.0,0.0,0.0,0.0,0.0,0.0,0.0,0.0,0.0,0.0,0.0,0.0,0.0,0.0,0.0,0.0,-5.8704,-6.0012,-6.0512,-5.9896,-6.0473,-6.1015,-6.1492,-6.3019,-6.3991,-6.4406,-6.5496,-6.5154,-6.3539,-6.3776,-6.3439,-6.2652,-6.3199,-6.3352,-6.3193,-6.2925,-6.3155,-6.3729,-6.3996,-6.4151,-6.4166,0.0,0.0,0.0,0.0,0.0,0.0,0.0,0.0,0.0,-6.1089,-6.0674,-5.9991,-5.9526,-5.9047,-5.8479,-5.742,-5.7556,0.0,-5.7299,0.0,0.0,0.0,-5.9551,0.0,0.0,-5.9722,-5.9318,-5.851,-5.8364,-5.8694,-5.9758,-6.0828,-6.2332,-6.4698,-6.5238,-6.6088,-6.7984,-6.777,-6.7701,-6.8312,-6.8885,-6.9009,-6.8421,-6.8935,-6.9009,-6.8421,-6.8164,-6.7797,-6.7247,-6.699,-6.6072,-6.4457,-6.4457,-6.3906,-6.278,-6.278,-6.2695,-6.2438,-6.2108,-6.1263,-6.0052,-5.9698,-5.8951,-5.7997,-5.7997,-5.7997,-5.7997,-5.7997,-5.7997,-5.8051,-5.8693,-5.8815,-5.8733,0.0,0.0,0.0,0.0,0.0,0.0,0.0,0.0,0.0,0.0,-6.1331,0.0,0.0,0.0,0.0,0.0,0.0,0.0,0.0,-6.0242,-6.055,-6.005,-6.0512,-6.1358,-6.2551,-6.341,-6.3914,-6.4121,-6.4609,-6.3796,-6.1887,-6.3134,-6.3341,-6.2709,-6.437,-6.4648,-6.379,-6.3415,-6.3302,-6.3375,-6.3375,-6.3671,-6.4051,0.0,0.0,0.0,0.0,0.0,0.0,0.0,0.0,0.0,-6.0781,-6.061,-6.0297,-5.9823,-5.9111,-5.8351,-5.773,-5.7553,0.0,-5.7336,-5.8253,-5.9184,-5.9184,0.0,0.0,0.0,-5.97,-5.9331,-5.8814,-5.834,-5.8253,-5.9074,-5.9613,-6.0636,-6.2715,-6.3,-6.3748,-6.5772,-6.5945,-6.6253,-6.7047,-6.7932,-6.8201,-6.7724,-6.8128,-6.8201,-6.7724,-6.7687,-6.732,-6.6512,-6.6512,-6.5742,-6.4127,-6.409,-6.3503,-6.2328,-6.2328,-6.2181,-6.1851,-6.1667,-6.0823,-5.9428,-5.8951,-5.8437,-5.7997,-5.7997,-5.7997,-5.7997,-5.7997,-5.7997,-5.8065,-5.8508,-5.8713,-5.8753,0.0,0.0,0.0,0.0,0.0,0.0,0.0,0.0,0.0,0.0,-6.1331,-6.0781,0.0,0.0,0.0,0.0,0.0,0.0,0.0,0.0,-6.0742,-6.0704,-6.0896,-6.1743,-6.3281,-6.3161,-6.3049,-6.2879,-6.3465,-6.2548,-6.0346,-6.2805,-6.3859,-6.3659,-6.6029,-6.6431,-6.5255,-6.4368,-6.3381,-6.2437,-6.2513,-6.2825,-6.3308,-6.3308,0.0,0.0,0.0,0.0,0.0,0.0,0.0,0.0,-6.0781,-6.0781,-6.0722,-6.0255,-5.9185,-5.8247,-5.8536,0.0,0.0,-5.7703,-5.8547,0.0,-5.9255,-6.0174,-6.1007,-6.0927,0.0,-5.9926,-5.981,-5.885,-5.8286,-5.8988,-5.91,-5.9602,-6.1063,-6.1328,-6.1908,-6.3309,-6.4322,-6.5298,-6.6097,-6.7036,-6.7614,-6.7687,-6.7687,-6.7687,-6.7687,-6.7614,-6.721,-6.6402,-6.6329,-6.5521,-6.398,-6.3906,-6.3099,-6.1594,-6.152,-6.108,-6.0309,-6.1043,-6.0126,-5.7997,-5.7997,-5.7997,-5.7997,-5.7997,-5.7997,-5.7997,-5.7997,-5.7997,-5.8065,-5.8482,-5.8673,-5.8756,0.0,0.0,0.0,0.0,0.0,0.0,0.0,0.0,0.0,0.0,0.0,0.0,0.0,0.0,0.0,0.0,0.0,0.0,0.0,0.0,-6.0473,-5.9819,-6.1704,-6.2935,-6.3269,-6.3193,-6.2464,-6.1236,-6.1204,-6.0603,-5.9515,-6.1961,-6.2925,-6.278,-6.5173,-6.5076,-6.3023,-6.2218,-6.1562,-6.1166,-6.1809,-6.2552,-6.3308,-6.3308,-6.282,0.0,0.0,0.0,0.0,0.0,0.0,0.0,-6.0781,-6.0781,-6.0722,-6.0255,-5.9185,-5.8134,0.0,-5.7297,0.0,0.0,-5.812,-5.9324,-5.9662,-6.0257,-6.0417,-5.9427,-5.9869,-6.0135,-5.9146,-5.8723,-5.8513,-5.8286,-5.8275,-5.8385,-5.8743,-5.9284,-5.9729,-6.0001,-6.194,-6.3547,-6.4365,-6.5815,-6.7026,-6.7677,-6.7687,-6.7687,-6.7687,-6.71,-6.6402,-6.5595,-6.4934,-6.4127,-6.3099,-6.2438,-6.1961,-6.1594,-6.097,-6.0236,-5.9441,-5.9625,-5.9098,-5.7997,-5.7997,-5.7997,-5.7997,-5.7997,-5.7997,-5.7997,-5.7997,-5.7997,-5.802,-5.8119,-5.8375,-5.8696,0.0,0.0,0.0,0.0,0.0,0.0,0.0,0.0,0.0,0.0,0.0,0.0,0.0,0.0,0.0,0.0,0.0,0.0,0.0,0.0,0.0,-6.0742,-6.2012,-6.2897,-6.3269,-6.2395,-6.1538,-6.0707,-5.9743,-5.9061,-5.8694,-6.1117,-6.2131,-6.2128,-6.4546,-6.4311,-6.198,-6.1573,-6.1351,-6.1291,-6.1311,-6.2109,-6.3281,-6.2858,-6.2204,-6.1396,-6.0973,0.0,0.0,0.0,0.0,0.0,0.0,0.0,-6.0757,-6.0508,-5.9507,0.0,0.0,0.0,0.0,-5.8767,0.0,-5.959,-5.959,-5.9809,-5.9829,-5.9178,-5.9729,-6.0089,-5.9215,-5.8855,-5.8528,-5.8051,-5.8007,-5.7985,-5.7993,-5.8028,-5.83,-5.8973,-6.0217,-6.1621,-6.3129,-6.4873,-6.6207,-6.7016,-6.746,-6.7504,-6.7136,-6.6733,-6.5962,-6.4751,-6.431,-6.3503,-6.2254,-6.1814,-6.119,-6.0456,-6.0052,-5.9391,-5.8621,-5.8621,-5.84,-5.7997,-5.7997,-5.7997,-5.7997,-5.7997,-5.7997,-5.7997,-5.7997,-5.7997,-5.7997,-5.7997,-5.8164,-5.8439,0.0,0.0,0.0,0.0,0.0,0.0,0.0,0.0,0.0,0.0,0.0,0.0,0.0,0.0,0.0,0.0,0.0,0.0,0.0,0.0,0.0,0.0,-6.2101,-6.2474,-6.3269,-6.169,-6.0794,-6.0707,-5.8958,-5.8148,-5.8253,-6.0529,-6.1667,-6.1887,-6.3943,-6.3649,-6.1557,-6.13,-6.1277,-6.1425,-6.0896,-6.1576,-6.282,-6.2293,-6.1562,-6.0781,-6.0781,0.0,-6.0781,-6.0781,0.0,0.0,0.0,0.0,-6.0781,-6.0781,0.0,0.0,0.0,0.0,0.0,0.0,0.0,0.0,-5.9678,-5.9604,-5.9613,-5.963,-5.9946,-6.0089,-5.9592,-5.9121,-5.8673,-5.8209,-5.8029,-5.7946,-5.7831,-5.7311,-5.7279,-5.8382,-5.8799,-5.9802,-6.1814,-6.3669,-6.516,-6.6115,-6.698,-6.7185,-6.6549,-6.6366,-6.5632,-6.4127,-6.3796,-6.2989,-6.1594,-6.13,-6.0529,-5.9184,-5.9038,-5.8657,-5.7997,-5.7997,-5.7997,-5.7997,-5.7997,-5.7997,-5.7997,-5.7997,-5.7997,-5.7997,-5.7997,-5.7997,-5.7997,-5.7997,-5.7997,-5.8119,0.0,0.0,0.0,0.0,0.0,0.0,0.0,0.0,0.0,0.0,-6.0896,0.0,0.0,0.0,0.0,0.0,0.0,0.0,0.0,0.0,0.0,-6.2062,-6.2101,-6.2474,-6.3269,-6.1979,-6.1093,-6.0707,-5.9305,-5.8745,-5.9074,-6.0786,-6.1961,-6.2658,-6.2989,-6.2548,-6.152,-6.0126,-5.9584,-5.9784,-6.0443,-6.0875,-6.1204,-6.187,-6.1562,-6.0781,-6.0781,0.0,-6.0781,-6.0781,-6.0781,0.0,0.0,0.0,-6.0781,-6.0781,0.0,0.0,0.0,0.0,0.0,0.0,0.0,0.0,0.0,0.0,-6.0463,0.0,-6.0647,-6.0546,-6.0103,-5.9609,-5.9139,-5.8693,-5.826,-5.7786,-5.7134,-5.6954,-5.671,-5.6229,-5.7311,-5.8555,-5.9559,-6.1709,-6.3663,-6.5213,-6.6089,-6.6554,-6.6486,-6.5852,-6.5044,-6.4127,-6.2695,-6.1814,-6.1594,-6.0236,-5.9404,-5.9184,-5.851,-5.8107,-5.7997,-5.7997,-5.7997,-5.7997,-5.7997,-5.7997,-5.7997,-5.7997,-5.7997,-5.7997,-5.7997,-5.7997,-5.7997,-5.7997,-5.7997,-5.8051,0.0,0.0,0.0,0.0,0.0,0.0,0.0,0.0,0.0,0.0,0.0,-6.0928,0.0,0.0,0.0,0.0,0.0,0.0,0.0,0.0,0.0,-6.2062,-6.1639,-6.1781,-6.2589,-6.1346,-6.0456,-5.9973,-5.9139,-5.935,-6.0566,-6.1263,-6.1777,-6.2144,-6.2144,-6.1667,0.0,-5.9208,-5.8989,-5.9759,-5.9904,-6.0431,-6.1146,0.0,0.0,0.0,0.0,0.0,-6.0781,-6.0781,-6.0781,-6.0781,-6.0781,0.0,0.0,0.0,0.0,0.0,0.0,0.0,0.0,0.0,0.0,0.0,0.0,0.0,-6.0013,-6.036,-6.0622,-6.0647,-6.0175,-5.9931,-5.9625,-5.9158,-5.8303,-5.7587,-5.7287,-5.6645,-5.6067,-5.5688,-5.6283,-5.7182,-5.8357,-5.987,-6.1403,-6.3026,-6.4302,-6.4882,-6.443,-6.4542,-6.4053,-6.2732,-6.1961,-6.1153,-6.0272,-5.9551,-5.8964,-5.851,-5.818,-5.7997,-5.7997,-5.7997,-5.7997,-5.7997,-5.7997,-5.7997,-5.7997,-5.7997,-5.7997,-5.7997,-5.7997,-5.7997,-5.7997,-5.7997,-5.7997,-5.8088,0.0,0.0,0.0,0.0,0.0,0.0,0.0,0.0,0.0,0.0,0.0,0.0,0.0,0.0,0.0,0.0,0.0,0.0,0.0,0.0,0.0,-6.1755,-6.1127,-6.1089,-6.1755,-6.0584,-5.9672,-5.9105,-5.8728,-5.9478,-6.13,-6.1704,-6.2144,-6.2511,-6.2328,-6.1777,0.0,-5.9281,-5.9353,-6.0489,-5.9366,-5.9652,0.0,0.0,0.0,0.0,0.0,-6.0376,-6.0512,-6.0742,-6.0781,-6.0781,-6.0781,-6.0666,0.0,0.0,0.0,0.0,0.0,0.0,0.0,0.0,0.0,0.0,0.0,0.0,-6.0031,0.0,-6.0687,-6.0671,-6.0338,-6.0175,-5.99,-5.9344,-5.8349,-5.7565,-5.7243,-5.6249,-5.5563,-5.5612,-5.5504,-5.5981,-5.7496,-5.8359,-5.9529,-6.1086,-6.275,-6.3415,-6.2831,-6.3617,-6.3319,-6.163,-6.141,-6.0639,-5.9184,-5.9001,-5.8584,-5.7997,-5.7997,-5.7997,-5.7997,-5.7997,-5.7997,-5.7997,-5.7997,-5.7997,-5.7997,-5.7997,-5.7997,-5.7997,-5.7997,-5.7997,-5.7997,-5.7997,-5.7997,-5.8065,0.0,0.0,0.0,0.0,0.0,0.0,0.0,0.0,0.0,0.0,0.0,0.0,-6.0074,-6.0132,-5.9966,-5.9527,0.0,0.0,0.0,0.0,0.0,-6.0858,-6.0819,0.0,-6.0858,-6.0,-5.91,-5.8237,-5.8185,-5.8929,-6.0493,-6.2034,-6.3613,-6.5081,-6.431,-6.3503,-6.2585,0.0,0.0,-6.1911,0.0,0.0,0.0,0.0,0.0,0.0,-5.8871,-5.923,-5.9704,-6.0512,-6.0781,-6.0781,-6.0781,-6.0242,0.0,0.0,0.0,0.0,0.0,0.0,0.0,0.0,0.0,0.0,0.0,0.0,-6.1329,-6.1888,-6.1358,-6.0781,-6.0757,-6.0378,-5.9836,-5.8954,-5.8413,-5.7654,-5.6423,-5.5634,-5.5272,-5.5649,-5.5021,-5.517,-5.6694,-5.7533,-5.8658,-6.0323,-6.1888,-6.275,-6.2802,-6.3617,-6.3319,-6.163,-6.086,-6.0052,-5.9184,-5.8437,-5.8033,-5.7997,-5.7997,-5.7997,-5.7997,-5.7997,-5.7997,-5.7997,-5.7997,-5.7997,-5.7997,-5.7997,-5.7997,-5.7997,-5.7997,-5.7997,-5.7997,-5.7997,-5.7997,-5.7997,0.0,0.0,0.0,0.0,0.0,0.0,0.0,0.0,0.0,0.0,0.0,0.0,0.0,-5.9916,-5.9953,-5.9527,-5.9511,0.0,0.0,0.0,0.0,-6.0781,-6.0781,-6.0781,-6.0781,-6.0473,-5.9879,-5.8991,-5.8936,-5.9454,-6.0419,-6.152,-6.2365,-6.2952,-6.3172,-6.2805,-6.1887,-5.9758,0.0,-5.9427,-5.805,0.0,0.0,0.0,-5.7331,-5.7813,-5.7426,-5.826,-5.9473,-5.9281,-5.9896,-6.0704,-6.0127,0.0,0.0,0.0,0.0,0.0,0.0,0.0,0.0,0.0,0.0,0.0,-6.217,-6.1477,-6.0661,-6.1183,-6.1012,-6.0781,-6.0781,-6.0224,-5.96,-5.9293,-5.7971,-5.6831,-5.6374,-5.5584,-5.4896,-5.4602,-5.4536,-5.471,-5.5268,-5.6031,-5.6908,-5.8011,-5.9527,-6.0627,-6.1218,-6.1568,-6.1433,-6.0835,-6.0052,-5.9245,-5.8437,-5.8143,-5.7997,-5.7997,-5.7997,-5.7997,-5.7997,-5.7997,-5.7997,-5.7997,-5.7997,-5.7997,-5.7997,-5.7997,-5.7997,-5.7997,-5.7997,-5.7997,-5.7997,-5.7997,-5.7997,-5.7997,0.0,0.0,0.0,0.0,0.0,0.0,0.0,0.0,0.0,-5.8547,0.0,0.0,0.0,0.0,-5.9774,-5.9515,-5.9511,-5.9742,-6.0319,-6.0627,-6.0781,-6.0781,-6.0781,-6.0781,-6.0781,-6.0512,-5.9917,-5.8991,-5.871,-5.9043,0.0,-6.0529,-6.1227,-6.1998,-6.1998,-6.2181,0.0,0.0,-5.9612,-5.9452,-5.7608,-5.71,-5.7392,0.0,-5.6986,-5.7534,-5.7139,-5.7875,-5.9011,-5.8473,-5.8858,-5.9473,0.0,0.0,0.0,0.0,0.0,0.0,0.0,0.0,0.0,0.0,0.0,0.0,-6.1591,0.0,-6.0136,-6.1053,-6.1012,-6.0781,-6.0781,-6.0089,-5.9396,-5.9127,-5.7925,-5.6792,-5.6049,-5.5309,-5.469,-5.4326,-5.4423,-5.4591,-5.4864,-5.5608,-5.6268,-5.6731,-5.8256,-5.9476,-6.0335,-6.0397,-6.0274,-6.0028,-5.9245,-5.8547,-5.7997,-5.7997,-5.7997,-5.7997,-5.7997,-5.7997,-5.7997,-5.7997,-5.7997,-5.7997,-5.7997,-5.7997,-5.7997,-5.7997,-5.7997,-5.7997,-5.7997,-5.7997,-5.802,-5.8186,-5.8142,-5.802,0.0,0.0,0.0,0.0,0.0,0.0,0.0,0.0,0.0,-5.9404,0.0,0.0,0.0,0.0,0.0,-5.9557,-5.9538,-5.9538,-5.955,-6.0319,-6.0781,-6.0781,0.0,0.0,-6.0781,-5.9973,-5.9127,-5.827,-5.7352,-5.7697,-5.9134,0.0,-6.0358,-6.256,-6.108,-6.1704,-6.3906,0.0,-6.267,-6.2266,-5.7519,-5.634,-5.7232,-5.6049,-5.6388,-5.7511,-5.7829,-5.8081,-5.8231,-5.8231,-5.7703,-5.7214,0.0,0.0,0.0,0.0,0.0,0.0,0.0,0.0,0.0,0.0,0.0,0.0,-6.1447,0.0,-5.9973,-6.1716,-6.1358,-6.0781,-6.0781,-6.0127,-5.9281,-5.8473,-5.828,-5.7524,-5.5402,-5.476,-5.4639,-5.4932,-5.47,-5.4768,-5.5448,-5.6261,-5.6708,-5.6769,-5.8187,-5.9408,-6.0335,-6.039,-6.001,-5.9197,-5.84,-5.7997,-5.7997,-5.7997,-5.7997,-5.7997,-5.7997,-5.7997,-5.7997,-5.7997,-5.7997,-5.7997,-5.7997,-5.7997,-5.7997,-5.7997,-5.7997,-5.7997,-5.7997,-5.7997,-5.8065,-5.8508,-5.8418,-5.8074,0.0,0.0,0.0,0.0,0.0,0.0,0.0,0.0,-6.1006,0.0,0.0,0.0,-5.8727,-5.9647,-6.0425,-6.0762,-6.079,-6.0684,-6.0462,-6.0666,-6.0781,-6.0781,-6.0781,-6.0781,-6.0781,-6.055,-6.0163,-5.9574,-5.8386,-5.7883,-5.7946,-5.7612,-5.7813,0.0,-5.9832,-6.0456,-6.0493,-5.9685,0.0,-5.9955,-5.7483,-5.6654,-5.6801,-5.5309,-5.4771,-5.477,-5.4255,-5.5297,-5.683,-5.6218,-5.7261,-5.8742,-5.8396,0.0,0.0,0.0,0.0,0.0,-5.5414,0.0,0.0,0.0,0.0,0.0,0.0,0.0,-5.9127,-6.0819,-6.0473,-6.005,-6.0666,-6.0589,-6.0165,-5.9319,-5.8165,-5.6912,-5.5708,-5.5186,-5.4851,-5.4656,-5.428,-5.4013,-5.3946,-5.466,-5.5402,-5.5955,-5.6912,-5.8289,-6.0269,-6.0422,-5.9749,-5.84,-5.8107,-5.7997,-5.7997,-5.7997,-5.7997,-5.7997,-5.7997,-5.7997,-5.7997,-5.7997,-5.7997,-5.7997,-5.7997,-5.7997,-5.7997,-5.7997,-5.7997,-5.7997,-5.7997,-5.7997,-5.8065,-5.8508,-5.8611,-5.8508,0.0,0.0,0.0,0.0,0.0,0.0,0.0,-6.2401,-6.2071,0.0,0.0,0.0,-5.9227,-6.0147,-6.0867,-6.098,-6.1029,-6.0875,-6.052,-6.0508,-6.061,-6.0781,-6.0781,-6.0781,-6.0781,-6.0781,-6.0585,-6.0103,-5.8505,-5.7634,-5.7484,-5.6667,-5.6308,-5.6381,0.0,0.0,0.0,0.0,0.0,-5.9038,-5.7079,-5.6492,-5.6675,-5.539,-5.4868,-5.4764,-5.4242,-5.5344,-5.6914,-5.5549,-5.6613,-5.8204,-5.6665,0.0,0.0,0.0,0.0,0.0,0.0,0.0,0.0,0.0,0.0,0.0,-5.9011,-5.8588,-5.8319,-6.0358,-6.0127,-5.9781,-6.0627,-6.0781,-6.0512,-5.9627,-5.8665,-5.7742,-5.6896,-5.6396,-5.5916,-5.5344,-5.5043,-5.4561,-5.3637,-5.4416,-5.5154,-5.562,-5.6366,-5.7569,-5.9319,-6.003,-5.9648,-5.8033,-5.7997,-5.7997,-5.7997,-5.7997,-5.7997,-5.7997,-5.7997,-5.7997,-5.7997,-5.7997,-5.7997,-5.7997,-5.7997,-5.7997,-5.7997,-5.7997,-5.7997,-5.7997,-5.7997,-5.7997,-5.8065,-5.8508,-5.8713,-5.8713,0.0,0.0,0.0,0.0,0.0,0.0,0.0,0.0,-6.3576,0.0,-6.119,-6.0572,-6.0385,-6.0933,-6.1144,-6.0811,-6.0697,-6.0495,-6.0053,-6.0006,-6.0217,-6.0722,-6.0734,-6.0746,-6.0781,-6.0781,-6.061,-6.0175,-5.8106,-5.7195,-5.7432,-5.6034,-5.5383,-5.5354,0.0,0.0,0.0,0.0,-5.6932,-5.8597,-5.6455,-5.6088,-5.6712,-5.5794,-5.566,-5.5935,-5.5877,-5.6613,-5.7373,-5.5755,-5.586,-5.6324,-5.4385,0.0,0.0,0.0,-5.5397,0.0,0.0,0.0,0.0,0.0,-5.6062,0.0,-5.8704,-5.805,-5.7676,-6.005,-5.9819,-5.9473,-6.0358,-6.0589,-6.0358,-5.9511,-5.9511,-5.9319,-5.8434,-5.7927,-5.7374,-5.6622,-5.6392,-5.5712,-5.4179,-5.4866,-5.5484,-5.5617,-5.6611,-5.743,-5.7952,-5.9522,-5.9648,-5.8033,-5.7997,-5.7997,-5.7997,-5.7923,-5.7923,-5.7997,-5.7923,-5.7923,-5.7997,-5.7923,-5.7923,-5.7997,-5.7813,-5.7813,-5.7997,-5.7886,-5.7923,-5.7997,-5.7997,-5.7997,-5.8065,-5.8508,-5.8713,-5.8713,0.0,0.0,0.0,0.0,0.0,0.0,0.0,0.0,-6.398,-6.3649,-6.2879,-6.2573,-6.3199,-6.2794,-6.2331,0.0,-6.1371,-6.0582,-5.9605,-5.9526,-5.976,-6.0203,-6.0255,-6.0391,-6.0781,-6.0781,-6.0757,-6.0647,-5.8522,-5.7347,-5.7041,-5.51,-5.3967,-5.3702,0.0,0.0,0.0,0.0,-5.6455,-5.6271,-5.5816,-5.6088,-5.6638,-5.5207,-5.428,-5.3797,-5.3776,-5.4158,-5.4777,-5.5812,-5.5389,-5.4753,-5.6702,-5.6357,0.0,-5.5872,0.0,0.0,0.0,0.0,0.0,0.0,-5.6062,0.0,-5.7368,-5.7253,-5.733,-5.855,-5.8088,-5.7742,-5.8627,-5.9319,-5.9473,-5.8665,-5.9665,-6.0012,-5.8511,-5.8224,-5.7989,-5.745,-5.6787,-5.5982,-5.5043,-5.4556,-5.465,-5.5545,-5.8142,-5.9214,-5.8048,-5.9522,-5.9648,-5.8033,-5.7997,-5.7997,-5.7997,-5.7373,-5.7373,-5.7997,-5.7336,-5.7373,-5.796,-5.7336,-5.7409,-5.7923,-5.6638,-5.6785,-5.796,-5.7299,-5.7409,-5.7997,-5.7997,-5.7997,-5.8065,-5.8508,-5.8713,-5.8713,0.0,0.0,0.0,0.0,0.0,0.0,0.0,0.0,0.0,0.0,-6.431,-6.3906,-6.3503,0.0,0.0,0.0,0.0,0.0,0.0,-5.9266,-5.9592,-6.0089,-6.0103,-6.0324,-6.0781,-6.0781,-6.0781,-6.0781,-5.8453,-5.7194,-5.6949,-5.4988,-5.3568,-5.2637,0.0,0.0,0.0,0.0,-5.5464,-5.6161,-5.5757,-5.5611,-5.5464,-5.4252,-5.3555,-5.3203,-5.3203,-5.3464,-5.3944,-5.4827,-5.5215,-5.5379,-5.5428,-5.5862,-5.6248,0.0,-5.512,-5.4695,0.0,0.0,0.0,-5.5479,-5.59,0.0,0.0,-5.6973,-5.6703,-5.805,-5.7588,-5.7291,-5.8127,-5.8627,-5.8896,-5.8896,-5.9588,-6.0012,-5.9588,-5.955,-5.93,-5.8642,-5.8028,-5.7156,-5.5911,-5.5423,-5.5476,-5.616,-5.8457,-5.9335,-5.8077,-5.9522,-5.9648,-5.8033,-5.7997,-5.7997,-5.7997,-5.7189,-5.7189,-5.7997,-5.7189,-5.7005,-5.7409,-5.6969,-5.6785,-5.6785,-5.6381,-5.6675,-5.7409,-5.7409,-5.7629,-5.7997,-5.7997,-5.7997,-5.8042,-5.826,-5.8524,-5.8673,0.0,0.0,0.0,0.0,0.0,0.0,0.0,0.0,0.0,0.0,0.0,0.0,0.0,0.0,0.0,0.0,0.0,0.0,0.0,-5.8857,-5.9111,-5.9596,-5.984,-6.0022,-6.0186,-6.0411,-6.0473,-6.0319,-5.7996,-5.6857,-5.6722,-5.5057,-5.355,-5.227,0.0,0.0,0.0,0.0,0.0,-5.6271,-5.5611,-5.506,-5.4509,-5.3408,-5.2968,-5.2968,-5.2763,-5.3071,-5.3479,-5.3721,-5.4911,-5.6003,-5.4202,-5.539,0.0,0.0,0.0,0.0,0.0,0.0,0.0,-5.5815,-5.5793,-5.5818,0.0,0.0,0.0,-5.7538,-5.7242,0.0,0.0,0.0,-5.8242,-5.8896,-5.9165,-5.9588,-6.0435,-6.055,-6.0358,-5.9819,-5.9332,-5.8459,-5.7003,-5.6724,-5.6653,-5.6779,-5.8347,-5.891,-5.8042,-5.9391,-5.9505,-5.8033,-5.7997,-5.7997,-5.7997,-5.7042,-5.6969,-5.7776,-5.6822,-5.6418,-5.6565,-5.6565,-5.6308,-5.5868,-5.6345,-5.6748,-5.7079,-5.7556,-5.785,-5.7997,-5.7997,-5.7997,-5.7997,-5.7997,-5.8238,-5.8487,-6.5338,-6.4714,0.0,0.0,0.0,0.0,0.0,0.0,0.0,0.0,0.0,0.0,0.0,0.0,0.0,0.0,0.0,-5.8456,-5.9117,-5.7862,-5.7318,-5.7752,-5.8872,-5.8992,-5.7998,-5.9062,-5.9319,-5.8588,-5.7175,-5.6268,-5.5821,-5.4501,-5.3563,-5.3041,-5.2491,0.0,0.0,0.0,-5.3775,-5.4656,-5.4583,-5.4913,-5.5207,-5.2968,-5.2123,-5.205,-5.1316,-5.1577,-5.2381,-5.3441,-5.3944,-5.454,-5.676,-5.6257,-5.519,-5.7129,0.0,0.0,0.0,0.0,0.0,-5.5305,-5.5908,-5.6472,-5.5652,0.0,-5.6257,-5.6033,0.0,-5.5857,0.0,0.0,0.0,-5.7291,-5.7934,-5.8704,-5.9511,-5.9665,-5.9896,-6.055,-5.995,-5.9203,-5.8672,-5.7862,-5.7242,-5.6814,-5.8316,-5.885,-5.8042,-5.884,-5.8925,-5.801,-5.7997,-5.7997,-5.7997,-5.6492,-5.6124,-5.6932,-5.539,-5.506,-5.5721,-5.5721,-5.6088,-5.6638,-5.6014,-5.6528,-5.7813,-5.7189,-5.7373,-5.7997,-5.7997,-5.7997,-5.7997,-5.7997,-5.8042,-5.8051,-6.4494,-6.431,0.0,0.0,0.0,0.0,0.0,0.0,0.0,0.0,0.0,0.0,-6.6035,-6.4971,-6.3539,0.0,-6.049,-5.9427,-5.857,-5.8128,0.0,-5.8191,-5.8951,-5.9062,-5.8297,-5.9076,-5.8969,-5.7889,-5.6635,-5.5772,-5.5335,-5.4053,-5.3359,-5.3188,-5.2858,0.0,-5.3041,0.0,-5.3812,-5.3739,-5.4216,-5.4583,-5.4693,-5.2747,-5.172,-5.1316,-5.1463,-5.172,-5.2091,-5.2572,-5.3702,-5.4855,-5.4894,-5.5305,0.0,-5.6201,0.0,0.0,0.0,0.0,-5.5286,-5.5938,-5.5615,-5.5228,-5.5746,-5.5769,-5.567,-5.5687,0.0,0.0,0.0,0.0,0.0,0.0,-5.8127,-5.8934,-5.8819,-5.9204,-5.9819,-6.0704,-6.0473,-5.9893,-5.8925,-5.7865,-5.718,-5.7146,-5.7576,-5.7881,-5.7993,-5.8349,-5.8377,-5.801,-5.7997,-5.7776,-5.7299,-5.6161,-5.5757,-5.6088,-5.495,-5.4803,-5.5596,-5.5596,-5.5757,-5.6088,-5.6235,-5.6675,-5.7299,-5.7446,-5.7703,-5.7997,-5.7997,-5.7997,-5.7997,-5.7997,-5.7997,-5.7997,0.0,0.0,0.0,0.0,0.0,0.0,-6.5668,-6.6145,-6.6292,-6.6182,-6.6476,-6.6659,-6.6512,-6.5595,-6.4347,-6.2768,-6.1592,-6.0367,-5.9048,-5.8695,-5.8412,-5.819,-5.8953,-5.9051,-5.8289,-5.8872,-5.8551,-5.7257,-5.6004,-5.5266,-5.5044,-5.3789,-5.3314,-5.3518,-5.3298,-5.3004,-5.2711,0.0,-5.3849,-5.3555,-5.3922,-5.3959,-5.3592,-5.2197,-5.1022,-5.0178,-5.0765,-5.1279,-5.1683,-5.194,-5.3445,-5.5073,-5.3805,-5.4679,-5.6007,0.0,0.0,0.0,-5.6154,-5.5729,-5.5291,-5.6295,-5.5417,-5.4559,-5.5495,-5.547,-5.5372,-5.5792,-5.6187,0.0,0.0,0.0,0.0,0.0,0.0,-5.9127,-5.9011,-5.9088,-5.9473,-6.0319,-6.0666,-6.0392,-5.9254,-5.8244,-5.7587,-5.7451,-5.7287,-5.7322,-5.7637,-5.7933,-5.805,-5.801,-5.7776,-5.7409,-5.6822,-5.5794,-5.5244,-5.5244,-5.4693,-5.4693,-5.528,-5.5721,-5.5941,-5.5978,-5.6785,-5.7152,-5.7189,-5.7776,-5.7997,-5.7997,-5.7997,-5.7997,-5.7997,-5.7997,-5.7997,-5.7997,-6.2842,-6.2842,0.0,0.0,0.0,-6.4127,-6.4163,-6.3503,-6.3539,-6.5154,-6.4677,-6.4787,-6.6329,-6.5081,-6.442,-6.5118,-6.2254,-6.0737,-6.1447,-5.9305,-5.7652,-5.6881,-5.8501,-5.8635,-5.6974,-5.7876,-5.7707,-5.6431,-5.5155,-5.4706,-5.4969,-5.3769,-5.3628,-5.4326,-5.3555,-5.3628,-5.4289,-5.3555,-5.3665,-5.4289,-5.3555,-5.2784,-5.1977,-5.1169,-4.9811,-4.8379,-4.8416,-4.9481,-5.0949,-5.172,-5.3078,-5.4546,-5.5265,-5.5045,-5.462,-5.5339,0.0,0.0,-5.6367,-5.6748,-5.6528,-5.5802,-5.5581,-5.5254,-5.413,-5.4822,-5.5829,-5.6286,-5.7352,-5.8204,-5.8204,0.0,0.0,0.0,0.0,0.0,0.0,-5.9358,-5.8627,-5.9435,-6.0281,-6.0584,-6.0108,-5.9604,-5.884,-5.7593,-5.7771,-5.7637,-5.6881,-5.7556,-5.8025,-5.801,-5.7262,-5.6822,-5.6822,-5.5244,-5.4436,-5.4436,-5.4399,-5.4399,-5.4473,-5.6051,-5.6748,-5.6822,-5.7593,-5.796,-5.796,-5.7997,-5.7997,-5.7997,-5.7997,-5.7997,-5.7997,-5.7997,-5.7997,-5.7997,0.0,0.0,0.0,0.0,-6.2585,-6.2438,-6.2438,-6.3135,-6.4053,-6.5154,-6.5521,-6.6109,-6.7173,-6.7283,-6.6733,-6.5411,-6.4273,-6.3062,-6.1667,-6.0823,-5.9795,-5.845,-5.9239,-5.9065,-5.7733,-5.8301,-5.8167,-5.718,-5.5928,-5.5474,-5.5826,-5.4047,-5.3922,-5.5133,-5.4363,-5.3849,0.0,0.0,0.0,0.0,0.0,-5.3041,-5.2637,-5.1316,-5.0435,-5.0031,-5.0545,-5.1096,-5.172,-5.2527,-5.3518,-5.4363,-5.4106,-5.4546,-5.5133,-5.4876,-5.5354,-5.5978,-5.5978,-5.6381,-5.6602,-5.5794,-5.5207,-5.477,-5.4631,-5.4932,-5.5457,-5.6255,-5.7185,-5.7941,-5.8235,0.0,0.0,0.0,0.0,0.0,0.0,-5.7616,-5.7934,-5.9358,-5.9742,-5.9888,-5.9702,-5.9034,-5.842,-5.794,-5.7028,-5.6801,-5.7546,-5.7395,-5.7506,-5.7973,-5.774,-5.7079,-5.6014,-5.5978,-5.5464,-5.4399,-5.495,-5.5464,-5.6014,-5.6565,-5.7079,-5.7593,-5.7886,-5.7997,-5.7997,-5.7997,-5.7997,-5.7997,-5.7997,-5.7997,-5.7997,-5.7997,-5.7997,-5.7997,-6.3319,0.0,0.0,-6.2352,-6.1924,-6.1594,-6.1594,-6.3025,-6.4494,-6.5595,-6.6439,-6.732,-6.8421,-6.9009,-6.8605,-6.6733,-6.6329,-6.5118,-6.2658,-6.2181,-6.13,-5.9698,-5.9789,-5.9604,-5.8998,-5.9155,-5.8883,-5.8072,-5.7065,-5.6657,-5.6684,-5.4601,-5.4326,-5.5596,-5.506,-5.4216,-5.3314,-5.4913,-5.4363,0.0,0.0,-5.3203,-5.3093,-5.205,-5.1499,-5.1242,-5.1499,-5.1756,-5.2087,-5.2601,-5.3298,-5.3885,-5.3371,-5.3922,-5.462,-5.4142,-5.473,-5.5464,-5.5244,-5.5757,-5.6235,-5.5721,-5.5427,-5.5257,-5.5209,-5.556,-5.6108,-5.6884,-5.7791,-5.8522,-5.8685,0.0,0.0,0.0,0.0,0.0,0.0,-5.7148,-5.7857,-5.8934,-5.9319,0.0,-5.9935,-5.8896,-5.8048,-5.7729,-5.6688,-5.6405,-5.7093,-5.7231,-5.7498,-5.7997,-5.7703,-5.6932,-5.5633,-5.6088,-5.5721,-5.4399,-5.55,-5.6308,-5.6822,-5.7116,-5.7519,-5.7997,-5.7997,-5.7997,-5.7997,-5.7997,-5.7997,-5.7997,-5.7997,-5.7997,-5.7997,-5.7997,-5.7997,-5.7997,-6.4086,-6.2585,-6.148,-6.1506,-6.1483,-6.1545,-6.1545,-6.2964,-6.4604,-6.6219,-6.7173,-6.8274,-6.9816,-7.0,-6.9706,-6.8898,-6.8128,-6.6696,-6.4347,-6.3429,-6.2254,-6.0603,-6.0211,-6.0237,-6.062,-6.0285,-5.9754,0.0,-5.8473,-5.7975,-5.7558,-5.5449,-5.4876,-5.5669,-5.5669,0.0,-5.3371,-5.4913,-5.4656,-5.3203,-5.3203,-5.3203,-5.324,-5.3203,-5.2747,-5.2013,-5.1206,-5.1426,-5.205,-5.205,-5.2564,-5.3203,-5.3203,-5.3203,-5.3203,-5.3203,-5.3203,-5.3445,-5.4142,-5.495,-5.5574,-5.5559,-5.6124,-5.6492,-5.5757,-5.652,-5.7526,-5.8079,-5.9153,-5.9883,-5.9583,-6.0142,0.0,0.0,0.0,0.0,0.0,0.0,-5.8181,-5.8296,-5.8923,0.0,0.0,-5.9162,-5.78,-5.7116,-5.682,-5.6345,0.0,-5.7116,-5.796,-5.7923,-5.7262,-5.6455,-5.5647,-5.5684,-5.5317,-5.4546,-5.6124,-5.6859,-5.6895,-5.7666,-5.7997,-5.7997,-5.7997,-5.7997,-5.7997,-5.7997,-5.7997,-5.7997,-5.7997,-5.7997,-5.7997,-5.7997,-5.7997,-5.7997,-6.1752,-6.0528,-5.9834,-5.9824,-6.0303,-6.0719,-6.0719,-6.2109,-6.3723,-6.5411,-6.6843,-6.7834,-6.8274,-6.8862,-6.8862,-6.8091,-6.7797,-6.7173,-6.5962,-6.5668,-6.453,-6.2291,-6.2107,-6.1721,-6.1002,-6.0281,-6.0322,-6.1076,0.0,0.0,-5.9231,0.0,0.0,0.0,0.0,0.0,-5.4179,-5.517,-5.4656,-5.3203,-5.3203,-5.3555,-5.4032,-5.3424,-5.3445,-5.3665,-5.2894,-5.2711,-5.2894,-5.2894,-5.3041,-5.3203,-5.3203,-5.3203,-5.3203,-5.3203,-5.3628,-5.3995,-5.3628,-5.4509,-5.5486,-5.484,-5.4876,-5.5133,-5.55,-5.5852,-5.6388,-5.7432,-5.8176,-5.8894,-5.9793,-5.9112,-5.8429,0.0,0.0,0.0,0.0,0.0,-5.6626,-5.8513,-5.7527,-5.7742,-6.0512,-5.8125,-5.6852,-5.78,-5.6115,-5.517,-5.5596,-5.7116,-5.774,-5.7152,-5.7483,-5.7299,-5.6492,-5.7079,-5.6969,-5.6198,-5.7226,-5.7703,-5.7703,-5.7923,-5.7997,-5.7997,-5.7997,-5.7997,-5.7997,-5.7997,-5.7997,-5.7997,-5.7997,-5.7997,-5.7997,-5.7997,-5.7997,-5.7997,-6.1397,-6.0227,-5.9564,-5.9174,-6.0379,-6.1422,-6.144,-6.2553,-6.398,-6.5632,-6.7247,-6.8091,-6.7724,-6.9045,-6.9486,-6.8311,-6.8201,-6.7724,-6.6586,-6.6182,-6.5191,-6.3429,-6.2658,-6.1919,-6.113,-6.0667,-6.0559,-6.075,0.0,0.0,-5.8805,0.0,0.0,0.0,0.0,-5.5574,-5.4436,-5.4876,-5.4546,-5.3702,-5.3314,-5.3482,0.0,-5.335,-5.3482,-5.3812,-5.3371,-5.3203,-5.3203,-5.3203,-5.3203,-5.3203,-5.3203,-5.3203,-5.3203,-5.3203,-5.3518,-5.3775,-5.3314,-5.4106,-5.495,-5.4509,-5.4656,-5.5133,-5.5941,-5.6124,-5.6485,-5.7756,-5.794,-5.8061,-5.8843,-5.8371,-5.7861,0.0,0.0,0.0,0.0,0.0,0.0,0.0,-5.8322,-5.8704,-6.0589,-5.6768,-5.4963,-5.697,-5.5112,-5.4216,-5.5023,-5.6932,-5.7629,-5.6822,-5.7923,-5.796,-5.6822,-5.796,-5.796,-5.6822,-5.7629,-5.7997,-5.7997,-5.7997,-5.7997,-5.7997,-5.7997,-5.7997,-5.7997,-5.7997,-5.7997,-5.7997,-5.7997,-5.7997,-5.7997,-5.7997,-5.7997,-5.7997,-6.2021,-6.0967,-6.0151,-5.9329,-6.122,-6.2959,-6.325,-6.4084,-6.5228,-6.6623,-6.8128,-6.8752,-6.7944,-6.9633,-7.0293,-6.8862,-6.8752,-6.8091,-6.6586,-6.5852,-6.5044,-6.4127,-6.2695,-6.1687,-6.1171,-6.1103,-6.057,0.0,0.0,0.0,0.0,0.0,0.0,0.0,0.0,0.0,0.0,-5.4252,-5.4179,-5.4032,-5.3445,-5.3203,-5.3203,-5.3203,-5.3203,-5.3203,-5.3203,-5.3203,-5.3203,-5.3203,-5.3203,-5.3203,-5.3203,-5.3203,-5.3203,-5.3203,-5.3203,-5.3203,-5.3203,-5.3702,-5.4252,-5.4252,-5.4766,-5.55,-5.6308,-5.6492,-5.6846,-5.8174,-5.7779,-5.7267,-5.7544,-5.7721,-5.7634,0.0,0.0,-5.582,-5.582,-5.6564,0.0,0.0,-5.9447,0.0,-6.0435,-5.5794,-5.3649,-5.5837,-5.452,-5.386,-5.4363,-5.6602,-5.7483,-5.6675,-5.8084,-5.8304,-5.7152,-5.84,-5.8377,-5.7116,-5.7703,-5.7997,-5.7997,-5.7997,-5.7997,-5.7997,-5.7997,-5.7997,-5.7997,-5.7997,-5.7997,-5.7997,-5.7997,-5.7997,-5.7997,-5.7997,-5.7997,-5.7997,-6.1879,-6.1363,-6.0947,-6.0186,-6.2104,-6.423,-6.5567,-6.7064,-6.8164,-6.8458,-6.9302,-6.9596,-6.8788,-6.8458,-6.8201,-6.7907,-6.7907,-6.7504,-6.6549,-6.6366,-6.5632,-6.4163,-6.3796,-6.2965,-6.1542,-6.088,-6.0448,-6.0208,-5.896,-5.8215,0.0,0.0,0.0,0.0,0.0,0.0,-5.3408,-5.3408,-5.3041,-5.2454,-5.3004,-5.3203,-5.3203,-5.3203,-5.3203,-5.3203,-5.3203,-5.3203,-5.3203,-5.3203,-5.3203,-5.3203,-5.3203,-5.3203,-5.3203,-5.3203,-5.3203,-5.3203,-5.3203,-5.3298,-5.3408,-5.3408,-5.3518,-5.3849,-5.4656,-5.484,-5.5265,-5.6809,-5.6232,-5.5845,-5.7267,-5.6482,-5.5248,-5.4137,-5.385,-5.3718,-5.3718,-5.4167,0.0,0.0,0.0,-5.6779,-5.8566,-5.7481,-5.6996,-5.7704,-5.6538,-5.5364,-5.4458,-5.6051,-5.6638,-5.5831,-5.6748,-5.7717,-5.8781,-5.84,-5.84,-5.8781,-5.8253,-5.7997,-5.7997,-5.7997,-5.7997,-5.7997,-5.7997,-5.7997,-5.7997,-5.7997,-5.7997,-5.7997,-5.7997,-5.7997,-5.7997,-5.7997,-5.7997,-5.7997,-6.2717,-6.1937,-6.1515,-6.202,-6.3844,-6.5761,-6.7445,-6.9435,-7.0183,-6.8495,-6.8972,-6.9009,-6.7797,-6.8054,-6.8311,-6.8311,-6.754,-6.6916,-6.6512,-6.5705,-6.4897,-6.4127,-6.3686,-6.2658,-6.1006,-6.0603,-5.9979,-5.9171,-5.8364,-5.7556,-5.6748,-5.6345,0.0,0.0,0.0,-5.4399,0.0,-5.3555,-5.3225,-5.3225,-5.3225,-5.3203,-5.3203,-5.3203,-5.3203,-5.3203,-5.3203,-5.3203,-5.3203,-5.3203,-5.3203,-5.3203,-5.3203,-5.3203,-5.3203,-5.3203,-5.3203,-5.3203,-5.3203,-5.3203,-5.3203,-5.3203,-5.3203,-5.3408,-5.4216,-5.473,-5.5354,-5.6565,-5.6012,-5.5427,-5.5817,-5.578,-5.526,-5.4007,-5.4546,-5.4913,-5.4509,-5.5175,-5.5959,0.0,0.0,0.0,-5.794,-5.8387,-5.7796,-5.5756,-5.5244,-5.4442,-5.323,-5.5464,-5.6418,-5.5633,-5.6785,-5.7813,-5.8584,-5.8621,-5.8621,-5.8584,-5.818,-5.7997,-5.7997,-5.7997,-5.7997,-5.7997,-5.7997,-5.7997,-5.7997,-5.7997,-5.7997,-5.7997,-5.7997,-5.7997,-5.7997,-5.7997,-5.7997,-5.7997,-6.4075,-6.3366,-6.305,-6.4358,-6.5986,-6.755,-6.8923,-7.1048,-7.1541,-6.8825,-6.8862,-6.8605,-6.7173,-6.7981,-6.8641,-6.8641,-6.732,-6.6439,-6.6256,-6.4897,-6.4016,-6.3833,-6.2989,-6.1887,-6.0419,-6.0236,-5.9355,-5.774,-5.7923,-5.7079,-5.5354,-5.5522,0.0,0.0,0.0,-5.3885,-5.4509,-5.3592,-5.3482,-5.3849,-5.3408,-5.3203,-5.3203,-5.3203,-5.3203,-5.3203,-5.3203,-5.3203,-5.3203,-5.3203,-5.3203,-5.3203,-5.3203,-5.3203,-5.3203,-5.3203,-5.3203,-5.3203,-5.3203,-5.3203,-5.3203,-5.3203,-5.3203,-5.335,-5.3995,-5.462,-5.5317,-5.6124,-5.5794,-5.5097,-5.4289,-5.4921,-5.5323,-5.4537,-5.5464,-5.6124,-5.5647,-5.6462,-5.69,0.0,0.0,0.0,-5.6872,-5.8092,-5.7239,-5.3132,-5.3856,-5.3962,-5.2826,-5.5023,-5.6088,-5.5611,-5.7005,-5.7923,-5.8253,-5.8731,-5.8731,-5.8253,-5.807,-5.7997,-5.7997,-5.7997,-5.7997,-5.7997,-5.7997,-5.7997,-5.7997,-5.7997,-5.7997,-5.7997,-5.7997,-5.7997,-5.7997,-5.7997,-5.7997,-5.7997,-6.579,-6.6488,-6.7002,-6.7199,-6.8618,-6.9795,-6.9961,-7.1439,-7.2129,-7.1101,-7.0403,-6.9633,-6.8788,-6.8164,-6.7797,-6.7797,-6.699,-6.6182,-6.5485,-6.4604,-6.3759,-6.2989,-6.2144,-6.13,-6.0419,-5.9685,-5.8524,-5.6932,-5.7629,-5.6785,-5.4509,-5.5244,-5.4326,-5.216,-5.3628,-5.3151,-5.1353,-5.2637,-5.2821,-5.227,-5.2931,-5.3203,-5.3203,-5.3203,-5.3203,-5.3203,-5.3203,-5.3203,-5.3203,-5.3203,-5.3203,-5.3203,-5.3203,-5.3203,-5.3203,-5.3203,-5.3203,-5.3203,-5.3203,-5.3203,-5.3203,-5.3203,-5.3203,-5.3203,-5.3298,-5.335,-5.3665,-5.4473,-5.4546,-5.4289,-5.3482,-5.3393,-5.3671,-5.4289,-5.4546,-5.484,-5.55,-5.5713,-5.5913,-5.6272,0.0,0.0,-5.3921,-5.5861,-5.5658,-5.1843,-5.4777,-5.6274,-5.5309,-5.484,-5.4913,-5.5596,-5.6455,-5.7629,-5.9074,-5.8437,-5.8437,-5.9074,-5.8364,-5.7997,-5.7997,-5.7997,-5.7997,-5.7997,-5.7997,-5.7997,-5.7997,-5.7997,-5.7997,-5.7997,-5.7997,-5.7997,-5.7997,-5.7997,-5.7997,-5.7997,-6.8291,-6.793,-6.7783,-6.8863,-6.9231,-6.9695,-7.0544,-7.1728,-7.1845,-6.9957,-6.9973,-6.9596,-6.8311,-6.7871,-6.7504,-6.7026,-6.6256,-6.5448,-6.464,-6.3796,-6.2952,-6.2108,-6.1777,-6.1006,-5.9698,-5.9368,-5.8414,-5.6822,-5.7593,-5.7005,-5.5097,-5.495,-5.3849,-5.2013,-5.2674,-5.2674,-5.227,-5.2417,-5.2564,-5.2747,-5.3057,-5.3203,-5.3203,-5.3203,-5.3203,-5.3203,-5.3203,-5.3203,-5.3203,-5.3203,-5.3203,-5.3203,-5.3203,-5.3203,-5.3203,-5.3203,-5.3203,-5.3203,-5.3203,-5.3203,-5.3203,-5.3203,-5.3203,-5.3203,-5.3203,-5.3592,-5.3995,-5.4326,-5.4399,-5.4142,-5.3371,-5.3995,-5.4583,-5.4436,-5.5611,-5.6492,-5.6345,-5.6308,-5.6029,-5.5254,0.0,-5.3781,-5.2348,-5.3783,-5.4465,-5.3681,-5.5683,-5.6331,-5.4942,-5.4583,-5.4987,-5.6271,-5.5684,-5.6381,-5.8474,-5.8143,-5.8143,-5.8474,-5.8143,-5.7997,-5.7997,-5.7997,-5.7997,-5.7997,-5.7997,-5.7997,-5.7997,-5.7997,-5.7997,-5.7997,-5.7997,-5.7997,-5.7997,-5.7997,-5.7997,-5.7997,-6.9773,-6.8984,-6.8612,-7.0057,-6.9895,-6.9895,-7.0947,-7.1885,-7.167,-6.94,-6.9697,-6.9486,-6.7871,-6.7467,-6.721,-6.688,-6.5668,-6.4824,-6.4457,-6.3429,-6.2438,-6.163,-6.1374,-6.0603,-5.9221,-5.8964,-5.8157,-5.6822,-5.7373,-5.6822,-5.5207,-5.4436,-5.3298,-5.2013,-5.2234,-5.2527,-5.2821,-5.2491,-5.2674,-5.3203,-5.3203,-5.3203,-5.3203,-5.3203,-5.3203,-5.3203,-5.3203,-5.3203,-5.3203,-5.3203,-5.3203,-5.3203,-5.3203,-5.3203,-5.3203,-5.3203,-5.3203,-5.3203,-5.3203,-5.3203,-5.3203,-5.3203,-5.3203,-5.3203,-5.3203,-5.3665,-5.4106,-5.4363,-5.4399,-5.4289,-5.3959,-5.484,-5.5464,-5.517,-5.6528,-5.7519,-5.7189,-5.6969,-5.6308,-5.4913,-5.3899,-5.2585,-5.0728,-5.2193,-5.3327,-5.346,-5.5041,-5.5641,-5.4773,-5.4509,-5.5023,-5.6418,-5.5574,-5.6051,-5.796,-5.7997,-5.7997,-5.7997,-5.7997,-5.7997,-5.7997,-5.7997,-5.7997,-5.7997,-5.7997,-5.7997,-5.7997,-5.7997,-5.7997,-5.7997,-5.7997,-5.7997,-5.7997,-5.7997,-5.7997,-5.7997,-6.9665,-6.9936,-7.0125,-7.0915,-7.1091,-7.1091,-7.1127,-7.1885,-7.1908,-7.0293,-7.011,-6.9486,-6.7871,-6.699,-6.6843,-6.7614,-6.5485,-6.4457,-6.5228,-6.3723,-6.2438,-6.163,-6.086,-6.0052,-5.9221,-5.8437,-5.7629,-5.6822,-5.6822,-5.6014,-5.4399,-5.3592,-5.2784,-5.2013,-5.2821,-5.2747,-5.205,-5.2858,-5.3167,-5.3203,-5.3203,-5.3203,-5.3203,-5.3203,-5.3203,-5.3203,-5.3203,-5.3203,-5.3203,-5.3203,-5.3203,-5.3203,-5.3203,-5.3203,-5.3203,-5.3203,-5.3203,-5.3203,-5.3203,-5.3203,-5.3203,-5.3203,-5.3203,-5.3203,-5.3203,-5.3203,-5.3445,-5.4252,-5.4399,-5.462,-5.5449,-5.5574,-5.5868,-5.6638,-5.6822,-5.7079,-5.7886,-5.7299,-5.6492,-5.5684,-5.5212,-5.3236,-4.8767,-5.1286,-5.2186,-4.9762,-5.2233,-5.4348,-5.5508,-5.484,-5.4766,-5.5574,-5.6381,-5.7189,-5.7997,-5.7997,-5.7997,-5.7997,-5.7997,-5.7997,-5.7997,-5.7997,-5.7997,-5.7997,-5.7997,-5.7997,-5.7997,-5.7997,-5.7997,-5.7997,-5.7997,-5.7997,-5.7997,-5.7997,-5.7997,-5.7997,-7.2855,-7.2436,-7.1749,-7.2005,-7.2041,-7.1824,-7.1191,-7.1447,-7.1084,-6.9358,-6.9222,-6.8678,-6.7063,-6.6659,-6.6366,-6.6109,-6.4861,-6.3943,-6.3613,-6.3074,-6.2218,-6.086,-6.0529,-5.9758,-5.84,-5.8143,-5.7593,-5.6822,-5.7336,-5.6528,-5.4399,-5.4693,-5.3812,-5.2013,-5.2858,-5.3078,-5.2821,-5.3115,-5.3203,-5.3203,-5.3203,-5.3203,-5.3203,-5.3203,-5.3203,-5.3203,-5.3203,-5.3203,-5.3203,-5.3203,-5.3203,-5.3203,-5.3203,-5.3203,-5.3203,-5.3203,-5.3203,-5.3203,-5.3203,-5.3203,-5.3203,-5.3203,-5.3203,-5.3203,-5.3203,-5.3203,-5.3424,-5.4216,-5.4399,-5.4656,-5.5427,-5.6051,-5.6492,-5.6748,-5.7262,-5.7519,-5.7226,-5.6492,-5.5464,-5.4106,-5.2856,-5.1369,-4.939,-5.0637,-5.1692,-5.1997,-5.3907,-5.518,-5.5596,-5.4326,-5.4473,-5.6345,-5.5611,-5.6088,-5.796,-5.7997,-5.7997,-5.7997,-5.7997,-5.7997,-5.7997,-5.7997,-5.7997,-5.7997,-5.7997,-5.7997,-5.7997,-5.7997,-5.7997,-5.7997,-5.7997,-5.7997,-5.7997,-5.7997,-5.7997,-5.7997,-7.3488,-7.2857,-7.1981,-7.1981,-7.1981,-7.1794,-7.1191,-7.1228,-7.0791,-6.9381,-6.9031,-6.8421,-6.71,-6.6402,-6.5852,-6.5338,-6.4273,-6.3503,-6.3319,-6.2989,-6.2218,-6.0896,-6.0566,-5.9795,-5.8474,-5.8143,-5.774,-5.7262,-5.7446,-5.6638,-5.484,-5.506,-5.4326,-5.2894,-5.3115,-5.3203,-5.3203,-5.3203,-5.3203,-5.3203,-5.3203,-5.3203,-5.3203,-5.3203,-5.3203,-5.3203,-5.3203,-5.3203,-5.3203,-5.3203,-5.3203,-5.3203,-5.3203,-5.3203,-5.3203,-5.3203,-5.3203,-5.3203,-5.3203,-5.3203,-5.3203,-5.3203,-5.3203,-5.3277,-5.3592,-5.3885,-5.4326,-5.5133,-5.5317,-5.5537,-5.6345,-5.6895,-5.7262,-5.7262,-5.7666,-5.7703,-5.6932,-5.6088,-5.5097,-5.3812,-5.2491,-5.1279,-5.0141,-5.1059,-5.1867,-5.227,-5.4069,-5.5133,-5.5133,-5.4766,-5.5097,-5.6308,-5.5684,-5.6161,-5.796,-5.7997,-5.7997,-5.7997,-5.7997,-5.7997,-5.7997,-5.7997,-5.7997,-5.7997,-5.7997,-5.7997,-5.7997,-5.7997,-5.7997,-5.7997,-5.7997,-5.7997,-5.7997,-5.7997,-5.7997,-5.7997,-7.2091,-7.1705,-7.1191,-7.1191,-7.1155,-7.1119,-7.1119,-7.1112,-7.0881,-7.011,-6.9302,-6.8495,-6.7614,-6.6219,-6.5264,-6.5154,-6.3723,-6.3135,-6.3943,-6.3246,-6.2438,-6.1557,-6.0786,-6.0015,-5.9148,-5.84,-5.7997,-5.7997,-5.7262,-5.6455,-5.5647,-5.484,-5.4436,-5.4363,-5.3555,-5.3203,-5.3203,-5.3203,-5.3203,-5.3203,-5.3203,-5.3203,-5.3203,-5.3203,-5.3203,-5.3203,-5.3203,-5.3203,-5.3203,-5.3203,-5.3203,-5.3203,-5.3203,-5.3203,-5.3203,-5.3203,-5.3203,-5.3203,-5.3203,-5.3203,-5.3203,-5.3298,-5.3335,-5.3555,-5.4326,-5.506,-5.5831,-5.6638,-5.6822,-5.7042,-5.785,-5.7997,-5.7997,-5.7997,-5.7997,-5.7703,-5.6859,-5.6051,-5.5244,-5.4326,-5.3665,-5.2674,-5.1132,-5.238,-5.2711,-5.1316,-5.3261,-5.4509,-5.4546,-5.6051,-5.6528,-5.5684,-5.6418,-5.7189,-5.7997,-5.7997,-5.7997,-5.7997,-5.7997,-5.7997,-5.7997,-5.7997,-5.7997,-5.7997,-5.7997,-5.7997,-5.7997,-5.7997,-5.7997,-5.7997,-5.7997,-5.7997,-5.7997,-5.7997,-5.7997,-5.7997,-7.2919,-7.2616,-7.2197,-7.2197,-7.1655,-7.1253,-7.1253,-7.0226,-6.9412,-6.9229,-6.8495,-6.743,-6.6035,-6.5521,-6.4787,-6.3503,-6.3,-6.289,-6.3099,-6.289,-6.2181,-6.075,-6.0493,-5.9758,-5.8327,-5.8107,-5.7997,-5.7997,-5.7813,-5.7299,-5.6492,-5.5684,-5.4987,-5.4363,-5.3555,-5.3203,-5.3203,-5.3203,-5.3203,-5.3203,-5.3203,-5.3203,-5.3203,-5.3203,-5.3203,-5.3203,-5.3203,-5.3203,-5.3203,-5.3203,-5.3203,-5.3203,-5.3203,-5.3203,-5.3203,-5.3203,-5.3203,-5.3203,-5.3203,-5.3203,-5.3371,-5.3959,-5.4583,-5.506,-5.5244,-5.5486,-5.5831,-5.6638,-5.6822,-5.7042,-5.785,-5.7997,-5.7997,-5.7997,-5.7997,-5.7483,-5.6088,-5.5721,-5.484,-5.2821,-5.3482,-5.3739,-5.2747,-5.3518,-5.4473,-5.5317,-5.5354,-5.5574,-5.6198,-5.7189,-5.7336,-5.6528,-5.6712,-5.7189,-5.7997,-5.7997,-5.7997,-5.7997,-5.7997,-5.7997,-5.7997,-5.7997,-5.7997,-5.7997,-5.7997,-5.7997,-5.7997,-5.7997,-5.7997,-5.7997,-5.7997,-5.7997,-5.7997,-5.7997,-5.7997,-5.7997,-7.2118,-7.2345,-7.2496,-7.2496,-7.1835,-7.1293,-7.1293,-6.9926,-6.8898,-6.8898,-6.8201,-6.7357,-6.6476,-6.5742,-6.4934,-6.4016,-6.322,-6.278,-6.278,-6.2475,-6.1851,-6.1006,-6.0236,-5.9465,-5.8584,-5.818,-5.7997,-5.7997,-5.7997,-5.7776,-5.7336,-5.6124,-5.5354,-5.4913,-5.3739,-5.3387,-5.3739,-5.3371,-5.3408,-5.3739,-5.3371,-5.3203,-5.3203,-5.3203,-5.3203,-5.3203,-5.3203,-5.3445,-5.3702,-5.3314,-5.3445,-5.3702,-5.3314,-5.3203,-5.3298,-5.3665,-5.3739,-5.3739,-5.3739,-5.4032,-5.4399,-5.484,-5.5537,-5.6161,-5.6161,-5.6418,-5.6822,-5.7262,-5.7336,-5.7483,-5.7923,-5.7997,-5.7997,-5.7997,-5.7703,-5.7005,-5.5757,-5.528,-5.4546,-5.3261,-5.3885,-5.4363,-5.4289,-5.5023,-5.5721,-5.6198,-5.6528,-5.6712,-5.6822,-5.7556,-5.7629,-5.6822,-5.7152,-5.7556,-5.7997,-5.7997,-5.7997,-5.7997,-5.7997,-5.7997,-5.7997,-5.7997,-5.7997,-5.7997,-5.7997,-5.7997,-5.7997,-5.7997,-5.7997,-5.7997,-5.7997,-5.7997,-5.7997,-5.7997,-5.7997,-5.7997,-7.0768,-7.1604,-7.2314,-7.2467,-7.1725,-7.1138,-7.1138,-6.9743,-6.8715,-6.8715,-6.8128,-6.7677,-6.7504,-6.6292,-6.5375,-6.5154,-6.3833,-6.2952,-6.278,-6.2144,-6.1667,-6.141,-6.0126,-5.9258,-5.9001,-5.8364,-5.7997,-5.7997,-5.7997,-5.7997,-5.796,-5.6455,-5.5757,-5.5684,-5.4106,-5.3849,-5.4509,-5.3739,-5.3849,-5.4509,-5.3849,-5.3482,-5.3408,-5.3408,-5.3314,-5.3203,-5.3203,-5.3665,-5.4142,-5.3592,-5.3849,-5.4289,-5.3739,-5.3555,-5.3702,-5.4363,-5.4656,-5.473,-5.462,-5.517,-5.5757,-5.5757,-5.6381,-5.6969,-5.6969,-5.7519,-5.7997,-5.7997,-5.7997,-5.7997,-5.7997,-5.7997,-5.7997,-5.7997,-5.7336,-5.6528,-5.5684,-5.4987,-5.4546,-5.4399,-5.462,-5.5023,-5.5684,-5.6418,-5.6565,-5.5978,-5.7116,-5.7556,-5.7005,-5.7629,-5.7703,-5.7005,-5.7629,-5.7997,-5.7997,-5.7997,-5.7997,-5.7997,-5.7997,-5.7997,-5.7997,-5.7997,-5.7997,-5.7997,-5.7997,-5.7997,-5.7997,-5.7997,-5.7997,-5.7997,-5.7997,-5.7997,-5.7997,-5.7997,-5.7997,-5.7997,-7.0659,-7.1106,-7.1573,-7.2343,-7.1284,-7.0293,-7.0293,-6.8898,-6.7871,-6.7871,-6.776,-6.743,-6.6769,-6.6476,-6.5778,-6.4383,-6.4053,-6.3576,-6.2879,-6.2695,-6.2034,-6.0639,-6.0346,-5.9575,-5.8217,-5.807,-5.7997,-5.7997,-5.7997,-5.7997,-5.796,-5.7042,-5.6602,-5.6565,-5.495,-5.4656,-5.5354,-5.4546,-5.4693,-5.539,-5.528,-5.4803,-5.4216,-5.4216,-5.3812,-5.3203,-5.3203,-5.3277,-5.3482,-5.4032,-5.4289,-5.4509,-5.506,-5.5207,-5.5244,-5.5354,-5.5904,-5.6271,-5.5574,-5.6014,-5.6602,-5.6602,-5.7226,-5.7813,-5.7813,-5.7923,-5.7997,-5.7997,-5.7997,-5.7997,-5.7997,-5.7997,-5.7997,-5.7997,-5.7336,-5.6528,-5.5684,-5.5486,-5.5133,-5.4473,-5.5611,-5.6492,-5.6602,-5.6748,-5.7042,-5.7593,-5.7226,-5.7226,-5.7776,-5.7923,-5.7923,-5.7813,-5.7923,-5.7997,-5.7997,-5.7997,-5.7997,-5.7997,-5.7997,-5.7997,-5.7997,-5.7997,-5.7997,-5.7997,-5.7997,-5.7997,-5.7997,-5.7997,-5.7997,-5.7997,-5.7997,-5.7997,-5.7997,-5.7997,-5.7997,-5.7997,-7.0131,-7.1084,-7.2011,-7.2438,-7.1174,-7.0257,-7.0697,-6.9009,-6.7834,-6.8274,-6.7944,-6.754,-6.7173,-6.6769,-6.6035,-6.4861,-6.4347,-6.3723,-6.2853,-6.2401,-6.163,-6.0456,-5.9979,-5.9208,-5.8033,-5.7997,-5.7997,-5.7997,-5.7997,-5.7997,-5.796,-5.7189,-5.6822,-5.6748,-5.5574,-5.55,-5.6198,-5.539,-5.55,-5.6198,-5.5757,-5.5354,-5.506,-5.506,-5.4803,-5.4473,-5.4473,-5.4766,-5.5133,-5.506,-5.5317,-5.5684,-5.5611,-5.5596,-5.5684,-5.6124,-5.6528,-5.6822,-5.6859,-5.7152,-5.7446,-5.7446,-5.774,-5.7997,-5.7997,-5.7997,-5.7997,-5.7997,-5.7997,-5.7997,-5.7997,-5.7997,-5.7997,-5.7997,-5.6969,-5.6161,-5.6235,-5.55,-5.5133,-5.5647,-5.6345,-5.6969,-5.7409,-5.7446,-5.7593,-5.796,-5.7666,-5.7593,-5.796,-5.7997,-5.7997,-5.7997,-5.7997,-5.7997,-5.7997,-5.7997,-5.7997,-5.7997,-5.7997,-5.7997,-5.7997,-5.7997,-5.7997,-5.7997,-5.7997,-5.7997,-5.7997,-5.7997,-5.7997,-5.7997,-5.7997,-5.7997,-5.7997,-5.7997,-5.7997,-5.7997,-6.9672,-7.1031,-7.2255,-7.2467,-7.1321,-7.0587,-7.1211,-6.9559,-6.8421,-6.8862,-6.8348,-6.7907,-6.7724,-6.7136,-6.6366,-6.5411,-6.4751,-6.3943,-6.2879,-6.2218,-6.1447,-6.0456,-5.9465,-5.8621,-5.7997,-5.7997,-5.7997,-5.7997,-5.7997,-5.7997,-5.7997,-5.7373,-5.7079,-5.7042,-5.6235,-5.6308,-5.7042,-5.6198,-5.6345,-5.7042,-5.6418,-5.6051,-5.5868,-5.5868,-5.5757,-5.5596,-5.5596,-5.5978,-5.6455,-5.6014,-5.6308,-5.6712,-5.6271,-5.6161,-5.6271,-5.6895,-5.7079,-5.7226,-5.7813,-5.7997,-5.7997,-5.7997,-5.7997,-5.7997,-5.7997,-5.7997,-5.7997,-5.7997,-5.7997,-5.7997,-5.7997,-5.7997,-5.7997,-5.7997,-5.6822,-5.6088,-5.6712,-5.5757,-5.5427,-5.6638,-5.6969,-5.7336,-5.7923,-5.7997,-5.7997,-5.7997,-5.7997,-5.7997,-5.7997,-5.7997,-5.7997,-5.7997,-5.7997,-5.7997,-5.7997,-5.7997,-5.7997,-5.7997,-5.7997,-5.7997,-5.7997,-5.7997,-5.7997,-5.7997,-5.7997,-5.7997,-5.7997,-5.7997,-5.7997,-5.7997,-5.7997,-5.7997,-5.7997,-5.7997,-5.7997,-5.7997,-6.9529,-7.0501,-7.148,-7.238,-7.1798,-7.1219,-7.1293,-7.0513,-6.9669,-6.9009,-6.8862,-6.8531,-6.776,-6.7677,-6.699,-6.5448,-6.5264,-6.453,-6.289,-6.2743,-6.2034,-6.0493,-5.8914,-5.807,-5.7997,-5.7997,-5.7997,-5.7997,-5.7997,-5.7997,-5.7997,-5.7923,-5.7923,-5.7886,-5.7079,-5.7152,-5.785,-5.7042,-5.7189,-5.7923,-5.785,-5.7373,-5.6712,-5.6712,-5.6235,-5.5596,-5.5596,-5.5647,-5.5794,-5.6492,-5.6748,-5.6932,-5.7593,-5.7813,-5.7813,-5.7886,-5.7923,-5.7923,-5.796,-5.7997,-5.7997,-5.7997,-5.7997,-5.7997,-5.7997,-5.7997,-5.7997,-5.7997,-5.7997,-5.7997,-5.7997,-5.7997,-5.7997,-5.7997,-5.7262,-5.6748,-5.6785,-5.6712,-5.6675,-5.6785,-5.7446,-5.7923,-5.7997,-5.7997,-5.7997,-5.7997,-5.7997,-5.7997,-5.7997,-5.7997,-5.7997,-5.7997,-5.7997,-5.7997,-5.7997,-5.7997,-5.7997,-5.7997,-5.7997,-5.7997,-5.7997,-5.7997,-5.7997,-5.7997,-5.7997,-5.7997,-5.7997,-5.7997,-5.7997,-5.7997,-5.7997,-5.7997,-5.7997,-5.7997,-5.7997,-5.7997,-6.9494,-7.0468,-7.1417,-7.2314,-7.1835,-7.1293,-7.1293,-7.0183,-6.9265,-6.8935,-6.8458,-6.8017,-6.7724,-6.7687,-6.7026,-6.5448,-6.5301,-6.4604,-6.289,-6.278,-6.2108,-6.0493,-5.8841,-5.7997,-5.7997,-5.7997,-5.7997,-5.7997,-5.7997,-5.7997,-5.7997,-5.7997,-5.7997,-5.7997,-5.7666,-5.7703,-5.796,-5.7666,-5.7703,-5.7997,-5.7997,-5.7813,-5.7556,-5.7556,-5.7336,-5.7079,-5.7079,-5.7079,-5.7152,-5.7446,-5.7556,-5.7593,-5.7886,-5.7997,-5.7997,-5.7997,-5.7997,-5.7997,-5.7997,-5.7997,-5.7997,-5.7997,-5.7997,-5.7997,-5.7997,-5.7997,-5.7997,-5.7997,-5.7997,-5.7997,-5.7997,-5.7997,-5.7997,-5.7997,-5.7336,-5.6969,-5.7483,-5.7116,-5.7005,-5.7483,-5.7813,-5.7997,-5.7997,-5.7997,-5.7997,-5.7997,-5.7997,-5.7997,-5.7997,-5.7997,-5.7997,-5.7997,-5.7997,-5.7997,-5.7997,-5.7997,-5.7997,-5.7997,-5.7997,-5.7997,-5.7997,-5.7997,-5.7997,-5.7997,-5.7997,-5.7997,-5.7997,-5.7997,-5.7997,-5.7997,-5.7997,-5.7997,-5.7997,-5.7997,-5.7997,-5.7997,-6.953,-7.0701,-7.169,-7.2079,-7.1688,-7.1211,-7.0954,-7.0,-6.9192,-6.8935,-6.8421,-6.7981,-6.7724,-6.7687,-6.7026,-6.5448,-6.5301,-6.4604,-6.289,-6.2585,-6.1814,-6.0456,-5.8841,-5.7997,-5.7997,-5.7997,-5.7997,-5.7997,-5.7997,-5.7997,-5.7997,-5.7997,-5.7997,-5.7997,-5.7997,-5.7997,-5.7997,-5.7997,-5.7997,-5.7997,-5.7997,-5.7997,-5.7997,-5.7997,-5.7997,-5.7997,-5.7997,-5.7997,-5.7997,-5.7997,-5.7997,-5.7997,-5.7997,-5.7997,-5.7997,-5.7997,-5.7997,-5.7997,-5.7997,-5.7997,-5.7997,-5.7997,-5.7997,-5.7997,-5.7997,-5.7997,-5.7997,-5.7997,-5.7997,-5.7997,-5.7997,-5.7997,-5.7997,-5.7997,-5.7556,-5.7373,-5.7923,-5.7519,-5.7373,-5.7923,-5.7997,-5.7997,-5.7997,-5.7997,-5.7997,-5.7997,-5.7997,-5.7997,-5.7997,-5.7997,-5.7997,-5.7997,-5.7997,-5.7997,-5.7997,-5.7997,-5.7997,-5.7997,-5.7997,-5.7997,-5.7997,-5.7997,-5.7997,-5.7997,-5.7997,-5.7997,-5.7997,-5.7997,-5.7997,-5.7997,-5.7997,-5.7997,-5.7997,-5.7997,-5.7997,-5.7997,-6.9708,-7.1191,-7.2239,-7.1439,-7.1293,-7.1027,-7.022,-7.0073,-6.9816,-6.9009,-6.8898,-6.8605,-6.7797,-6.7687,-6.7026,-6.5448,-6.5301,-6.4604,-6.289,-6.2034,-6.1227,-6.0456,-5.8841,-5.7997,-5.7997,-5.7997,-5.7997,-5.7997,-5.7997,-5.7997,-5.7997,-5.7997,-5.7997,-5.7997,-5.7997,-5.7997,-5.7997,-5.7997,-5.7997,-5.7997,-5.7997,-5.7997,-5.7997,-5.7997,-5.7997,-5.7997,-5.7997,-5.7997,-5.7997,-5.7997,-5.7997,-5.7997,-5.7997,-5.7997,-5.7997,-5.7997,-5.7997,-5.7997,-5.7997,-5.7997,-5.7997,-5.7997,-5.7997,-5.7997,-5.7997,-5.7997,-5.7997,-5.7997,-5.7997,-5.7997,-5.7997,-5.7997,-5.7997,-5.7997,-5.7997,-5.7997,-5.7997,-5.7997,-5.7997,-5.7997,-5.7997,-5.7997,-5.7997,-5.7997,-5.7997,-5.7997,-5.7997,-5.7997,-5.7997,-5.7997,-5.7997,-5.7997,-5.7997,-5.7997,-5.7997,-5.7997,-5.7997,-5.7997,-5.7997,-5.7997,-5.7997,-5.7997,-5.7997,-5.7997,-5.7997,-5.7997,-5.7997,-5.7997,-5.7997,-5.7997,-5.7997,-5.7997,-5.7997,-5.7997,-5.7997,-5.7997,-7.0398,-7.1127,-7.1478,-7.1317,-7.1293,-7.0844,-6.9486,-6.9265,-6.8972,-6.8164,-6.7539,-6.7287,-6.7633,-6.7146,-6.6377,-6.5396,-6.5301,-6.4604,-6.289,-6.2034,-6.1227,-6.0456,-5.9391,-5.8584,-5.7997,-5.7997,-5.7997,-5.7997,-5.7997,-5.7997,-5.7997,-5.7997,-5.7997,-5.7997,-5.7997,-5.7997,-5.7997,-5.7997,-5.7997,-5.7997,-5.7997,-5.7997,-5.7997,-5.7997,-5.7997,-5.7997,-5.7997,-5.7997,-5.7997,-5.7997,-5.7997,-5.7997,-5.7997,-5.7997,-5.7997,-5.7997,-5.7997,-5.7997,-5.7997,-5.7997,-5.7997,-5.7997,-5.7997,-5.7997,-5.7997,-5.7997,-5.7997,-5.7997,-5.7997,-5.7997,-5.7997,-5.7997,-5.7997,-5.7997,-5.7997,-5.7997,-5.7997,-5.7997,-5.7997,-5.7997,-5.7997,-5.7997,-5.7997,-5.7997,-5.7997,-5.7997,-5.7997,-5.7997,-5.7997,-5.7997,-5.7997,-5.7997,-5.7997,-5.7997,-5.7997,-5.7997,-5.7997,-5.7997,-5.7997,-5.7997,-5.7997,-5.7997,-5.7997,-5.7997,-5.7997,-5.7997,-5.7997,-5.7997,-5.7997,-5.7997,-5.7997,-5.7997,-5.7997,-5.7997,-5.7997,-5.7997,-7.0229,-7.0568,-7.0342,-6.9808,-7.0029,-6.9763,-6.8159,-6.8192,-6.8129,-6.7303,-6.6736,-6.6582,-6.7146,-6.6736,-6.6084,-6.537,-6.4714,-6.3881,-6.2879,-6.2365,-6.1704,-6.0896,-6.0126,-5.9171,-5.8033,-5.7997,-5.7997,-5.7997,-5.7997,-5.7997,-5.7997,-5.7997,-5.7997,-5.7997,-5.7997,-5.7997,-5.7997,-5.7997,-5.7997,-5.7997,-5.7997,-5.7997,-5.7997,-5.7997,-5.7997,-5.7997,-5.7997,-5.7997,-5.7997,-5.7997,-5.7997,-5.7997,-5.7997,-5.7997,-5.7997,-5.7997,-5.7997,-5.7997,-5.7997,-5.7997,-5.7997,-5.7997,-5.7997,-5.7997,-5.7997,-5.7997,-5.7997,-5.7997,-5.7997,-5.7997,-5.7997,-5.7997,-5.7997,-5.7997,-5.7997,-5.7997,-5.7997,-5.7997,-5.7997,-5.7997,-5.7997,-5.7997,-5.7997,-5.7997,-5.7997,-5.7997,-5.7997,-5.7997,-5.7997,-5.7997,-5.7997,-5.7997,-5.7997,-5.7997,-5.7997,-5.7997,-5.7997,-5.7997,-5.7997,-5.7997,-5.7997,-5.7997,-5.7997,-5.7997,-5.7997,-5.7997,-5.7997,-5.7997,-5.7997,-5.7997,-5.7997,-5.7997,-5.7997,-5.7997,-5.7997,-5.7997,-6.9494,-6.9708,-6.9177,-6.7583,-6.8073,-6.8177,-6.6656,-6.7146,-6.7405,-6.6523,-6.6344,-6.6313,-6.6404,-6.6271,-6.5953,-6.5333,-6.3771,-6.278,-6.278,-6.278,-6.2438,-6.163,-6.0896,-5.9795,-5.8253,-5.807,-5.7997,-5.7997,-5.7997,-5.7997,-5.7997,-5.7997,-5.7997,-5.7997,-5.7997,-5.7997,-5.7997,-5.7997,-5.7997,-5.7997,-5.7997,-5.7997,-5.7997,-5.7997,-5.7997,-5.7997,-5.7997,-5.7997,-5.7997,-5.7997,-5.7997,-5.7997,-5.7997,-5.7997,-5.7997,-5.7997,-5.7997,-5.7997,-5.7997,-5.7997,-5.7997,-5.7997,-5.7997,-5.7997,-5.7997,-5.7997,-5.7997,-5.7997,-5.7997,-5.7997,-5.7997,-5.7997,-5.7997,-5.7997,-5.7997,-5.7997,-5.7997,-5.7997,-5.7997,-5.7997,-5.7997,-5.7997,-5.7997,-5.7997,-5.7997,-5.7997,-5.7997,-5.7997,-5.7997,-5.7997,-5.7997,-5.7997,-5.7997,-5.7997,-5.7997,-5.7997,-5.7997,-5.7997,-5.7997,-5.7997,-5.7997,-5.7997,-5.7997,-5.7997,-5.7997,-5.7997,-5.7997,-5.7997,-5.7997,-5.7997,-5.7997,-5.7997,-5.7997,-5.7997,-5.7997,-5.7997,-6.9494,-6.9708,-6.9177,-6.7583,-6.8073,-6.8177,-6.6656,-6.7146,-6.7405,-6.6523,-6.5779,-6.5586,-6.6344,-6.5176,-6.4644,-6.5244,-6.3771,-6.278,-6.278,-6.278,-6.2438,-6.163,-6.141,-6.086,-5.9905,-5.8621,-5.7997,-5.7997,-5.7997,-5.7997,-5.7997,-5.7997,-5.7997,-5.7997,-5.7997,-5.7997,-5.7997,-5.7997,-5.7997,-5.7997,-5.7997,-5.7997,-5.7997,-5.7997,-5.7997,-5.7997,-5.7997,-5.7997,-5.7997,-5.7997,-5.7997,-5.7997,-5.7997,-5.7997,-5.7997,-5.7997,-5.7997,-5.7997,-5.7997,-5.7997,-5.7997,-5.7997,-5.7997,-5.7997,-5.7997,-5.7997,-5.7997,-5.7997,-5.7997,-5.7997,-5.7997,-5.7997,-5.7997,-5.7997,-5.7997,-5.7997,-5.7997,-5.7997,-5.7997,-5.7997,-5.7997,-5.7997,-5.7997,-5.7997,-5.7997,-5.7997,-5.7997,-5.7997,-5.7997,-5.7997,-5.7997,-5.7997,-5.7997,-5.7997,-5.7997,-5.7997,-5.7997,-5.7997,-5.7997,-5.7997,-5.7997,-5.7997,-5.7997,-5.7997,-5.7997,-5.7997,-5.7997,-5.7997,-5.7997,-5.7997,-5.7997,-5.7997,-5.7997,-5.7997,-5.7997,-5.7997,-6.8798,-6.8331,-6.7551,-6.6773,-6.7085,-6.7075,-6.5927,-6.6487,-6.6612,-6.53,-6.4383,-6.4176,-6.4999,-6.4326,-6.4245,-6.5207,-6.4163,-6.3246,-6.2817,-6.3551,-6.3466,-6.2218,-6.2181,-6.1814,-6.1006,-5.9758,-5.8951,-5.8584,-5.818,-5.7997,-5.7997,-5.7997,-5.7997,-5.7997,-5.7997,-5.7997,-5.7997,-5.7997,-5.7997,-5.7997,-5.7997,-5.7997,-5.7997,-5.7997,-5.7997,-5.7997,-5.7997,-5.7997,-5.7997,-5.7997,-5.7997,-5.7997,-5.7997,-5.7997,-5.7997,-5.7997,-5.7997,-5.7997,-5.7997,-5.7997,-5.7997,-5.7997,-5.7997,-5.7997,-5.7997,-5.7997,-5.7997,-5.7997,-5.7997,-5.7997,-5.7997,-5.7997,-5.7997,-5.7997,-5.7997,-5.7997,-5.7997,-5.7997,-5.7997,-5.7997,-5.7997,-5.7997,-5.7997,-5.7997,-5.7997,-5.7997,-5.7997,-5.7997,-5.7997,-5.7997,-5.7997,-5.7997,-5.7997,-5.7997,-5.7997,-5.7997,-5.7997,-5.7997,-5.7997,-5.7997,-5.7997,-5.7997,-5.7997,-5.7997,-5.7997,-5.7997,-5.7997,-5.7997,-5.7997,-5.7997,-5.7997,-5.7997,-5.7997,-5.7997,-5.7997,-5.7997,-6.7792,-6.6655,-6.5542,-6.5688,-6.5789,-6.5649,-6.4907,-6.5554,-6.5558,-6.3935,-6.3165,-6.2991,-6.365,-6.3828,-6.4215,-6.4984,-6.4459,-6.3815,-6.3257,-6.442,-6.4494,-6.3099,-6.2879,-6.2511,-6.1814,-6.1006,-6.0162,-5.9184,-5.8547,-5.8143,-5.7997,-5.7997,-5.7997,-5.7997,-5.7997,-5.7997,-5.7997,-5.7997,-5.7997,-5.7997,-5.7997,-5.7997,-5.7997,-5.7997,-5.7997,-5.7997,-5.7997,-5.7997,-5.7997,-5.7997,-5.7997,-5.7997,-5.7997,-5.7997,-5.7997,-5.7997,-5.7997,-5.7997,-5.7997,-5.7997,-5.7997,-5.7997,-5.7997,-5.7997,-5.7997,-5.7997,-5.7997,-5.7997,-5.7997,-5.7997,-5.7997,-5.7997,-5.7997,-5.7997,-5.8107,-5.8143,-5.8033,-5.8107,-5.8143,-5.8033,-5.7997,-5.8033,-5.818,-5.8217,-5.8217,-5.8217,-5.8327,-5.829,-5.7997,-5.8143,-5.8143,-5.7997,-5.7997,-5.7997,-5.7997,-5.7997,-5.7997,-5.7997,-5.7997,-5.7997,-5.7997,-5.7997,-5.7997,-5.7997,-5.7997,-5.7997,-5.7997,-5.7997,-5.7997,-5.7997,-5.7997,-5.7997,-5.7997,-5.7997,-5.7997,-5.7997,-6.681,-6.5779,-6.4756,-6.4742,-6.4893,-6.4733,-6.4003,-6.4632,-6.4799,-6.3829,-6.3615,-6.3615,-6.3719,-6.3794,-6.3899,-6.4051,-6.3992,-6.4201,-6.4919,-6.453,-6.4163,-6.3906,-6.3209,-6.2743,-6.2658,-6.1851,-6.0713,-5.9184,-5.9074,-5.8694,-5.7997,-5.7997,-5.7997,-5.7997,-5.7997,-5.7997,-5.7997,-5.7997,-5.7997,-5.7997,-5.7997,-5.7997,-5.7997,-5.7997,-5.7997,-5.7997,-5.7997,-5.7997,-5.7997,-5.7997,-5.7997,-5.7997,-5.7997,-5.7997,-5.7997,-5.7997,-5.7997,-5.7997,-5.7997,-5.7997,-5.7997,-5.7997,-5.7997,-5.7997,-5.7997,-5.7997,-5.7997,-5.7997,-5.7997,-5.7997,-5.7997,-5.7997,-5.7997,-5.7997,-5.8584,-5.8804,-5.8107,-5.8621,-5.8804,-5.807,-5.7997,-5.8253,-5.8964,-5.9038,-5.9038,-5.9038,-5.9685,-5.9465,-5.807,-5.8657,-5.8731,-5.8033,-5.7997,-5.7997,-5.7997,-5.7997,-5.7997,-5.7997,-5.7997,-5.7997,-5.7997,-5.7997,-5.7997,-5.7997,-5.7997,-5.7997,-5.7997,-5.7997,-5.7997,-5.7997,-5.7997,-5.7997,-5.7997,-5.7997,-5.7997,-5.7997,-6.6102,-6.5019,-6.4131,-6.462,-6.439,-6.41,-6.3754,-6.4042,-6.3971,-6.3087,-6.2631,-6.2529,-6.2939,-6.3026,-6.3297,-6.3783,-6.3841,-6.4034,-6.4483,-6.5048,-6.5205,-6.4798,-6.442,-6.4016,-6.3539,-6.2695,-6.1704,-6.0529,-5.9625,-5.9001,-5.8657,-5.8217,-5.7997,-5.7997,-5.7997,-5.7997,-5.7997,-5.7997,-5.7997,-5.7997,-5.7997,-5.7997,-5.7997,-5.7997,-5.7997,-5.7997,-5.7997,-5.829,-5.8621,-5.8143,-5.829,-5.8584,-5.8143,-5.8327,-5.8694,-5.8694,-5.8988,-5.9355,-5.9355,-5.9355,-5.9355,-5.9355,-5.9355,-5.9355,-5.9355,-5.9355,-5.9098,-5.818,-5.7997,-5.7997,-5.7997,-5.7997,-5.8143,-5.8621,-5.8964,-5.9221,-5.9318,-5.9648,-5.9575,-5.8767,-5.8253,-5.8143,-5.851,-5.8547,-5.8547,-5.8547,-5.8877,-5.8951,-5.8694,-5.8584,-5.8584,-5.8694,-5.8217,-5.7997,-5.7997,-5.7997,-5.7997,-5.7997,-5.7997,-5.7997,-5.7997,-5.7997,-5.7997,-5.7997,-5.7997,-5.7997,-5.7997,-5.7997,-5.7997,-5.7997,-5.7997,-5.7997,-5.7997,-5.7997,-5.7997,-5.7997]},{"header":{"parameterUnit":"m.s-1","parameterCategory":1,"la1":30.6,"la2":28.766,"lo1":-90.7593,"lo2":-88.6598,"dy":0.0162,"dx":0.0183,"nx":116,"ny":114,"refTime":"2023-03-16T18:00:00:Z","depth":0,"parameterNumber":3,"parameterNumberName":"V-component_of_WINDS"},"data":[0.0,0.0,0.0,0.0,0.0,0.0,0.0,0.0,0.0,0.0,0.0,0.0,0.0,0.0,0.0,0.0,0.0,0.0,0.0,0.0,0.0,0.0,0.0,0.0,0.0,0.0,0.0,0.0,0.0,0.0,0.0,0.0,0.0,0.0,0.0,0.0,0.0,0.0,0.0,0.0,0.0,0.0,0.0,0.0,0.0,0.0,0.0,0.0,0.0,0.0,0.0,0.0,0.0,0.0,0.0,0.0,0.0,0.0,0.0,0.0,0.0,0.0,0.0,0.0,0.0,0.0,0.0,0.0,0.0,0.0,0.0,0.0,0.0,0.0,0.0,0.0,0.0,0.0,0.0,0.0,0.0,0.0,0.0,0.0,0.0,0.0,0.0,0.0,0.0,0.0,0.0,0.0,0.0,0.0,0.0,0.0,0.0,0.0,0.0,0.0,0.0,0.0,0.0,0.0,0.0,0.0,0.0,0.0,0.0,0.0,0.0,0.0,0.0,0.0,0.0,0.0,0.0,0.0,0.0,0.0,0.0,0.0,0.0,0.0,0.0,0.0,0.0,0.0,0.0,0.0,0.0,0.0,0.0,0.0,0.0,0.0,0.0,0.0,0.0,0.0,0.0,0.0,0.0,0.0,0.0,0.0,0.0,0.0,0.0,0.0,0.0,0.0,0.0,0.0,0.0,0.0,0.0,0.0,0.0,0.0,0.0,0.0,0.0,0.0,0.0,0.0,0.0,0.0,0.0,0.0,0.0,0.0,0.0,0.0,0.0,0.0,0.0,0.0,0.0,0.0,0.0,0.0,0.0,0.0,0.0,0.0,0.0,0.0,0.0,0.0,0.0,0.0,0.0,0.0,0.0,0.0,0.0,0.0,0.0,0.0,0.0,0.0,0.0,0.0,0.0,0.0,0.0,0.0,0.0,0.0,0.0,0.0,0.0,0.0,0.0,0.0,0.0,0.0,0.0,0.0,0.0,0.0,0.0,0.0,0.0,0.0,0.0,0.0,0.0,0.0,0.0,0.0,0.0,0.0,0.0,0.0,0.0,0.0,0.0,0.0,0.0,0.0,0.0,0.0,0.0,0.0,0.0,0.0,0.0,0.0,0.0,0.0,0.0,0.0,0.0,0.0,0.0,0.0,0.0,0.0,0.0,0.0,0.0,0.0,0.0,0.0,0.0,0.0,0.0,0.0,0.0,0.0,0.0,0.0,0.0,0.0,0.0,0.0,0.0,0.0,0.0,0.0,0.0,0.0,0.0,0.0,0.0,0.0,0.0,0.0,0.0,0.0,0.0,0.0,0.0,0.0,0.0,0.0,0.0,0.0,0.0,0.0,0.0,0.0,0.0,0.0,0.0,0.0,0.0,0.0,0.0,0.0,0.0,0.0,0.0,0.0,0.0,0.0,0.0,0.0,0.0,0.0,0.0,0.0,0.0,0.0,0.0,0.0,0.0,0.0,0.0,0.0,0.0,0.0,0.0,0.0,0.0,0.0,0.0,0.0,0.0,0.0,0.0,0.0,0.0,0.0,0.0,0.0,0.0,0.0,0.0,0.0,0.0,0.0,0.0,0.0,0.0,0.0,0.0,0.0,0.0,0.0,0.0,0.0,0.0,0.0,0.0,0.0,0.0,0.0,0.0,0.0,0.0,0.0,0.0,0.0,0.0,0.0,0.0,0.0,0.0,0.0,0.0,0.0,0.0,0.0,0.0,0.0,0.0,0.0,0.0,0.0,0.0,0.0,0.0,0.0,0.0,0.0,0.0,0.0,0.0,0.0,0.0,0.0,0.0,0.0,0.0,0.0,0.0,0.0,0.0,0.0,0.0,0.0,0.0,0.0,0.0,0.0,0.0,0.0,0.0,0.0,0.0,0.0,0.0,0.0,0.0,0.0,0.0,0.0,0.0,0.0,0.0,0.0,0.0,0.0,0.0,0.0,0.0,0.0,0.0,0.0,0.0,0.0,0.0,0.0,0.0,0.0,0.0,0.0,0.0,0.0,0.0,0.0,0.0,0.0,0.0,0.0,0.0,0.0,0.0,0.0,0.0,0.0,0.0,0.0,0.0,0.0,0.0,0.0,0.0,0.0,0.0,0.0,0.0,0.0,0.0,0.0,0.0,0.0,0.0,0.0,0.0,0.0,0.0,0.0,0.0,0.0,0.0,0.0,0.0,0.0,0.0,0.0,0.0,0.0,0.0,0.0,0.0,0.0,0.0,0.0,0.0,0.0,0.0,0.0,0.0,0.0,0.0,0.0,0.0,0.0,0.0,0.0,0.0,0.0,0.0,0.0,0.0,0.0,0.0,0.0,0.0,0.0,0.0,0.0,0.0,0.0,0.0,0.0,0.0,0.0,0.0,0.0,0.0,0.0,0.0,0.0,0.0,0.0,0.0,0.0,0.0,0.0,0.0,0.0,0.0,0.0,0.0,0.0,0.0,0.0,0.0,0.0,0.0,0.0,0.0,0.0,0.0,0.0,0.0,0.0,0.0,0.0,0.0,0.0,0.0,0.0,0.0,0.0,0.0,0.0,0.0,0.0,0.0,0.0,0.0,0.0,0.0,0.0,0.0,0.0,0.0,0.0,0.0,0.0,0.0,0.0,0.0,0.0,0.0,0.0,0.0,0.0,0.0,0.0,0.0,0.0,0.0,0.0,0.0,0.0,0.0,0.0,0.0,0.0,0.0,0.0,0.0,0.0,0.0,0.0,0.0,0.0,0.0,0.0,0.0,0.0,0.0,0.0,0.0,0.0,0.0,0.0,0.0,0.0,0.0,0.0,0.0,0.0,0.0,0.0,0.0,0.0,0.0,0.0,0.0,0.0,0.0,0.0,0.0,0.0,0.0,0.0,0.0,0.0,0.0,0.0,0.0,0.0,0.0,0.0,0.0,0.0,0.0,0.0,0.0,0.0,0.0,0.0,0.0,0.0,0.0,0.0,0.0,0.0,0.0,0.0,0.0,0.0,0.0,0.0,0.0,0.0,0.0,0.0,0.0,0.0,0.0,0.0,0.0,0.0,0.0,0.0,0.0,0.0,0.0,0.0,0.0,0.0,0.0,0.0,0.0,0.0,0.0,0.0,0.0,0.0,0.0,0.0,0.0,0.0,0.0,0.0,0.0,0.0,0.0,0.0,0.0,0.0,0.0,0.0,0.0,0.0,0.0,0.0,0.0,0.0,0.0,0.0,0.0,0.0,0.0,0.0,0.0,0.0,0.0,0.0,0.0,0.0,0.0,0.0,0.0,0.0,0.0,0.0,0.0,0.0,0.0,0.0,0.0,0.0,0.0,0.0,0.0,0.0,0.0,0.0,0.0,0.0,0.0,0.0,0.0,0.0,0.0,0.0,0.0,0.0,0.0,0.0,0.0,0.0,0.0,0.0,0.0,0.0,0.0,0.0,0.0,0.0,0.0,0.0,0.0,0.0,0.0,0.0,0.0,0.0,0.0,0.0,0.0,0.0,0.0,0.0,0.0,0.0,0.0,0.0,0.0,0.0,0.0,0.0,0.0,0.0,0.0,0.0,0.0,0.0,0.0,0.0,0.0,0.0,0.0,0.0,0.0,0.0,0.0,0.0,0.0,0.0,0.0,0.0,0.0,0.0,0.0,0.0,0.0,0.0,0.0,0.0,0.0,0.0,0.0,0.0,0.0,0.0,0.0,0.0,0.0,0.0,0.0,0.0,0.0,0.0,0.0,0.0,0.0,0.0,0.0,0.0,0.0,0.0,0.0,0.0,0.0,0.0,0.0,0.0,0.0,0.0,0.0,0.0,0.0,0.0,0.0,0.0,0.0,0.0,0.0,0.0,0.0,0.0,0.0,0.0,0.0,0.0,0.0,0.0,0.0,0.0,0.0,0.0,0.0,0.0,0.0,0.0,0.0,0.0,0.0,0.0,0.0,0.0,0.0,0.0,0.0,0.0,0.0,0.0,0.0,0.0,0.0,0.0,0.0,0.0,0.0,0.0,0.0,0.0,0.0,0.0,0.0,0.0,0.0,0.0,0.0,0.0,0.0,0.0,0.0,0.0,0.0,0.0,0.0,0.0,0.0,0.0,0.0,0.0,0.0,0.0,0.0,0.0,0.0,0.0,0.0,0.0,0.0,0.0,0.0,0.0,0.0,0.0,0.0,0.0,0.0,0.0,0.0,0.0,0.0,0.0,0.0,0.0,0.0,0.0,0.0,0.0,0.0,0.0,0.0,0.0,0.0,0.0,0.0,0.0,0.0,0.0,0.0,0.0,0.0,0.0,0.0,0.0,0.0,0.0,0.0,0.0,0.0,0.0,0.0,0.0,0.0,0.0,0.0,0.0,0.0,0.0,0.0,0.0,0.0,0.0,0.0,0.0,0.0,0.0,0.0,0.0,0.0,0.0,0.0,0.0,0.0,0.0,0.0,0.0,0.0,0.0,0.0,0.0,0.0,0.0,0.0,0.0,0.0,0.0,0.0,0.0,0.0,0.0,0.0,0.0,0.0,0.0,0.0,0.0,0.0,0.0,0.0,0.0,0.0,0.0,0.0,0.0,0.0,0.0,0.0,0.0,0.0,0.0,0.0,0.0,0.0,0.0,0.0,0.0,0.0,0.0,0.0,0.0,0.0,0.0,0.0,0.0,0.0,0.0,0.0,0.0,0.0,0.0,0.0,0.0,0.0,0.0,0.0,0.0,0.0,0.0,0.0,0.0,0.0,0.0,0.0,0.0,0.0,0.0,0.0,0.0,0.0,0.0,0.0,0.0,0.0,0.0,0.0,0.0,0.0,0.0,0.0,0.0,0.0,0.0,0.0,0.0,0.0,0.0,0.0,0.0,0.0,0.0,0.0,0.0,0.0,0.0,0.0,0.0,0.0,0.0,0.0,0.0,0.0,0.0,0.0,0.0,0.0,0.0,0.0,0.0,0.0,0.0,0.0,0.0,0.0,0.0,0.0,0.0,0.0,0.0,0.0,0.0,0.0,0.0,0.0,0.0,0.0,0.0,0.0,0.0,0.0,0.0,0.0,0.0,0.0,0.0,0.0,0.0,0.0,0.0,0.0,0.0,0.0,0.0,0.0,0.0,0.0,0.0,0.0,0.0,0.0,0.0,0.0,0.0,0.0,0.0,0.0,0.0,0.0,0.0,0.0,0.0,0.0,0.0,0.0,0.0,0.0,0.0,0.0,0.0,0.0,0.0,0.0,0.0,0.0,0.0,0.0,0.0,0.0,0.0,0.0,0.0,0.0,0.0,0.0,0.0,0.0,0.0,0.0,0.0,0.0,0.0,0.0,0.0,0.0,0.0,0.0,0.0,0.0,0.0,0.0,0.0,0.0,0.0,0.0,0.0,0.0,0.0,0.0,0.0,0.0,0.0,0.0,0.0,0.0,0.0,0.0,0.0,0.0,0.0,0.0,0.0,0.0,0.0,0.0,0.0,0.0,0.0,0.0,0.0,0.0,0.0,0.0,0.0,0.0,0.0,0.0,0.0,0.0,0.0,0.0,0.0,0.0,0.0,0.0,0.0,0.0,0.0,0.0,0.0,0.0,0.0,0.0,0.0,0.0,0.0,0.0,0.0,0.0,0.0,0.0,0.0,0.0,0.0,0.0,0.0,0.0,0.0,0.0,0.0,0.0,0.0,0.0,0.0,0.0,0.0,0.0,0.0,0.0,0.0,0.0,0.0,0.0,0.0,0.0,0.0,0.0,0.0,0.0,0.0,0.0,0.0,0.0,0.0,0.0,0.0,0.0,0.0,0.0,0.0,0.0,0.0,0.0,0.0,0.0,0.0,0.0,0.0,0.0,0.0,0.0,0.0,0.0,0.0,0.0,0.0,0.0,0.0,0.0,0.0,0.0,0.0,0.0,0.0,0.0,0.0,0.0,0.0,0.0,0.0,0.0,0.0,0.0,0.0,0.0,0.0,0.0,0.0,0.0,0.0,0.0,0.0,0.0,0.0,0.0,0.0,0.0,0.0,0.0,0.0,0.0,0.0,0.0,0.0,0.0,0.0,0.0,0.0,0.0,0.0,0.0,0.0,0.0,0.0,0.0,0.0,0.0,0.0,0.0,0.0,0.0,0.0,0.0,0.0,0.0,0.0,0.0,0.0,0.0,0.0,0.0,0.0,0.0,0.0,1.2898,1.1899,0.0,0.0,0.0,0.0,0.0,0.0,0.0,0.0,0.0,0.0,0.0,0.0,0.0,0.0,0.0,0.0,0.0,0.0,0.0,0.0,0.0,0.0,0.0,0.0,0.0,0.0,0.0,0.0,0.0,0.0,0.0,0.0,0.0,0.0,0.0,0.0,0.0,0.0,0.0,0.0,0.0,0.0,0.0,0.0,0.0,0.0,0.0,0.0,0.0,0.0,0.0,0.0,0.0,0.0,0.0,0.0,0.0,0.0,0.0,0.0,0.0,0.0,0.0,0.0,0.0,0.0,0.0,0.0,0.0,0.0,0.0,0.0,0.0,0.0,0.0,0.0,0.0,0.0,0.0,0.0,0.0,0.0,0.0,0.0,0.0,0.0,0.0,0.0,0.0,0.0,0.0,0.0,0.0,0.0,0.0,0.0,0.0,0.0,0.0,0.0,0.0,0.0,0.0,0.0,0.0,0.0,0.0,0.0,0.0,0.0,0.0,0.0,0.0,0.0,1.492,1.3615,0.0,0.0,0.0,0.0,0.0,0.0,0.0,0.0,0.0,0.0,0.0,0.0,0.0,0.0,0.0,0.0,0.0,0.0,0.0,0.0,0.0,0.0,0.0,0.0,1.7312,1.7312,1.576,0.0,0.0,0.0,0.0,0.0,0.0,0.0,0.0,0.0,0.0,0.0,0.0,0.0,0.0,0.0,0.0,0.0,0.0,0.0,0.0,0.0,0.0,0.0,0.0,0.0,0.0,0.0,0.0,0.0,0.0,0.0,0.0,0.0,0.0,0.0,0.0,0.0,0.0,0.0,0.0,0.0,0.0,0.0,0.0,0.0,0.0,0.0,0.0,0.0,0.0,0.0,0.0,0.0,0.0,0.0,0.0,0.0,0.0,0.0,0.0,0.0,0.0,0.0,0.0,0.0,0.0,0.0,0.0,0.0,0.0,0.0,0.0,0.0,0.0,0.0,0.0,0.0,0.0,0.0,0.0,0.0,2.0,2.0,1.9738,1.9973,1.9973,1.9615,1.6961,1.5557,1.5061,1.4787,0.0,0.0,0.0,0.0,0.0,0.0,0.0,0.0,0.0,0.0,0.0,0.0,0.0,0.0,0.0,0.0,0.0,0.0,0.0,0.0,0.0,1.8427,1.863,1.863,1.8381,1.8125,0.0,0.0,0.0,0.0,0.0,0.0,0.0,0.0,0.0,0.0,0.0,0.0,2.4011,2.4421,2.467,2.4659,2.2501,0.0,0.0,0.0,0.0,0.0,0.0,0.0,0.0,0.0,0.0,0.0,0.0,0.0,0.0,0.0,0.0,0.0,0.0,0.0,0.0,0.0,0.0,0.0,0.0,0.0,0.0,0.0,0.0,0.0,0.0,0.0,0.0,0.0,0.0,0.0,0.0,0.0,0.0,0.0,0.0,0.0,0.0,0.0,2.0227,2.0521,0.0,0.0,0.0,0.0,0.0,0.0,0.0,0.0,0.0,0.0,0.0,0.0,0.0,1.9706,1.9746,2.0494,2.0748,2.0508,2.1309,2.1416,2.0882,2.1189,2.136,2.1269,2.0898,0.0,1.688,1.7067,0.0,0.0,0.0,0.0,0.0,0.0,0.0,0.0,0.0,0.0,0.0,0.0,0.0,0.0,0.0,0.0,0.0,0.0,0.0,0.0,0.0,1.9325,1.984,2.0823,2.0019,1.9439,1.9405,0.0,0.0,0.0,0.0,0.0,0.0,0.0,0.0,0.0,2.2391,2.329,2.3666,2.3887,2.4238,2.468,2.401,2.3458,2.3,2.117,0.0,0.0,0.0,0.0,0.0,0.0,0.0,0.0,0.0,0.0,0.0,0.0,0.0,0.0,0.0,0.0,0.0,0.0,0.0,0.0,0.0,0.0,0.0,0.0,0.0,0.0,0.0,0.0,0.0,0.0,0.0,0.0,0.0,0.0,0.0,0.0,0.0,0.0,0.0,2.0134,2.0535,2.0655,2.0561,2.0347,0.0,0.0,0.0,0.0,0.0,0.0,0.0,0.0,0.0,2.0094,2.0388,2.0615,2.0788,2.1323,2.1537,2.1416,2.1804,2.1844,2.1603,2.1737,2.179,2.179,2.179,2.1016,1.9683,1.943,1.8856,1.7881,0.0,0.0,0.0,0.0,1.4966,1.5165,0.0,0.0,0.0,0.0,0.0,0.0,0.0,0.0,0.0,0.0,0.0,0.0,1.9724,2.0099,2.0829,2.2136,2.0847,2.0006,2.0187,1.8819,0.0,0.0,0.0,0.0,0.0,0.0,0.0,2.1841,2.3024,2.3457,2.3101,2.3198,2.3666,2.4434,2.5,2.5074,2.4699,2.3358,2.2132,0.0,0.0,0.0,0.0,0.0,0.0,0.0,0.0,0.0,0.0,0.0,0.0,0.0,0.0,0.0,0.0,0.0,0.0,0.0,0.0,0.0,0.0,0.0,0.0,0.0,0.0,0.0,0.0,0.0,0.0,0.0,0.0,0.0,0.0,0.0,0.0,0.0,0.0,2.0681,2.0989,2.0909,2.1029,2.0869,0.0,0.0,0.0,0.0,0.0,0.0,2.0681,2.0748,2.0895,2.1122,2.1403,2.163,2.1777,2.2058,2.2205,2.2205,2.2205,2.2205,2.2205,2.2205,2.2205,2.2205,2.2124,2.1937,2.1681,2.1029,2.0321,1.9442,1.8056,1.731,1.7077,1.7077,1.7077,1.7296,0.0,0.0,0.0,0.0,0.0,0.0,0.0,0.0,0.0,0.0,0.0,1.9006,1.9057,2.0468,2.1438,2.1556,2.0674,2.0202,2.0461,1.893,1.817,1.8437,0.0,0.0,0.0,0.0,0.0,2.1979,2.2739,2.312,2.3101,2.3574,2.3984,2.4453,2.5265,2.5358,2.4803,2.4681,2.3843,2.2589,0.0,0.0,0.0,0.0,0.0,0.0,0.0,0.0,0.0,0.0,0.0,0.0,0.0,0.0,0.0,0.0,0.0,0.0,0.0,0.0,0.0,0.0,0.0,0.0,0.0,0.0,0.0,0.0,0.0,0.0,0.0,0.0,0.0,0.0,0.0,0.0,0.0,0.0,0.0,2.1601,2.1991,0.0,0.0,0.0,0.0,2.0655,2.1226,2.1668,2.1884,2.2151,2.2311,2.2325,2.2619,2.2645,2.2378,2.2672,2.2819,2.2819,2.2819,2.2819,2.2819,2.2819,2.2819,2.2874,2.2525,2.2231,2.1911,2.1323,2.0735,2.016,1.9807,1.9455,1.9261,1.9261,1.9261,1.9301,0.0,0.0,0.0,0.0,0.0,0.0,0.0,0.0,0.0,1.3156,1.578,1.8404,2.0522,2.1559,2.2638,2.406,2.2731,2.1659,2.1299,1.997,1.8842,1.797,0.0,0.0,0.0,0.0,1.9574,2.0383,2.0654,2.0764,2.0809,2.1733,2.2564,2.3299,2.4688,2.5537,2.5844,2.611,2.5411,2.4053,2.3791,2.2704,0.0,0.0,0.0,0.0,0.0,0.0,0.0,0.0,0.0,0.0,0.0,0.0,0.0,0.0,0.0,0.0,0.0,0.0,0.0,0.0,0.0,0.0,0.0,0.0,0.0,0.0,0.0,0.0,0.0,0.0,0.0,0.0,0.0,0.0,0.0,0.0,0.0,2.2459,2.2926,0.0,2.2592,2.2352,2.2271,2.2378,2.2392,2.2673,2.3113,2.3046,2.3086,2.3287,2.3394,2.33,2.3006,2.3113,2.306,2.2928,2.2928,2.2928,2.2928,2.2928,2.2928,2.2832,2.2352,2.2084,2.1937,2.1349,2.0882,2.0508,2.0401,2.0187,1.992,1.992,1.992,1.9907,0.0,0.0,0.0,0.0,0.0,0.0,0.0,0.0,1.1566,1.2949,1.5251,1.7789,2.0313,2.1406,2.2715,2.4609,2.3123,2.1987,2.1842,2.0416,1.9079,0.0,1.8076,0.0,0.0,1.8326,1.8558,1.8902,1.9314,1.9497,1.9542,2.0296,2.1298,2.2488,2.389,2.5131,2.6211,2.6777,2.6717,2.6231,2.6149,2.5237,2.3963,0.0,0.0,0.0,0.0,0.0,0.0,0.0,0.0,0.0,0.0,0.0,0.0,0.0,0.0,0.0,0.0,0.0,0.0,0.0,0.0,0.0,0.0,0.0,0.0,0.0,0.0,0.0,0.0,0.0,0.0,0.0,0.0,0.0,0.0,2.1977,2.2792,2.2993,2.3728,2.4022,2.3527,2.346,2.35,2.3621,2.3621,2.3781,2.4195,2.4022,2.3968,2.4062,2.3968,2.3781,2.3474,2.3474,2.3327,2.302,2.302,2.2966,2.2928,2.2928,2.2928,2.2901,2.2245,2.1991,2.1937,2.1349,2.1002,2.0815,2.0815,2.0708,2.0521,2.0521,2.0521,2.0468,0.0,0.0,0.0,0.0,0.0,0.0,0.0,1.0131,1.1413,1.2591,1.504,1.7093,1.8242,1.9901,2.1443,2.2748,2.1511,2.1015,2.2018,2.0174,1.8925,0.0,0.0,0.0,1.6727,1.7532,1.7871,1.7606,1.8718,1.9298,1.9314,1.9343,2.0292,2.1923,2.284,2.41,2.5616,2.652,2.7733,2.8985,2.9497,2.884,2.7724,0.0,0.0,0.0,0.0,0.0,0.0,0.0,0.0,0.0,0.0,0.0,0.0,0.0,0.0,0.0,0.0,0.0,0.0,0.0,0.0,0.0,0.0,0.0,0.0,0.0,0.0,0.0,0.0,0.0,0.0,0.0,0.0,0.0,2.1708,2.2619,2.338,2.3394,2.4409,2.4783,2.3941,2.4356,2.4569,2.4302,2.4783,2.5104,2.5104,2.5104,2.4957,2.4676,2.4396,2.4102,2.3794,2.3794,2.3647,2.334,2.3327,2.3166,2.2873,2.2928,2.2928,2.2901,2.2245,2.1991,2.1937,2.1349,2.1109,2.1109,2.1109,2.1109,2.1109,2.1109,2.1096,2.1015,0.0,0.0,0.0,0.0,0.0,0.0,0.0,0.9265,0.996,1.1274,1.2723,1.4275,1.5871,1.7903,1.9494,2.0392,2.0297,2.0684,2.1725,2.0978,2.0229,0.0,0.0,0.0,1.7072,1.5942,1.5291,1.5215,1.4412,1.4506,1.5468,1.635,1.7648,1.9367,2.076,2.1762,2.2551,2.4299,2.5996,2.7663,2.8749,2.8961,2.8769,0.0,0.0,0.0,0.0,0.0,0.0,0.0,0.0,0.0,0.0,0.0,0.0,0.0,0.0,0.0,0.0,0.0,0.0,0.0,0.0,0.0,0.0,0.0,0.0,0.0,0.0,0.0,0.0,0.0,0.0,0.0,2.5773,2.451,2.3051,2.3674,2.4436,2.4863,2.5384,2.5785,2.5959,2.5745,2.5732,2.6079,2.5665,2.5491,2.5705,2.5518,2.5358,2.5277,2.5197,2.4903,2.4409,2.4396,2.4142,2.3647,2.3434,2.3287,2.3193,2.2966,2.2928,2.2901,2.2245,2.1991,2.1937,2.1349,2.1109,2.1109,2.1109,2.1109,2.1109,2.1109,2.0975,2.0775,0.0,0.0,0.0,0.0,0.0,0.0,0.0,0.8885,0.9344,1.0534,1.146,1.251,1.3909,1.536,1.6854,1.83,1.8587,1.9441,2.1362,2.1362,0.0,0.0,0.0,1.8496,1.7851,1.5582,1.4424,1.4424,1.2883,1.247,1.3209,1.4558,1.5994,1.7476,1.9262,2.0426,2.1197,2.2636,2.3901,2.5145,2.6493,2.8478,3.0773,3.1686,3.1971,3.1847,3.1184,3.0606,2.9829,2.7544,0.0,0.0,0.0,0.0,0.0,0.0,0.0,0.0,0.0,0.0,0.0,0.0,0.0,0.0,0.0,0.0,0.0,0.0,0.0,0.0,0.0,0.0,0.0,0.0,2.8542,2.6976,2.6251,2.5486,2.5224,2.5812,2.6146,2.6507,2.6961,2.6587,2.6453,2.68,2.6239,2.5959,2.6132,2.5865,2.5692,2.5692,2.5464,2.5224,2.501,2.4756,2.4462,2.4128,2.3834,2.3567,2.3313,2.314,2.2993,2.2901,2.2245,2.1991,2.1937,2.1349,2.1109,2.1109,0.0,0.0,0.0,0.0,2.1002,2.0828,0.0,0.0,0.0,0.0,0.0,0.0,0.0,0.8885,0.9214,1.0104,1.0536,1.1126,1.2048,1.2466,1.3678,1.6125,1.6325,1.7733,2.0966,2.1761,0.0,2.1075,2.004,1.932,1.887,1.6011,1.4463,1.444,1.2771,1.1996,1.2003,1.3572,1.4908,1.61,1.8103,1.9602,2.0634,2.1089,2.1512,2.1989,2.3151,2.7102,3.2354,3.2892,3.3169,3.3373,3.3713,3.3611,3.2825,3.0276,0.0,0.0,0.0,0.0,0.0,0.0,0.0,0.0,0.0,0.0,0.0,0.0,0.0,0.0,0.0,0.0,0.0,0.0,0.0,0.0,0.0,0.0,0.0,0.0,3.1152,2.9427,3.0463,2.7749,2.5905,2.6426,2.672,2.6987,2.7281,2.7041,2.6867,2.6867,2.6627,2.6453,2.6386,2.6172,0.0,0.0,0.0,2.5317,2.5504,2.4997,2.4703,2.4636,2.4342,2.3928,2.342,2.3354,2.318,2.2886,2.2258,2.1991,2.1937,2.1349,2.1109,2.1109,2.1109,2.1109,2.1109,2.1109,2.1109,2.1029,0.0,0.0,0.0,0.0,0.0,0.0,0.0,0.8885,0.8927,0.9004,0.8175,0.8005,0.9189,0.9227,0.997,1.19,1.3717,1.6585,2.09,0.0,2.4163,2.3598,2.2264,2.1043,1.9993,1.587,1.3572,1.3331,1.0619,0.9756,1.0802,1.2269,1.3638,1.493,1.6764,1.7829,1.8272,1.839,1.8874,1.9472,1.9434,2.2902,2.831,2.9835,3.2009,3.4308,3.4742,3.5541,3.6262,3.5399,3.3788,3.1814,2.969,0.0,0.0,0.0,0.0,0.0,0.0,0.0,0.0,0.0,0.0,0.0,0.0,0.0,0.0,0.0,0.0,0.0,0.0,0.0,0.0,3.7253,3.4474,3.2382,3.3318,2.9705,2.6974,2.7081,2.7148,2.7295,2.7589,2.7348,2.7175,2.7175,2.7121,2.6894,2.6413,2.656,2.6547,2.6319,2.6199,2.5932,2.5518,2.5398,2.5104,2.4636,2.4342,0.0,2.4022,2.3541,2.33,2.3193,2.2352,2.1991,2.1937,2.1349,2.1109,2.1109,2.1109,2.1109,2.1109,2.1109,2.1109,2.1056,0.0,0.0,0.0,0.0,0.0,0.0,0.0,0.8885,0.8831,0.873,0.7569,0.6972,0.744,0.7457,0.8018,0.9518,1.3768,1.7666,0.0,2.371,2.4936,2.3953,2.2962,2.1799,2.0414,1.5922,1.3529,1.3362,1.0224,0.899,0.9595,1.1151,1.2556,1.3806,1.5535,1.6449,1.6659,1.6705,1.6521,1.6139,1.5981,1.8577,2.2753,2.543,2.8962,3.256,3.3202,3.4486,3.5872,3.534,3.4367,3.3127,3.1659,2.9846,2.7894,0.0,0.0,0.0,0.0,0.0,0.0,0.0,0.0,0.0,0.0,0.0,0.0,0.0,0.0,3.332,0.0,0.0,3.7539,3.9277,3.6118,3.3681,3.4385,3.0624,2.7655,2.7495,2.7482,2.7602,2.7896,2.7655,2.7482,2.7482,2.7215,2.6974,2.6841,2.668,2.66,2.66,2.6319,2.6026,2.5732,2.5438,2.5144,2.485,2.4556,2.4342,2.4195,2.3754,2.3474,2.3273,2.2378,2.1991,2.1937,2.1349,2.1109,2.1109,2.1109,2.1109,2.1109,2.1109,2.1109,2.1042,0.0,0.0,0.0,0.0,0.0,0.0,0.0,0.0,0.8838,0.8771,0.7388,0.6471,0.6497,0.6339,0.7046,0.9048,1.4359,0.0,0.0,2.3706,2.4944,2.3925,2.3233,2.2161,2.0649,1.6133,1.3811,1.3714,1.0572,0.896,0.89,1.0437,1.1864,1.3169,1.4748,1.5592,1.5783,1.5441,1.45,1.3247,1.3032,1.4414,1.7068,2.0288,2.4881,2.9735,3.0463,3.2189,3.4019,3.3643,3.3461,3.3351,3.2674,3.1197,2.9499,2.841,2.626,0.0,0.0,0.0,0.0,0.0,0.0,0.0,0.0,0.0,2.679,3.0902,3.3029,3.4824,3.6914,3.793,3.8926,4.041,3.6938,3.4241,3.4618,3.091,2.814,2.7816,2.7789,2.7883,2.8207,2.7923,2.7762,2.7696,2.7308,2.7134,2.7255,2.6814,2.664,2.6814,2.6319,2.5985,2.5865,2.5398,2.5104,2.4997,2.4756,2.4489,2.4195,2.3901,2.3607,2.3273,2.2378,2.1924,2.1777,2.1309,2.1109,2.1109,2.1109,2.1109,2.1109,2.1109,2.1109,2.1029,0.0,0.0,0.0,0.0,0.0,0.0,0.0,0.0,0.0,0.8858,0.6482,0.5226,0.6379,0.5289,0.6534,1.17,0.0,0.0,2.146,2.345,2.4666,2.5163,2.4204,2.2823,2.1088,1.6639,1.4208,1.3891,1.0815,0.932,0.9364,1.0792,1.2167,1.3527,1.4987,1.5806,1.5983,1.4512,1.3308,1.2226,1.068,1.1024,1.2678,1.4667,2.0004,2.6623,2.7345,2.9573,3.22,3.2727,3.2742,3.2679,3.333,3.249,3.093,2.9094,0.0,2.5109,2.3167,2.1466,1.9955,1.8629,1.9461,2.0926,0.0,0.0,2.8558,3.1853,3.4827,3.7402,3.9199,3.9922,4.043,4.1016,3.7427,3.4618,3.4651,3.091,2.8221,2.8181,2.8181,2.8194,2.8221,2.8194,2.7989,2.7722,2.7883,2.7859,2.7295,2.7201,2.7068,2.6827,2.6507,2.6092,2.5571,2.5504,2.5197,2.469,2.4649,2.4489,2.4195,2.3901,2.3607,2.3273,2.2378,2.1697,2.1203,2.1136,2.1109,2.1109,2.1109,2.1109,2.1109,2.1109,2.1109,2.1029,0.0,0.0,0.0,0.0,0.0,0.0,0.0,0.0,0.0,0.0,0.6311,0.4738,0.5253,0.4655,0.6144,1.0906,0.0,0.0,1.8985,2.1601,2.2938,2.2808,2.2624,2.1752,2.0174,1.6356,1.4341,1.4181,1.0975,0.9381,0.9439,1.0004,1.0995,1.2382,1.3003,1.3401,1.3548,1.2855,1.1854,1.0651,0.9961,1.0621,1.2116,1.2937,1.6408,2.1176,2.3451,2.576,0.0,0.0,3.0084,3.047,3.1956,3.2018,3.1307,3.0272,2.8164,0.0,2.2802,2.1554,2.0574,0.0,1.9119,2.0285,2.1542,2.3999,2.7456,3.2327,3.5425,3.791,3.9883,4.0605,4.0957,0.0,3.8566,3.6121,3.4894,3.2052,2.9607,2.8389,2.8221,2.8221,2.8221,2.8221,2.8181,2.7963,2.7909,2.7776,2.7535,2.7188,2.6947,2.6827,2.6547,2.6186,2.5772,2.5598,2.5304,2.489,2.4716,2.4569,2.4436,2.3981,2.342,2.2766,2.2218,2.175,2.1349,2.1176,2.1109,2.1109,2.1109,2.1109,2.1109,2.1109,2.1109,2.1029,0.0,0.0,0.0,0.0,0.0,0.0,0.0,0.0,0.0,0.0,0.0,0.4526,0.4526,0.4347,0.588,0.0,0.0,0.0,0.0,1.9717,2.1148,2.1219,2.1529,2.1032,1.9658,1.6349,1.4657,1.4657,1.1268,0.9632,0.9632,0.9632,1.0362,1.1703,1.1653,1.1712,1.1837,1.1846,1.0976,0.968,0.9781,1.0504,1.1643,1.2142,1.4122,1.702,1.9886,2.2272,0.0,0.0,2.6871,2.7759,2.9316,3.0132,3.0504,3.0332,2.8295,2.5523,2.2629,0.0,0.0,1.851,1.8822,1.9645,1.9793,2.224,2.6012,3.1324,3.4809,3.7643,4.008,4.0879,4.1172,4.1172,3.9374,3.7162,3.4975,3.2792,3.0549,2.8365,2.8016,2.8016,2.8016,2.8181,2.8221,2.8221,2.7949,2.7789,2.7696,2.7215,2.6907,2.6827,2.6547,2.6253,2.6037,2.5665,2.5371,2.5077,2.4783,2.4556,2.4382,2.3781,2.3113,2.2405,2.2111,2.1817,2.1601,2.1229,2.1109,2.1109,2.1109,2.1109,2.1109,2.1109,2.1109,2.1042,0.0,0.0,0.0,0.0,0.0,0.0,0.0,0.0,0.0,0.0,0.0,0.0,0.0,0.0,0.0,0.0,0.0,0.0,0.0,1.8319,1.9626,2.1873,2.1991,2.1392,2.0201,1.6965,1.5278,1.5278,1.1933,1.0256,1.0256,1.0256,1.0977,1.2147,1.2026,1.2012,1.2003,1.1837,1.1038,0.9815,0.9822,0.991,1.0211,1.1687,1.3536,1.5546,1.7161,0.0,0.0,0.0,2.3368,2.4711,2.5292,2.6673,0.0,2.8555,2.725,0.0,0.0,0.0,2.0747,1.7315,1.8393,1.9353,1.5705,1.9631,2.4919,2.8265,3.2605,3.6718,3.9873,4.0879,4.1172,4.1172,3.9374,3.7162,3.4975,3.2792,3.0461,2.7985,2.7709,2.7709,0.0,2.7976,2.8221,2.8221,2.8221,2.8003,2.7709,2.7415,2.7121,2.6827,2.6547,2.6253,2.6037,2.5665,2.5371,2.5077,2.4783,2.4342,2.3781,2.3166,2.2712,2.2405,2.2111,2.1817,2.1601,2.1229,2.1109,2.1109,2.1109,2.1109,2.1109,2.1109,2.1109,2.1069,0.0,0.0,0.0,0.0,0.0,0.0,0.0,0.0,0.0,0.0,0.0,0.0,0.0,0.0,0.0,0.0,0.0,0.0,0.0,1.4669,1.6339,1.8416,1.8803,1.8703,1.8227,1.6284,1.4749,1.3573,1.1404,1.0283,1.0283,1.0283,1.0503,1.0944,1.0885,1.0864,1.0864,1.0805,1.0628,1.0249,0.999,1.0118,1.0531,1.0847,1.2665,1.5194,0.0,0.0,0.0,0.0,0.0,0.0,2.4318,0.0,0.0,2.7218,0.0,0.0,0.0,0.0,2.1334,1.8103,1.8145,1.8397,1.5786,1.8725,2.3248,2.7718,3.1555,3.5152,3.8631,3.959,3.9961,4.0273,4.0241,3.8803,3.5218,3.4083,3.2094,2.8137,2.7696,0.0,0.0,0.0,2.7936,2.8207,2.8221,2.8016,2.7709,2.7602,2.7321,2.6841,2.6734,2.644,2.6037,2.5665,2.5371,2.5077,2.4783,2.4329,2.3768,2.3554,2.3086,2.2405,2.2111,2.1817,2.1459,1.9991,1.9355,1.9291,1.8116,1.8372,1.9355,1.9355,2.0132,2.1069,0.0,0.0,0.0,0.0,0.0,0.0,0.0,0.0,0.0,0.0,0.0,0.0,0.0,0.0,0.0,0.0,0.0,0.0,0.0,0.0,1.3925,1.5928,1.6292,1.6436,1.6496,1.5064,1.3812,1.2767,1.1146,1.0385,1.0439,1.0439,1.0439,1.0432,1.0378,1.0358,1.0351,1.0304,1.0331,1.0392,1.0148,1.0193,1.0527,1.0229,1.1752,0.0,0.0,0.0,0.0,0.0,0.0,0.0,0.0,0.0,0.0,0.0,0.0,0.0,0.0,2.4188,2.2603,1.8798,1.815,1.7739,1.5089,1.7388,2.1279,2.5432,2.9552,3.3357,3.6538,3.8136,3.9082,3.9375,4.0156,3.9544,3.6137,3.4953,3.3079,2.9335,2.8179,2.7629,0.0,0.0,0.0,2.7963,2.7989,2.7896,2.7709,2.7602,2.7321,2.6841,2.672,2.6493,2.6119,2.5718,2.5317,2.4917,2.4623,2.3859,2.2801,2.3364,2.2819,2.1437,2.1833,2.1817,2.1459,1.9337,1.8512,1.832,1.656,1.6947,1.8512,1.8512,1.961,2.1082,0.0,0.0,0.0,0.0,0.0,0.0,0.0,0.0,0.0,0.0,0.0,0.0,0.0,0.0,0.0,0.0,0.0,0.0,0.0,0.0,0.0,1.4518,1.4542,1.4644,1.5013,1.3469,1.2651,1.2775,1.1241,1.0555,1.0697,1.0697,1.0697,1.069,1.0548,1.048,1.0473,1.0337,1.0283,1.0276,1.0051,1.0148,1.0256,0.9951,0.0,0.0,0.0,0.0,0.0,0.0,0.0,0.0,0.0,0.0,0.0,0.0,0.0,2.7878,2.7014,2.6171,2.4354,1.9398,1.8346,1.7521,1.3421,1.5701,1.9294,2.1604,2.6792,3.1608,0.0,0.0,3.8516,3.8535,3.9336,3.9299,3.7457,3.5333,3.3259,0.0,0.0,0.0,0.0,0.0,0.0,2.7682,2.7696,2.7696,2.7696,2.7442,2.7148,2.6827,2.656,2.64,2.6373,2.5785,2.5211,2.4649,2.4369,2.3011,2.0958,2.2461,2.1874,1.964,2.1222,2.1752,2.1445,1.9325,1.8436,1.818,1.6431,1.6754,1.8244,1.8308,1.9483,2.0982,0.0,0.0,0.0,0.0,0.0,0.0,0.0,0.0,0.0,0.0,0.0,0.0,0.0,0.0,0.0,0.0,0.0,0.0,0.0,0.0,0.0,0.0,0.0,0.0,0.0,0.0,0.0,0.0,0.0,1.0351,1.0392,1.0392,1.0392,1.0392,1.0351,1.0337,1.0331,1.0297,1.0344,1.0419,0.0,1.0202,1.0405,0.0,0.0,0.0,0.0,0.0,0.0,0.0,0.0,0.0,0.0,0.0,2.7505,0.0,0.0,2.8835,2.7716,2.7061,2.5272,1.9872,1.8577,1.7635,1.3443,1.5727,1.9247,2.0962,2.567,3.0167,0.0,0.0,0.0,3.8047,3.9648,0.0,3.5886,3.4842,0.0,2.9019,0.0,2.7615,2.7402,2.7308,0.0,2.7682,2.7696,2.7696,2.7696,2.7629,2.7348,2.6841,2.6747,2.6507,2.6079,2.5478,2.5117,2.4957,2.4663,2.3203,2.0886,2.1329,2.0728,1.9314,1.9723,2.0432,2.1089,1.9252,1.7731,1.6366,1.4623,1.4232,1.4744,1.6108,1.7667,1.9152,0.0,0.0,0.0,0.0,0.0,0.0,0.0,0.0,0.0,0.0,0.0,0.0,0.0,0.0,0.0,0.0,0.0,0.0,0.0,0.0,0.0,0.0,0.0,0.0,0.0,0.0,0.0,0.0,0.0,0.0,0.0,1.0181,1.0141,1.008,1.0148,1.0181,1.0181,1.0181,0.0,0.0,0.0,0.0,0.0,0.0,0.0,0.0,0.0,0.0,0.0,0.0,0.0,2.3668,2.4696,2.6619,2.8879,3.0587,0.0,3.0589,2.8793,2.8228,2.6641,2.0217,1.8663,1.7607,1.3337,1.5455,1.8479,1.921,2.3554,0.0,3.003,0.0,0.0,0.0,0.0,0.0,3.6226,3.4983,3.3111,0.0,2.8453,0.0,2.7752,2.7535,2.7575,2.7869,2.7776,2.7696,2.7696,2.7575,2.7295,2.6841,2.6694,2.6413,2.6037,2.5371,2.5077,2.5077,2.4783,2.3267,2.0958,2.1773,2.1114,1.9221,2.0099,2.0655,2.0982,1.9228,1.7474,1.5719,1.397,1.3774,1.4558,1.5524,1.7474,1.9546,0.0,0.0,0.0,0.0,0.0,0.0,0.0,0.0,0.0,0.0,0.0,0.0,0.0,0.0,0.0,0.0,0.0,0.0,0.0,0.0,0.0,0.0,0.0,0.0,0.0,0.0,0.0,0.0,0.0,0.0,0.0,0.0,0.0,0.0,0.0,0.0,0.0,0.0,0.0,0.0,0.0,0.0,0.0,0.0,0.0,0.0,0.0,0.0,0.0,0.0,2.1696,2.4523,2.5383,2.7723,3.0451,3.1893,3.2715,3.2518,2.98,2.9494,2.8089,2.0486,1.8613,1.752,1.3124,1.5015,1.7556,1.7238,0.0,2.5642,2.7456,3.0539,3.3632,3.6008,0.0,3.8669,3.7186,3.5305,3.3339,3.1197,2.937,2.8221,2.8221,2.7909,2.7843,2.8154,2.7843,2.7682,2.7642,2.7362,2.7068,2.6774,2.652,2.6266,2.609,2.5424,2.5144,2.513,2.4756,2.3241,2.0958,2.262,2.1868,1.9287,2.0908,2.1449,2.0982,1.9228,1.7474,1.5719,1.397,1.4101,1.5265,1.5719,1.7795,2.0195,0.0,0.0,0.0,0.0,0.0,0.0,0.0,0.0,0.0,0.0,0.5684,0.6043,0.0,0.0,0.0,0.0,0.0,0.0,0.0,0.0,0.0,0.0,0.0,0.0,0.0,0.0,0.0,0.0,0.0,0.0,0.0,0.0,0.0,0.0,0.0,0.0,0.0,0.0,0.0,0.0,0.0,0.0,0.0,0.0,0.0,0.0,0.0,0.0,0.0,0.0,1.9636,2.4055,2.561,2.7765,3.0211,3.2536,3.4023,3.4165,3.0548,3.0305,2.909,2.0832,1.8845,1.7731,1.3293,1.5108,0.0,0.0,2.1264,2.5186,2.5561,2.9343,3.2984,3.4729,0.0,0.0,0.0,0.0,3.3122,0.0,0.0,0.0,0.0,2.8181,0.0,2.7789,2.7722,2.7589,2.7348,2.7068,2.676,2.6466,2.6413,2.636,2.6319,2.5732,2.5438,2.5424,2.4649,2.3122,2.0886,2.103,2.0409,1.9221,1.9554,2.0185,2.0982,1.9228,1.7474,1.5719,1.397,1.261,1.196,1.4819,1.6302,1.6754,0.0,0.0,0.0,0.0,0.0,0.0,0.0,0.9225,0.8183,0.5089,0.6911,0.7546,0.5053,0.6291,0.0,0.0,0.0,0.0,0.0,0.0,0.0,0.0,0.0,0.0,0.0,0.0,0.0,0.0,0.0,0.0,0.0,0.0,0.0,0.0,0.0,0.0,0.0,0.0,0.0,0.0,0.0,0.0,0.0,0.0,0.0,0.0,0.0,0.0,0.0,0.0,1.7415,2.0093,2.3102,2.6734,3.0293,3.219,3.3964,3.4864,3.2506,3.1646,2.9902,2.3783,2.0649,1.8342,1.5703,0.0,0.0,0.0,2.0562,2.3415,2.458,0.0,0.0,0.0,0.0,0.0,0.0,0.0,0.0,0.0,0.0,0.0,0.0,2.8003,2.7856,2.7709,2.7415,2.7175,2.7041,2.676,2.6533,2.6386,2.6239,2.6239,2.6386,2.5651,2.5371,2.5504,2.4623,2.3602,2.243,2.2082,2.1578,2.0843,2.0843,2.0529,1.9963,1.91,1.7131,1.4558,1.4623,1.4166,1.3587,1.5265,1.6496,1.7012,0.0,0.0,0.0,0.0,0.0,0.0,0.0,0.9408,0.8473,0.5806,0.8143,0.8931,0.5866,0.7011,0.8484,0.0,0.0,0.0,0.0,0.0,0.0,0.0,0.0,0.0,0.0,0.0,0.0,0.0,0.0,0.0,0.0,0.0,0.0,0.0,0.0,0.0,0.0,0.0,0.0,0.0,0.0,0.0,0.0,0.0,0.0,0.0,0.0,0.0,0.0,0.0,1.5108,1.6035,1.9245,2.4107,2.9013,3.1312,3.3505,3.4812,3.3515,3.245,3.0623,2.6074,2.2425,1.9545,1.8093,1.7623,0.0,0.0,1.9915,2.1797,2.3666,0.0,2.6553,0.0,0.0,0.0,0.0,0.0,0.0,0.0,0.0,0.0,0.0,2.7936,0.0,2.7709,2.7148,2.6787,2.6734,2.6507,2.6386,2.6386,2.6172,2.6159,2.6386,2.5585,2.5291,2.5504,2.4556,2.3995,2.3754,2.3394,2.2926,2.2418,2.2418,2.1101,1.9036,1.8584,1.6409,1.3507,1.4828,1.5135,1.4884,1.5589,1.6496,1.7012,0.0,0.0,0.0,0.0,0.0,0.0,0.0,0.9496,0.9071,0.7564,0.903,0.9595,0.7751,0.9014,0.9982,0.0,0.0,0.0,0.0,0.0,0.0,0.0,0.0,0.0,0.0,0.0,0.0,0.0,0.0,0.0,0.0,0.0,0.0,0.0,0.0,0.0,0.0,0.0,0.0,0.0,0.0,0.0,0.0,0.0,0.0,0.0,0.0,0.0,0.0,0.0,0.0,1.4045,1.4472,1.8639,2.451,3.0018,0.0,0.0,3.1629,3.1919,3.115,2.4606,2.2949,2.2075,1.8685,0.0,0.0,1.8706,2.0143,2.1668,2.2187,2.386,2.5704,0.0,0.0,3.2225,0.0,0.0,0.0,0.0,0.0,0.0,0.0,2.8207,2.7989,2.7722,2.7148,2.6707,2.644,2.64,2.6386,2.6386,2.636,2.636,2.6386,2.5785,2.5491,2.5504,2.4356,2.3794,2.3754,2.3166,2.2726,2.2418,2.2418,2.1216,1.9029,1.7333,1.5376,1.3495,1.3524,1.2545,1.1571,1.4744,1.5005,1.3709,0.0,0.0,0.0,0.0,0.0,0.0,0.9462,0.9571,0.9128,0.7878,0.9297,0.9774,0.7998,0.9472,1.0385,0.0,0.0,0.0,0.0,0.0,0.0,0.0,0.0,0.0,0.0,0.0,0.0,1.1456,0.0,0.0,0.0,0.0,0.0,0.0,0.0,0.0,0.0,0.0,0.0,0.0,0.0,0.0,0.0,0.0,0.0,0.0,0.0,0.0,0.0,0.0,0.0,0.0,1.317,1.5972,0.0,0.0,2.9008,3.1542,3.143,3.1273,3.0447,2.7927,2.5018,2.2621,2.1897,0.0,1.9835,2.0027,2.0888,2.1708,2.1937,2.2665,2.3543,2.4537,2.6839,0.0,0.0,0.0,0.0,0.0,0.0,0.0,0.0,0.0,2.7682,2.7201,2.6947,2.6694,2.64,2.6386,2.6386,2.6386,2.6386,2.6306,2.6132,2.5718,2.5424,2.5237,2.4249,2.3768,2.3754,2.3209,2.2806,2.2617,2.15,1.9826,1.7727,1.5731,1.3772,1.2127,1.4116,1.3774,1.2545,1.5005,1.4819,1.3325,0.0,0.0,0.0,0.0,0.0,0.9033,0.9544,0.9646,0.9374,0.8663,0.9739,1.0097,0.8776,0.9858,1.0575,1.0145,0.0,0.0,0.0,0.0,0.0,0.0,0.0,0.0,0.0,0.0,1.4536,1.3394,1.3158,1.2346,0.0,0.0,0.0,0.0,0.0,0.0,0.0,0.0,0.0,0.0,0.0,0.0,0.0,0.0,0.0,0.0,0.0,0.0,0.0,0.0,0.0,0.0,0.0,0.0,0.0,0.0,2.6022,2.9228,3.0441,3.0361,2.9779,2.9479,2.6519,2.3791,0.0,0.0,2.0582,2.1159,2.147,2.1724,2.183,2.1991,2.2245,2.2659,0.0,2.5213,0.0,0.0,0.0,0.0,0.0,2.6787,2.7669,2.7802,2.7589,2.7001,2.6947,2.6787,2.6413,2.6386,2.6386,2.6386,2.6306,2.6159,2.6037,2.5571,2.5277,2.5064,2.4275,2.3848,2.3754,2.3233,2.2953,2.2859,2.1527,1.9462,1.6926,1.5406,1.3331,1.1328,1.4594,1.4493,1.28,1.507,1.4493,1.2545,0.0,0.0,0.0,0.0,0.0,0.0,0.9544,0.9727,0.9978,1.0432,1.0622,1.0717,1.0651,1.0717,1.0656,1.05,0.0,0.0,0.0,0.0,0.0,0.0,0.0,0.0,0.0,0.0,1.5696,1.5696,1.4059,1.3223,1.3037,1.1322,1.0412,0.0,0.0,0.0,0.0,0.0,0.0,0.0,0.0,0.0,0.0,0.0,0.0,0.0,0.0,0.0,0.0,0.0,0.0,0.0,0.0,0.0,0.0,0.0,2.4635,2.7055,2.8118,2.9118,2.9477,2.7744,2.6814,2.6066,0.0,0.0,2.2605,2.1802,2.1777,2.1897,2.1681,2.2031,2.2418,2.2418,2.3928,0.0,0.0,0.0,0.0,0.0,0.0,2.5879,2.6747,2.7629,2.798,2.7308,2.7268,2.7001,2.6426,2.6386,2.6386,2.6386,2.6106,2.6037,2.6037,2.5371,2.5077,2.5077,2.4476,2.4048,2.3754,2.346,2.3153,2.2928,2.2859,2.0686,1.7217,1.6899,1.4547,1.1537,1.4649,1.3774,1.1174,1.4614,1.3709,1.0717,0.0,0.0,0.0,0.0,0.0,0.0,0.0,0.949,0.968,1.0134,1.0324,1.046,1.0555,1.0656,1.0704,1.0649,0.0,0.0,0.0,0.0,0.0,0.0,0.0,0.0,0.0,0.0,1.7359,1.7359,1.5812,1.4456,1.3166,1.1425,1.0568,1.0426,0.0,0.0,0.0,0.0,0.0,0.0,0.0,0.0,0.0,0.0,0.0,0.0,0.0,0.0,0.0,0.0,0.0,0.0,0.0,0.0,0.0,0.0,0.0,0.0,2.5274,2.6065,2.6523,2.6141,2.5478,2.4743,2.4182,0.0,2.2124,2.1722,2.1695,2.1722,2.1641,2.1775,2.1951,2.2352,2.2711,0.0,0.0,0.0,0.0,0.0,2.6279,2.7201,0.0,2.806,2.806,2.7589,2.7562,2.7308,2.672,2.668,2.66,2.64,2.6106,2.5865,2.5651,2.5277,2.497,2.477,2.4182,2.3861,2.3754,2.3247,2.2953,2.2722,2.012,1.8299,1.7007,1.4164,1.2246,1.1406,1.3336,1.2742,1.0982,1.3259,1.2676,1.085,0.0,0.0,0.0,0.0,0.0,0.0,0.0,0.951,0.9666,0.9943,1.0181,1.0337,1.0473,1.0575,1.0656,1.0717,0.0,0.0,0.0,0.0,0.0,0.0,0.0,0.0,1.5237,1.7867,1.9285,1.9447,1.7863,1.6175,1.4415,1.2712,1.1437,1.0575,1.0575,0.0,0.0,0.0,0.0,0.0,0.0,0.0,1.0799,0.0,0.0,0.0,0.0,0.0,0.0,0.0,0.0,0.0,0.0,0.0,0.0,0.0,0.0,0.0,0.0,2.4462,2.501,2.5411,2.485,0.0,0.0,0.0,2.1897,2.1681,2.1614,2.1588,2.1403,2.1483,2.1735,2.2031,2.2031,0.0,0.0,0.0,0.0,0.0,0.0,0.0,2.7629,2.8033,2.8016,2.7722,2.7696,2.7442,2.6854,2.6827,2.664,2.6239,2.5945,2.5705,2.5518,2.5117,2.477,2.4476,2.4102,2.3821,2.3594,2.3207,2.2979,2.2791,2.0409,1.8508,0.0,1.4371,1.2452,1.1338,1.2746,1.2215,1.0916,1.2676,1.2215,1.085,0.0,0.0,0.0,0.0,0.0,0.0,0.0,0.0,0.9856,0.9936,1.0168,1.0331,1.046,1.0493,1.0568,1.0711,0.0,0.0,0.0,0.0,0.0,0.0,0.0,0.0,1.5696,1.9145,2.1115,2.1588,1.9788,1.808,1.6323,1.472,1.2811,1.0738,1.0738,1.0649,0.0,0.0,0.0,0.0,1.0778,1.0739,0.0,0.0,0.0,0.0,0.0,0.0,0.0,0.0,0.0,0.0,0.0,0.0,0.0,0.0,0.0,0.0,0.0,0.0,0.0,0.0,0.0,0.0,0.0,0.0,0.0,0.0,0.0,2.1443,2.1162,2.1336,2.1588,2.1614,0.0,0.0,0.0,2.3434,0.0,0.0,2.6172,2.6854,2.6854,2.7642,2.8114,2.7749,2.7709,2.7455,2.6881,2.6827,2.656,2.5999,2.5678,2.5504,2.5478,2.4917,2.4489,2.4209,2.4182,2.3875,2.3327,2.33,2.314,2.2859,2.2585,2.0479,1.7147,1.6646,1.436,1.1338,1.2629,1.2099,1.0916,1.2676,1.2215,1.0717,0.0,0.0,0.0,0.0,0.0,0.0,0.0,0.0,0.0,0.0,1.0046,1.029,1.0324,1.0534,1.0683,0.0,0.0,0.0,0.0,0.0,0.0,0.0,0.0,0.0,1.5706,1.7926,1.9775,2.1216,1.9441,1.7781,1.6125,1.445,1.2629,1.0826,1.0826,1.0812,0.0,0.0,0.0,0.0,1.0731,1.0744,0.0,0.0,0.0,0.0,1.0786,1.0819,0.0,0.0,0.0,0.0,0.0,0.0,0.0,0.0,2.0138,0.0,2.2325,0.0,2.3313,2.3447,2.3327,0.0,0.0,0.0,0.0,0.0,0.0,0.0,0.0,0.0,0.0,0.0,0.0,0.0,2.282,0.0,0.0,2.5972,2.672,2.7161,2.7161,2.7832,2.8194,2.8127,2.7829,2.7549,2.7175,2.6947,2.6653,2.6306,2.5785,2.5411,2.5184,2.4823,2.4489,2.4195,2.3981,2.3688,2.3313,2.3086,2.2926,2.2722,1.9843,1.8019,1.6947,1.3908,1.2095,1.1214,1.1368,1.1154,1.0916,1.2676,1.2215,1.0916,0.0,0.0,0.0,0.0,0.0,0.0,0.0,0.0,0.0,0.0,0.0,0.0,0.0,0.0,0.0,0.0,0.0,0.0,0.0,0.0,0.0,0.0,0.0,1.4754,1.5706,1.8308,2.0259,2.1309,2.0387,1.9143,1.7608,1.5827,1.4035,1.221,1.1203,1.0799,1.0717,1.0717,1.0758,1.0819,1.0751,0.0,0.0,0.0,0.0,0.0,1.0968,1.0907,0.0,1.0975,1.0948,1.1087,0.0,0.0,0.0,0.0,2.0038,2.179,2.179,2.2378,2.2928,2.2928,2.2752,2.2579,0.0,0.0,0.0,0.0,0.0,0.0,0.0,0.0,0.0,0.0,2.2493,0.0,0.0,0.0,2.5104,2.6253,2.6667,2.7081,2.7698,2.7829,2.7936,2.7936,2.7789,2.7509,2.7081,2.6907,2.656,2.5999,2.5678,2.5438,2.5277,2.485,2.4422,2.3995,2.3848,2.3541,2.3113,2.2939,2.2928,2.2722,1.9773,1.8019,1.6957,1.3957,1.2124,1.1151,1.1002,1.0786,1.0784,1.1762,1.2025,1.1894,0.0,0.0,0.0,0.0,0.0,0.0,0.0,0.0,0.0,0.0,0.0,0.0,0.0,0.0,0.0,0.0,0.0,0.0,0.0,0.0,0.0,0.0,0.0,1.5757,1.5757,1.9232,2.1229,2.1547,2.1601,2.0837,1.9354,1.7622,1.5602,1.3302,1.1569,1.0765,1.0717,1.0717,1.0799,1.0833,1.0772,0.0,0.0,0.0,0.0,0.0,0.0,0.0,0.0,1.1036,1.105,1.1212,1.2909,0.0,0.0,0.0,0.0,0.0,2.1668,2.2298,2.2914,2.282,2.2539,2.2271,0.0,0.0,0.0,0.0,0.0,0.0,0.0,2.2582,0.0,0.0,0.0,0.0,2.4345,2.4342,2.4877,2.6172,2.64,2.6827,2.7859,2.7722,2.7629,2.7629,2.7589,2.7348,2.6854,2.6734,2.6373,2.5665,2.5518,2.5464,2.5518,2.489,2.4302,2.3768,2.3728,2.3407,2.2928,2.2928,2.2928,2.2791,2.0569,1.8663,1.6977,1.4675,1.2697,1.1118,1.0995,1.0786,1.0717,1.0982,1.2025,1.3062,0.0,0.0,0.0,0.0,0.0,0.0,0.0,0.0,0.0,0.0,0.0,0.0,0.0,0.0,0.0,0.0,0.0,0.0,0.0,0.0,0.0,1.0683,1.3991,1.5863,1.5863,1.9331,2.1136,2.1176,2.143,2.0771,1.9221,1.7554,1.4922,1.1606,1.1241,1.0955,1.0717,1.0717,1.0731,1.0751,1.0731,0.0,0.0,0.0,0.0,0.0,0.0,0.0,0.0,1.0921,1.09,1.1191,1.2831,0.0,0.0,0.0,0.0,0.0,2.1857,2.2378,2.2807,2.2245,2.2084,2.1977,0.0,0.0,0.0,0.0,0.0,0.0,0.0,2.1565,2.1991,0.0,0.0,2.5157,0.0,0.0,2.5491,2.5972,2.6453,2.6734,2.6667,2.7068,2.7335,2.7335,2.7094,2.6921,2.6827,2.636,2.6146,2.6253,2.5531,2.5264,2.5504,2.469,2.4102,2.3768,2.3514,2.3207,2.2928,2.2928,2.2928,2.2709,1.906,1.731,1.6737,1.3181,1.1386,1.0914,1.0887,1.0786,1.085,1.2347,1.3062,1.3259,0.0,0.0,0.0,0.0,0.0,0.0,0.0,0.0,0.0,0.0,0.0,0.0,0.0,0.0,0.0,0.0,0.0,0.0,0.0,0.0,0.0,1.0717,1.4036,1.5913,1.5913,1.9355,2.1189,2.1349,2.1643,2.1608,2.115,1.8356,1.5546,1.2851,1.15,1.0846,1.0717,1.0717,1.0765,1.0846,0.0,0.0,0.0,0.0,0.0,0.0,0.0,0.0,0.0,0.0,1.1063,1.1173,1.1814,0.0,0.0,0.0,0.0,0.0,2.147,2.171,2.1884,2.1777,2.2111,2.2338,0.0,0.0,0.0,0.0,0.0,0.0,0.0,0.0,2.3738,2.5301,0.0,2.4288,2.4563,2.473,2.509,2.5865,2.6052,2.6306,2.6814,2.6961,2.7028,2.7028,2.6894,2.668,2.6373,2.6253,2.6039,2.5692,2.5438,2.5144,2.481,2.4249,2.3901,2.3768,2.3474,2.3166,2.2928,2.2928,2.2928,2.2709,1.874,1.6983,1.6688,1.2796,1.1617,1.221,1.1279,1.1383,1.2347,1.4036,1.4101,1.3587,0.0,0.0,0.0,0.0,0.0,0.0,0.0,0.0,0.0,0.0,0.0,0.0,0.0,0.0,0.0,0.0,0.0,0.0,0.0,0.0,1.0717,1.0717,1.3643,1.5459,1.5913,1.9417,2.1363,2.1722,2.2017,2.2283,2.2354,1.8908,1.6252,1.4275,1.1864,1.0785,1.0724,1.0758,1.0839,1.0887,0.0,0.0,0.0,0.0,0.0,0.0,0.0,0.0,0.0,0.0,0.0,0.0,0.0,0.0,0.0,1.5969,1.8384,2.1122,2.1189,2.1269,2.1363,2.1603,0.0,0.0,0.0,0.0,0.0,0.0,0.0,0.0,0.0,2.35,0.0,2.5761,2.4778,2.4167,2.4703,2.4703,2.497,2.5945,2.5852,2.6066,2.6974,2.6854,2.672,2.672,2.672,2.6533,2.6079,2.6132,2.5905,2.5304,2.5304,2.4983,2.4315,2.3955,2.3741,2.3661,2.3367,2.31,2.2928,2.2928,2.2887,2.2603,1.9061,1.7554,1.7219,1.3755,1.2998,1.3935,1.2618,1.2797,1.4101,1.5394,1.5329,1.4819,0.0,0.0,0.0,0.0,0.0,0.0,0.0,0.0,0.0,0.0,0.0,0.0,0.0,0.0,0.0,0.0,0.0,0.0,0.0,0.0,1.0717,1.0717,1.2479,1.4232,1.5848,1.9601,2.1735,2.1951,2.2525,2.2241,2.0971,1.8706,1.6471,1.4284,1.216,1.0975,1.0731,1.0806,1.0873,1.0894,1.109,0.0,0.0,0.0,0.0,0.0,0.0,0.0,0.0,0.0,0.0,0.0,0.0,0.0,1.6095,1.5919,1.8384,2.1162,2.1507,2.1724,2.1924,2.1951,2.159,0.0,2.1871,2.1764,0.0,2.1871,0.0,0.0,0.0,2.3326,2.416,2.3324,2.4734,2.587,2.5505,2.5665,2.5959,2.6319,2.6333,2.636,2.644,2.6426,2.6426,2.6426,2.6426,2.64,2.636,2.5865,2.5678,2.597,2.5117,2.4589,2.4609,2.4048,2.3634,2.3354,2.3046,2.2954,2.2928,2.2928,2.2712,2.2297,2.0166,1.9104,1.8661,1.6447,1.5629,1.5684,1.5619,1.5609,1.5719,1.5848,1.6818,1.7923,0.0,0.0,0.0,0.0,0.0,0.0,0.0,0.0,0.0,0.0,0.0,0.0,0.0,0.0,0.0,0.0,0.0,0.0,0.0,1.0636,1.0717,1.0717,1.2347,1.3587,1.4297,1.8032,2.0704,2.2258,2.322,2.3451,2.29,1.9326,1.7137,1.5989,1.2444,1.088,1.0799,1.0853,1.0988,1.1226,1.128,1.1212,0.0,0.0,0.0,0.0,0.0,0.0,0.0,0.0,1.0799,1.0867,1.0766,1.3244,1.6074,1.5919,1.8384,2.1136,2.1243,2.1496,2.1775,2.1775,2.155,0.0,0.0,2.2031,2.1857,2.1964,2.1815,0.0,0.0,0.0,2.317,2.3115,2.42,2.5015,2.5206,2.5491,2.5852,2.6333,2.6066,2.5919,2.6106,2.6119,2.6039,2.5865,2.6012,2.5959,2.5598,2.5531,2.5398,2.5144,2.4983,2.4649,2.4102,2.3875,2.3527,2.3033,2.2926,2.2928,2.2928,2.2928,2.2699,2.2271,2.0276,1.9267,1.8811,1.6785,1.656,1.7538,1.7538,1.6818,1.5913,1.5913,1.7012,1.8384,0.0,0.0,0.0,0.0,0.0,0.0,0.0,0.0,0.0,0.0,0.0,0.0,0.0,0.0,0.0,0.0,0.0,0.0,1.0493,1.0636,1.0717,1.0717,1.1828,1.2742,1.3325,1.6008,1.8864,2.1726,2.3456,2.4249,2.3976,2.032,1.8138,1.7054,1.3384,1.1475,1.1084,1.1036,1.1131,1.1321,1.1369,1.1301,0.0,0.0,0.0,0.0,0.0,0.0,0.0,0.0,1.0826,1.0799,1.0812,1.2805,1.5327,1.5769,1.7988,2.0399,2.0982,2.1256,2.1416,0.0,0.0,0.0,2.2151,2.2124,2.2004,2.2111,2.1897,2.1789,2.183,0.0,0.0,2.2939,2.3541,2.4168,2.485,2.5184,2.5558,2.6052,2.5758,2.5598,2.5798,2.5812,2.5732,2.5531,2.5705,2.5638,2.5237,2.5317,2.5197,2.4783,2.489,2.4556,2.3781,2.3768,2.346,2.2928,2.2928,2.2819,2.2726,2.2819,2.2592,2.2071,2.0813,2.0022,1.9548,1.8121,1.8244,1.9355,1.9355,1.8576,1.7409,1.6302,1.7012,1.8436,0.0,0.0,0.0,0.0,0.0,0.0,0.0,0.0,0.0,0.0,0.0,0.0,0.0,0.0,0.0,0.0,0.0,0.0,1.0487,1.0636,1.0717,1.0717,1.0717,1.1505,1.3259,1.3764,1.6118,2.0328,2.3156,2.4329,2.3754,2.1657,1.9453,1.7087,1.494,1.3035,1.1375,1.1295,1.1234,1.1248,1.1398,1.1371,1.1234,0.0,0.0,0.0,0.0,0.0,0.0,0.0,1.0779,1.0744,1.0833,1.2029,1.3643,1.5394,1.7141,1.8896,2.0652,2.1109,2.1109,0.0,0.0,0.0,2.1844,2.1977,2.2058,2.2352,2.2178,2.1897,2.1668,2.1614,2.1802,2.2311,2.2926,2.3621,2.4502,2.4951,2.5259,2.5554,2.5504,2.5504,2.5504,2.5504,2.5504,2.5504,2.5504,2.5504,2.5504,2.5237,2.5077,2.5077,2.4783,2.4356,2.3768,2.3768,2.346,2.2928,2.2928,2.2712,2.2432,2.2726,2.2445,2.1641,2.1857,2.1657,2.1109,2.1109,2.1109,2.1109,2.1109,2.1109,2.0652,1.7216,1.7012,1.8244,0.0,0.0,0.0,0.0,0.0,0.0,0.0,0.0,0.0,0.0,0.0,0.0,0.0,0.0,0.0,0.0,0.0,0.0,1.0351,1.0582,1.067,1.0561,1.0663,1.0965,1.1605,1.4767,1.7746,2.0462,2.2872,2.3714,2.3126,2.1262,1.9093,1.6714,1.5027,1.3827,1.3072,1.3017,1.3064,1.3183,1.3238,1.247,1.1314,0.0,0.0,0.0,0.0,0.0,0.0,0.0,0.0,0.0,1.0772,1.1931,1.3643,1.5394,1.7141,1.886,2.0404,2.0949,0.0,2.0855,0.0,0.0,0.0,2.1748,0.0,0.0,2.1737,2.159,2.1296,2.1243,2.1363,2.175,2.335,2.4868,2.5894,2.7357,2.865,2.9384,2.7984,2.701,2.7167,2.6012,2.5117,2.4903,2.509,2.5117,2.4903,2.481,2.4676,2.4476,2.4382,2.4048,2.346,2.346,2.326,2.2928,2.2928,2.2819,2.2726,2.2605,2.2298,2.1857,2.1802,2.1456,2.1109,2.1109,2.1109,2.1109,2.1109,2.1109,2.0843,1.8576,1.8052,1.8448,0.0,0.0,0.0,0.0,0.0,0.0,0.0,0.0,0.0,0.0,1.0745,0.0,0.0,0.0,0.0,0.0,0.0,0.0,0.0,1.0622,1.0677,1.0588,1.067,1.0819,1.1029,1.515,1.7875,1.8993,2.2089,2.322,2.2525,2.1816,2.02,1.7833,1.7398,1.6494,1.5241,1.5298,1.476,1.3905,1.3905,1.2882,1.1294,0.0,0.0,0.0,0.0,0.0,0.0,0.0,0.0,0.0,1.0717,1.1439,1.261,1.4362,1.6046,1.7701,1.9386,2.038,0.0,2.0869,2.1203,2.1614,2.1614,0.0,0.0,0.0,2.0629,2.0502,2.0323,2.0731,2.1203,2.1574,2.2809,2.4268,2.5897,2.723,2.8633,3.0408,2.8588,2.7358,2.7686,2.5992,2.4823,2.4649,2.4796,2.4823,2.4649,2.4636,2.4502,2.4209,2.4209,2.3928,2.334,2.3327,2.3113,2.2686,2.2686,2.2632,2.2512,2.2445,2.2138,2.163,2.1456,2.1269,2.1109,2.1109,2.1109,2.1109,2.1109,2.1109,2.0919,1.9152,1.8512,1.8384,0.0,0.0,0.0,0.0,0.0,0.0,0.0,0.0,0.0,0.0,1.0745,1.0717,0.0,0.0,0.0,0.0,0.0,0.0,0.0,0.0,1.0711,1.0704,1.0738,1.0887,1.1158,1.5018,1.6894,1.6775,2.1081,2.2766,2.1964,2.2859,2.1989,1.9843,2.0898,1.9994,1.7714,1.77,1.6244,1.3985,1.4002,1.2925,1.1234,1.1234,0.0,0.0,0.0,0.0,0.0,0.0,0.0,0.0,1.0717,1.0717,1.1049,1.2808,1.4346,1.5948,1.7896,0.0,0.0,2.1002,2.1309,0.0,2.1421,2.0207,1.9162,1.9283,0.0,1.8823,1.893,1.9977,2.0999,2.147,2.173,2.273,2.5293,2.5874,2.6999,2.9774,2.8302,2.7214,2.7632,2.5817,2.4609,2.4636,2.4636,2.4636,2.4636,2.4609,2.4462,2.4168,2.4142,2.3848,2.3287,2.326,2.2966,2.2418,2.2392,2.2231,2.1951,2.2218,2.1884,2.1109,2.1109,2.1109,2.1109,2.1109,2.1109,2.1109,2.1109,2.1109,2.0919,1.9355,1.864,1.8244,0.0,0.0,0.0,0.0,0.0,0.0,0.0,0.0,0.0,0.0,0.0,0.0,0.0,0.0,0.0,0.0,0.0,0.0,0.0,0.0,1.0663,1.0548,1.088,1.1097,1.1227,1.488,1.6664,1.6265,2.033,2.2058,2.1735,2.2552,2.1821,1.9644,2.0627,2.0284,1.9118,1.8948,1.758,1.5605,1.5769,1.4011,1.1234,1.1234,1.1077,0.0,0.0,0.0,0.0,0.0,0.0,0.0,1.0717,1.0717,1.1049,1.2808,1.4346,1.5917,0.0,1.945,0.0,0.0,2.1226,2.1227,1.989,1.8279,1.7324,1.8453,1.7805,1.7314,1.8436,1.8868,1.9507,2.0999,2.2589,2.4408,2.6616,2.8595,3.068,3.2918,3.0545,2.8793,2.9163,2.6257,2.4396,2.4549,2.4636,2.4636,2.4636,2.4422,2.4168,2.3875,2.3634,2.334,2.2966,2.2726,2.2552,2.2418,2.2191,2.1924,2.1708,2.1775,2.151,2.1109,2.1109,2.1109,2.1109,2.1109,2.1109,2.1109,2.1109,2.1109,2.1046,2.0652,1.9674,1.8436,0.0,0.0,0.0,0.0,0.0,0.0,0.0,0.0,0.0,0.0,0.0,0.0,0.0,0.0,0.0,0.0,0.0,0.0,0.0,0.0,0.0,1.0711,1.0934,1.109,1.1227,1.4692,1.6345,1.6125,1.9772,2.1496,2.1363,2.2245,2.2078,2.1014,2.1911,2.1753,2.0964,2.0826,1.8977,1.6208,1.6285,1.4196,1.1158,1.1084,1.0968,1.0826,1.0751,0.0,0.0,0.0,0.0,0.0,0.0,0.0,1.085,1.1762,1.3124,0.0,0.0,0.0,0.0,1.9734,0.0,2.0228,2.0228,1.8143,1.6381,1.7109,1.6004,1.54,1.698,1.7923,1.9088,2.0843,2.1977,2.3427,2.5518,2.76,2.9786,3.2354,3.1014,3.0221,3.0961,2.762,2.558,2.5977,2.5139,2.4569,2.4436,2.4289,2.4008,2.3567,2.3407,2.3113,2.2659,2.2498,2.2271,2.2004,2.1857,2.1617,2.1336,2.1336,2.1256,2.1109,2.1109,2.1109,2.1109,2.1109,2.1109,2.1109,2.1109,2.1109,2.1109,2.1109,2.0526,1.9483,0.0,0.0,0.0,0.0,0.0,0.0,0.0,0.0,0.0,0.0,0.0,0.0,0.0,0.0,0.0,0.0,0.0,0.0,0.0,0.0,0.0,0.0,1.088,1.1016,1.1227,1.4101,1.5793,1.6125,1.9157,2.0806,2.1203,2.2031,2.2445,2.2525,2.3273,2.3166,2.2405,2.2311,1.9984,1.6315,1.6175,1.4074,1.1077,1.0914,1.0786,1.0717,1.0717,0.0,1.0717,1.0717,0.0,0.0,0.0,0.0,1.0717,1.0717,0.0,0.0,0.0,0.0,0.0,0.0,0.0,0.0,1.9968,1.801,1.5834,1.5144,1.384,1.339,1.5135,1.6883,1.864,2.0399,2.0906,2.1809,2.3806,2.5516,2.7628,3.0311,3.0609,3.0965,3.2093,2.9184,2.724,2.7386,2.5963,2.4869,2.4222,2.4155,2.3888,2.334,2.322,2.2926,2.2418,2.2311,2.2031,2.1614,2.1561,2.1349,2.1109,2.1109,2.1109,2.1109,2.1109,2.1109,2.1109,2.1109,2.1109,2.1109,2.1109,2.1109,2.1109,2.1109,2.1109,2.0652,0.0,0.0,0.0,0.0,0.0,0.0,0.0,0.0,0.0,0.0,1.0738,0.0,0.0,0.0,0.0,0.0,0.0,0.0,0.0,0.0,0.0,1.0873,1.088,1.1016,1.1227,1.2962,1.4597,1.6125,1.7919,1.9799,2.1574,2.2124,2.2552,2.2806,2.2926,2.2766,2.2392,2.1884,1.9504,1.5949,1.6054,1.3984,1.0792,1.084,1.0786,1.0717,1.0717,0.0,1.0717,1.0717,1.0717,0.0,0.0,0.0,1.0717,1.0717,0.0,0.0,0.0,0.0,0.0,0.0,0.0,0.0,0.0,0.0,1.5356,0.0,1.124,1.1563,1.3325,1.507,1.6818,1.8576,2.0132,2.1677,2.3447,2.5357,2.7278,2.9115,2.9914,3.0401,3.084,2.9682,2.8344,2.7012,2.7038,2.63,2.4281,2.3968,2.3674,2.334,2.2819,2.2498,2.2418,2.1924,2.1695,2.1614,2.1296,2.1149,2.1109,2.1109,2.1109,2.1109,2.1109,2.1109,2.1109,2.1109,2.1109,2.1109,2.1109,2.1109,2.1109,2.1109,2.1109,2.0843,0.0,0.0,0.0,0.0,0.0,0.0,0.0,0.0,0.0,0.0,0.0,1.2257,0.0,0.0,0.0,0.0,0.0,0.0,0.0,0.0,0.0,1.0873,1.0799,1.0894,1.1036,1.2551,1.4235,1.6,1.7658,1.9714,2.2044,2.2298,2.2485,2.2619,2.2619,2.2445,0.0,2.155,1.9809,1.7348,1.6402,1.4508,1.2163,0.0,0.0,0.0,0.0,0.0,1.0717,1.0717,1.0717,1.0717,1.0717,0.0,0.0,0.0,0.0,0.0,0.0,0.0,0.0,0.0,0.0,0.0,0.0,0.0,1.5381,1.2692,1.1372,1.124,1.2997,1.3905,1.5005,1.6754,1.8383,1.9688,2.0427,2.2886,2.533,2.7236,2.8755,3.0244,3.2016,3.0835,2.9865,2.9641,2.7959,2.6379,2.5298,2.4131,2.3313,2.2832,2.2552,2.2258,2.1937,2.1748,2.1534,2.1296,2.1176,2.1109,2.1109,2.1109,2.1109,2.1109,2.1109,2.1109,2.1109,2.1109,2.1109,2.1109,2.1109,2.1109,2.1109,2.1109,2.1109,2.0856,0.0,0.0,0.0,0.0,0.0,0.0,0.0,0.0,0.0,0.0,0.0,0.0,0.0,0.0,0.0,0.0,0.0,0.0,0.0,0.0,0.0,1.082,1.0778,1.0772,1.082,1.1982,1.3639,1.5768,1.7118,1.9326,2.2311,2.2458,2.2619,2.2752,2.2686,2.2485,0.0,2.1577,2.0437,1.8855,1.7163,1.5219,0.0,0.0,0.0,0.0,0.0,1.0986,1.067,1.0711,1.0717,1.0717,1.0717,1.0697,0.0,0.0,0.0,0.0,0.0,0.0,0.0,0.0,0.0,0.0,0.0,0.0,1.4828,0.0,1.1659,1.1108,1.2413,1.2997,1.3692,1.5003,1.6456,1.7599,1.798,2.0542,2.3157,2.5198,2.7522,2.9923,3.2199,3.1769,3.1403,3.1715,2.8845,2.6755,2.6025,2.4261,2.3046,2.2432,2.2352,2.2071,2.1614,2.1547,2.1323,2.1109,2.1109,2.1109,2.1109,2.1109,2.1109,2.1109,2.1109,2.1109,2.1109,2.1109,2.1109,2.1109,2.1109,2.1109,2.1109,2.1109,2.1109,2.0919,0.0,0.0,0.0,0.0,0.0,0.0,0.0,0.0,0.0,0.0,0.0,0.0,1.3456,1.3193,1.2473,1.063,0.0,0.0,0.0,0.0,0.0,1.0731,1.0724,0.0,1.0731,1.0647,1.2226,1.5536,1.5727,1.7946,2.2017,2.2579,2.3153,2.3688,2.3407,2.3113,2.2779,0.0,0.0,1.9669,0.0,0.0,0.0,0.0,0.0,0.0,1.2178,1.1782,1.0527,1.067,1.0717,1.0717,1.0717,1.0622,0.0,0.0,0.0,0.0,0.0,0.0,0.0,0.0,0.0,0.0,0.0,0.0,1.3386,1.14,1.0819,1.0717,1.085,1.2215,1.3265,1.3272,1.4699,1.6328,1.7722,1.936,2.1148,2.3051,2.6465,2.895,2.9828,3.1891,3.2682,3.1319,2.9851,2.8184,2.6094,2.4261,2.3046,2.2432,2.2151,2.1857,2.1614,2.1269,2.1122,2.1109,2.1109,2.1109,2.1109,2.1109,2.1109,2.1109,2.1109,2.1109,2.1109,2.1109,2.1109,2.1109,2.1109,2.1109,2.1109,2.1109,2.1109,2.1109,0.0,0.0,0.0,0.0,0.0,0.0,0.0,0.0,0.0,0.0,0.0,0.0,0.0,1.397,1.2538,1.063,1.0493,0.0,0.0,0.0,0.0,1.0717,1.0717,1.0717,1.0717,1.0663,1.2319,1.5738,1.5792,1.7965,2.1991,2.2392,2.2699,2.2913,2.2993,2.2859,2.2525,2.175,0.0,2.0462,1.8792,0.0,0.0,0.0,1.3698,1.1894,1.2403,1.1655,1.0487,1.0453,1.0561,1.0704,1.0602,0.0,0.0,0.0,0.0,0.0,0.0,0.0,0.0,0.0,0.0,0.0,1.1382,1.2298,1.2963,1.1133,1.0758,1.0717,1.0717,1.1162,1.1518,1.1458,1.2653,1.3775,1.4317,1.6729,1.9103,2.0823,2.4352,2.7277,2.8847,3.1218,3.2525,3.2239,3.0988,2.9406,2.7496,2.5502,2.3736,2.2217,2.1857,2.1563,2.1269,2.1162,2.1109,2.1109,2.1109,2.1109,2.1109,2.1109,2.1109,2.1109,2.1109,2.1109,2.1109,2.1109,2.1109,2.1109,2.1109,2.1109,2.1109,2.1109,2.1109,2.1109,0.0,0.0,0.0,0.0,0.0,0.0,0.0,0.0,0.0,2.1309,0.0,0.0,0.0,0.0,1.3183,1.0695,1.0493,1.0534,1.0636,1.069,1.0717,1.0717,1.0717,1.0717,1.0717,1.067,1.2326,1.5738,1.5731,1.784,0.0,2.2031,2.2285,2.2565,2.2565,2.2632,0.0,0.0,2.1697,2.1565,1.9625,1.8553,1.8027,0.0,1.507,1.2821,1.3323,1.217,1.0405,1.031,1.0378,1.0487,0.0,0.0,0.0,0.0,0.0,0.0,0.0,0.0,0.0,0.0,0.0,0.0,1.1068,0.0,1.203,1.0971,1.0758,1.0717,1.0717,1.0595,1.0473,1.0426,1.1128,1.1813,1.2298,1.4691,1.7113,1.8839,2.2335,2.5456,2.7579,2.9957,3.1754,3.2754,3.1548,3.006,2.8295,2.6261,2.4123,2.1923,2.1563,2.1309,2.1109,2.1109,2.1109,2.1109,2.1109,2.1109,2.1109,2.1109,2.1109,2.1109,2.1109,2.1109,2.1109,2.1109,2.1109,2.1109,2.1109,2.1109,2.1046,2.0462,2.0589,2.1046,0.0,0.0,0.0,0.0,0.0,0.0,0.0,0.0,0.0,2.1695,0.0,0.0,0.0,0.0,0.0,1.0904,1.0565,1.0565,1.05,1.0636,1.0717,1.0717,0.0,0.0,1.0717,1.0575,1.2097,1.5409,1.5367,1.7433,2.1523,0.0,2.2043,2.2847,2.2231,2.2458,2.326,0.0,2.2887,2.274,2.0935,1.9468,1.8527,1.9711,1.7172,1.3277,1.509,1.3409,1.0333,1.0333,1.0175,1.0024,0.0,0.0,0.0,0.0,0.0,0.0,0.0,0.0,0.0,0.0,0.0,0.0,1.0766,0.0,1.0575,1.0813,1.0819,1.0717,1.0717,1.0602,1.0453,1.031,1.0276,1.0726,1.1966,1.3526,1.5217,1.7123,2.0452,2.353,2.5929,2.8281,3.055,3.2611,3.1593,3.0107,2.8295,2.618,2.3941,2.1692,2.1256,2.1109,2.1109,2.1109,2.1109,2.1109,2.1109,2.1109,2.1109,2.1109,2.1109,2.1109,2.1109,2.1109,2.1109,2.1109,2.1109,2.1109,2.1109,2.1109,2.0919,1.9152,1.9546,2.0779,0.0,0.0,0.0,0.0,0.0,0.0,0.0,0.0,2.2205,0.0,0.0,0.0,1.8728,1.7174,1.5346,1.3054,1.2921,1.2277,1.0729,1.0697,1.0717,1.0717,1.0717,1.0717,1.0717,1.0677,1.1694,1.3891,1.4964,1.6666,1.9108,2.0331,2.1042,0.0,2.1777,2.2004,2.2017,2.1724,0.0,2.1896,2.0922,2.0341,2.0045,1.9926,1.826,1.5899,1.6264,1.4429,1.1821,1.1693,1.1066,1.0358,1.0297,0.0,0.0,0.0,0.0,0.0,1.2095,0.0,0.0,0.0,0.0,0.0,0.0,0.0,1.0426,1.0724,1.0663,1.0588,1.0697,1.0683,1.0609,1.046,1.0256,1.0163,1.0451,1.1856,1.3485,1.5157,1.8492,2.1891,2.5084,2.7551,2.9846,3.2224,3.2281,3.1074,2.8344,2.4796,2.2339,2.1256,2.1149,2.1109,2.1109,2.1109,2.1109,2.1109,2.1109,2.1109,2.1109,2.1109,2.1109,2.1109,2.1109,2.1109,2.1109,2.1109,2.1109,2.1109,2.1109,2.1109,2.0919,1.9152,1.8832,1.9152,0.0,0.0,0.0,0.0,0.0,0.0,0.0,2.2712,2.2592,0.0,0.0,0.0,1.8959,1.8102,1.688,1.5063,1.4863,1.3984,1.1901,1.1762,1.1439,1.0717,1.0717,1.0717,1.0717,1.0717,1.1571,1.3325,1.4655,1.6255,1.8125,1.972,2.0494,2.0521,0.0,0.0,0.0,0.0,0.0,2.1561,2.0775,2.0561,2.0628,2.016,1.8826,1.7267,1.7233,1.5739,1.3598,1.2569,1.1325,1.0263,0.9992,0.0,0.0,0.0,0.0,0.0,0.0,0.0,0.0,0.0,0.0,0.0,1.0405,1.0331,1.0283,1.0643,1.0602,1.0541,1.069,1.0717,1.067,1.0514,1.0344,1.0181,1.0032,1.141,1.2717,1.3607,1.6763,1.9926,2.2698,2.5737,2.8559,3.0831,3.2134,3.1339,2.7977,2.4101,2.171,2.1122,2.1109,2.1109,2.1109,2.1109,2.1109,2.1109,2.1109,2.1109,2.1109,2.1109,2.1109,2.1109,2.1109,2.1109,2.1109,2.1109,2.1109,2.1109,2.1109,2.1109,2.0919,1.9152,1.8512,1.8512,0.0,0.0,0.0,0.0,0.0,0.0,0.0,0.0,2.314,0.0,2.2271,2.145,1.9693,1.9651,1.8986,1.6936,1.6761,1.5857,1.3726,1.3578,1.28,1.1049,1.0982,1.0916,1.0717,1.0717,1.1439,1.2997,1.4151,1.5794,1.7765,1.9157,1.9953,2.0147,0.0,0.0,0.0,0.0,2.0722,2.14,2.0548,2.0414,2.0641,2.0307,1.9165,1.7838,1.8021,1.7106,1.544,1.3064,1.1301,1.0122,0.9651,0.0,0.0,0.0,1.3555,0.0,0.0,0.0,0.0,0.0,1.1088,0.0,1.0351,1.0236,1.0105,1.0588,1.0548,1.0487,1.0643,1.0683,1.0643,1.0493,1.0493,1.046,1.0304,1.1522,1.2457,1.2423,1.5176,1.7767,1.972,2.3501,2.6762,2.9107,3.1138,3.0858,2.7487,2.3898,2.171,2.1122,2.1109,2.1109,2.1109,2.1082,2.1082,2.1109,2.1082,2.1082,2.1109,2.1082,2.1082,2.1109,2.1042,2.1042,2.1109,2.1069,2.1082,2.1109,2.1109,2.1109,2.0919,1.9152,1.8512,1.8512,0.0,0.0,0.0,0.0,0.0,0.0,0.0,0.0,2.3287,2.3166,2.2886,2.2697,2.2457,2.2314,2.1386,0.0,1.891,1.7873,1.5554,1.5394,1.4623,1.2865,1.2808,1.215,1.0717,1.0717,1.085,1.124,1.2506,1.3966,1.5618,1.6977,1.8319,1.9546,0.0,0.0,0.0,0.0,2.0548,2.0481,2.0247,2.0414,2.0615,2.0094,1.9555,1.905,1.9109,1.8121,1.6291,1.3335,1.2026,1.1451,1.0445,0.9937,0.0,1.2195,0.0,0.0,0.0,0.0,0.0,0.0,1.1088,0.0,1.0051,1.0031,1.0044,1.0324,1.0243,1.0181,1.0337,1.046,1.0487,1.0344,1.0521,1.0582,1.0317,1.0594,1.1206,1.2474,1.311,1.5197,1.9627,2.2112,2.5049,2.8992,2.9147,2.8561,2.7377,2.3898,2.171,2.1122,2.1109,2.1109,2.1109,2.0882,2.0882,2.1109,2.0869,2.0882,2.1096,2.0869,2.0895,2.1082,2.0615,2.0668,2.1096,2.0855,2.0895,2.1109,2.1109,2.1109,2.0919,1.9152,1.8512,1.8512,0.0,0.0,0.0,0.0,0.0,0.0,0.0,0.0,0.0,0.0,2.3407,2.326,2.3113,0.0,0.0,0.0,0.0,0.0,0.0,1.6366,1.5135,1.339,1.3325,1.2479,1.0717,1.0717,1.0717,1.0717,1.2825,1.426,1.506,1.7338,1.8641,1.9158,0.0,0.0,0.0,0.0,2.0187,2.0441,2.0294,2.0241,2.0187,1.9746,1.9492,1.943,1.943,1.8344,1.675,1.5269,1.4279,1.3295,1.1466,1.1683,1.2663,0.0,1.4641,1.5877,0.0,0.0,0.0,1.2872,1.1691,0.0,0.0,1.0046,0.9998,1.0236,1.0154,1.0038,1.0249,1.0337,1.0385,1.0385,1.0507,1.0582,1.0507,1.05,1.079,1.1532,1.2202,1.359,1.6032,1.949,2.3763,2.9079,2.8511,2.7668,2.7314,2.3898,2.171,2.1122,2.1109,2.1109,2.1109,2.0815,2.0815,2.1109,2.0815,2.0748,2.0895,2.0735,2.0668,2.0668,2.0521,2.0628,2.0895,2.0895,2.0975,2.1109,2.1109,2.1109,2.0982,2.0132,1.9228,1.864,0.0,0.0,0.0,0.0,0.0,0.0,0.0,0.0,0.0,0.0,0.0,0.0,0.0,0.0,0.0,0.0,0.0,0.0,0.0,1.7644,1.6046,1.4308,1.3953,1.2964,1.1155,1.0788,1.0663,1.0636,1.3256,1.4638,1.5,1.7889,1.9161,1.9025,0.0,0.0,0.0,0.0,0.0,2.0481,2.0241,2.004,1.984,1.9439,1.9279,1.9279,1.9269,1.8404,1.7312,1.7196,1.6526,1.5268,1.3013,1.3746,0.0,0.0,0.0,0.0,0.0,0.0,0.0,1.3981,1.3073,1.2439,0.0,0.0,0.0,1.021,1.0093,0.0,0.0,0.0,1.027,1.0385,1.0432,1.0507,1.0656,1.0677,1.0643,1.0548,1.1667,1.2426,1.2507,1.741,2.3177,2.9243,2.8379,2.747,2.7297,2.4222,2.21,2.1122,2.1109,2.1109,2.1109,2.0762,2.0735,2.1029,2.0681,2.0535,2.0588,2.0588,2.0494,2.0334,2.0508,2.0655,2.0775,2.0949,2.1056,2.1109,2.1109,2.1109,2.1109,2.1109,2.0195,1.9215,2.3781,2.3554,0.0,0.0,0.0,0.0,0.0,0.0,0.0,0.0,0.0,0.0,0.0,0.0,0.0,0.0,0.0,2.0988,2.1225,2.0561,1.9387,1.7656,1.6327,1.464,1.2526,1.1213,1.046,1.0331,1.1892,1.3444,1.4892,1.6533,1.8052,1.9305,1.9105,0.0,0.0,0.0,1.9573,1.9893,1.9867,1.9987,2.0094,1.9279,1.8971,1.8945,1.8677,1.8645,1.8485,1.7428,1.7009,1.6805,1.5608,1.5074,1.4982,1.5441,0.0,0.0,0.0,0.0,0.0,1.6974,1.5899,1.4408,1.2465,0.0,1.1701,1.0196,0.0,0.9849,0.0,0.0,0.0,1.0038,1.0215,1.0351,1.0493,1.0521,1.0561,1.0677,1.0706,1.1307,1.2739,1.7828,2.3491,2.9261,2.8443,2.7599,2.7297,2.5432,2.3286,2.1186,2.1109,2.1109,2.1109,2.0561,2.0428,2.0722,2.016,2.004,2.0281,2.0281,2.0414,2.0615,2.0388,2.0575,2.1042,2.0815,2.0882,2.1109,2.1109,2.1109,2.1109,2.1109,2.0982,2.0843,2.3474,2.3407,0.0,0.0,0.0,0.0,0.0,0.0,0.0,0.0,0.0,0.0,2.4035,2.3647,2.3126,0.0,2.0976,2.0462,2.1246,2.0157,0.0,1.8348,1.6765,1.5,1.2991,1.1349,1.0863,1.1712,1.3075,1.4619,1.6194,1.7693,1.8765,1.9359,1.9239,0.0,1.9305,0.0,1.9586,1.9559,1.9733,1.9867,1.9907,1.9199,1.8824,1.8677,1.8731,1.8824,1.8831,1.8295,1.8491,1.8621,1.6717,1.7107,0.0,1.6982,0.0,0.0,0.0,0.0,1.8566,1.6636,1.621,1.5576,1.2934,1.23,1.1833,1.0133,0.0,0.0,0.0,0.0,0.0,0.0,1.0249,1.0392,1.0371,1.0439,1.0548,1.0704,1.0663,1.1236,1.2861,1.6866,2.0953,2.4626,2.6163,2.6531,2.5518,2.4693,2.329,2.1186,2.1109,2.1029,2.0855,2.0441,2.0294,2.0414,2.0,1.9947,2.0167,2.0167,2.0294,2.0414,2.0468,2.0628,2.0855,2.0909,2.1002,2.1109,2.1109,2.1109,2.1109,2.1109,2.1109,2.1109,0.0,0.0,0.0,0.0,0.0,0.0,2.3901,2.4075,2.4128,2.4088,2.4195,2.4262,2.4209,2.3875,2.342,2.2846,2.1133,2.0492,2.1419,2.0067,1.9191,1.9118,1.7044,1.5203,1.3725,1.1577,1.1182,1.2628,1.4028,1.5587,1.7289,1.8718,1.947,1.9479,1.9399,1.9292,1.9185,0.0,1.9599,1.9492,1.9626,1.9639,1.9506,1.8998,1.8571,1.8263,1.8477,1.8664,1.8811,1.8905,1.9452,1.9773,1.8068,1.8894,2.0178,0.0,0.0,0.0,1.8925,1.9325,1.9512,1.7211,1.7274,1.7137,1.4287,1.3253,1.2466,1.0845,1.0224,0.0,0.0,0.0,0.0,0.0,0.0,1.0426,1.0405,1.0419,1.0487,1.0636,1.0697,1.1329,1.3001,1.5811,1.8572,2.1123,2.4096,2.5297,2.4169,2.4071,2.316,2.1186,2.1029,2.0895,2.0681,2.0307,2.0107,2.0107,1.9907,1.9907,2.012,2.0281,2.0361,2.0374,2.0668,2.0802,2.0815,2.1029,2.1109,2.1109,2.1109,2.1109,2.1109,2.1109,2.1109,2.1109,2.2873,2.2873,0.0,0.0,0.0,2.334,2.3354,2.3113,2.3126,2.3714,2.3541,2.3581,2.4142,2.3688,2.3447,2.3701,2.2659,2.2031,2.2365,2.1512,2.0913,2.0633,1.7607,1.5711,1.5266,1.1972,1.1021,1.2381,1.388,1.5558,1.7398,1.8777,1.9519,1.9773,1.9492,1.9519,1.976,1.9492,1.9533,1.976,1.9492,1.9212,1.8918,1.8624,1.813,1.7609,1.7622,1.8009,1.8544,1.8824,1.9319,1.9853,2.0047,1.9967,1.988,2.0073,0.0,0.0,2.0446,2.0655,2.0575,2.0172,2.0093,1.9499,1.7327,1.572,1.4244,1.2672,1.1213,1.0263,1.0263,0.0,0.0,0.0,0.0,0.0,0.0,1.0466,1.0337,1.048,1.0629,1.1365,1.3119,1.493,1.7429,2.0962,2.3121,2.4169,2.3852,2.4061,2.3223,2.1186,2.0842,2.0681,2.0681,2.0107,1.9813,1.9813,1.98,1.98,1.9826,2.0401,2.0655,2.0681,2.0962,2.1096,2.1096,2.1109,2.1109,2.1109,2.1109,2.1109,2.1109,2.1109,2.1109,2.1109,0.0,0.0,0.0,0.0,2.2779,2.2726,2.2726,2.2979,2.3313,2.3714,2.3848,2.4062,2.4449,2.4489,2.4289,2.3808,2.3394,2.2953,2.2445,2.2138,2.1764,2.1346,1.9176,1.7216,1.5605,1.3326,1.2298,1.2611,1.4009,1.5711,1.7535,1.8808,1.9626,2.0067,1.9786,1.9599,0.0,0.0,0.0,0.0,0.0,1.9305,1.9158,1.8677,1.8357,1.821,1.8397,1.8597,1.8824,1.9118,1.9479,1.9786,1.9693,1.9853,2.0067,1.9973,2.0147,2.0374,2.0374,2.0521,2.0601,2.0307,2.0094,1.9462,1.7685,1.686,1.5771,1.2987,1.222,1.1657,1.0531,0.0,0.0,0.0,0.0,0.0,0.0,1.0874,1.0215,1.0466,1.0534,1.083,1.1402,1.3969,1.6201,1.7438,2.1251,2.3021,2.209,2.3116,2.2943,2.1172,2.1015,2.0775,2.0388,2.0374,2.0187,1.98,2.0,2.0187,2.0388,2.0588,2.0775,2.0962,2.1069,2.1109,2.1109,2.1109,2.1109,2.1109,2.1109,2.1109,2.1109,2.1109,2.1109,2.1109,2.3046,0.0,0.0,2.2848,2.2539,2.2418,2.2418,2.2939,2.3474,2.3875,2.4182,2.4502,2.4903,2.5117,2.497,2.4289,2.4142,2.3701,2.2806,2.2632,2.2311,2.1802,2.0005,1.801,1.6015,1.4134,1.3054,1.2741,1.4294,1.5979,1.7804,1.9001,1.9773,2.0167,2.004,1.9733,1.947,1.9987,1.9786,0.0,0.0,1.943,1.939,1.8945,1.8744,1.8651,1.8744,1.8838,1.8958,1.9145,1.9399,1.9613,1.9426,1.9626,1.988,1.9706,1.992,2.0187,2.0107,2.0294,2.0468,2.0281,2.0174,1.9839,1.8674,1.7985,1.6886,1.4051,1.3276,1.2506,1.0678,0.0,0.0,0.0,0.0,0.0,0.0,1.1238,1.0202,1.0392,1.046,0.0,1.0568,1.3529,1.5486,1.5468,1.9658,2.1793,2.0851,2.204,2.2215,2.1109,2.1002,2.0722,2.018,2.0414,2.0281,1.98,2.0201,2.0494,2.0681,2.0788,2.0935,2.1109,2.1109,2.1109,2.1109,2.1109,2.1109,2.1109,2.1109,2.1109,2.1109,2.1109,2.1109,2.1109,2.3563,2.4653,2.4996,2.2996,2.2606,2.2553,2.2553,2.2995,2.3514,2.4102,2.4449,2.485,2.5411,2.5478,2.5371,2.5077,2.4796,2.4275,2.342,2.3086,2.2659,2.2058,2.0219,1.8345,1.6598,1.4612,1.3453,0.0,1.4782,1.6487,1.8148,1.9296,1.9973,2.0193,2.0193,0.0,1.9426,1.9987,1.9893,1.943,1.943,1.943,1.9444,1.943,1.9199,1.8931,1.8637,1.8718,1.8945,1.8945,1.9132,1.943,1.943,1.943,1.943,1.943,1.943,1.9452,1.9706,2.0,2.0227,2.0153,2.0428,2.0561,2.0294,1.9186,1.7725,1.597,1.4475,1.2865,1.0976,1.074,0.0,0.0,0.0,0.0,0.0,0.0,1.039,1.041,1.0456,0.0,0.0,1.3591,1.5352,1.5037,1.8531,2.0508,0.0,2.0788,2.1096,2.1082,2.0842,2.0548,2.0254,2.0267,2.0134,1.9853,2.0428,2.0695,2.0708,2.0989,2.1109,2.1109,2.1109,2.1109,2.1109,2.1109,2.1109,2.1109,2.1109,2.1109,2.1109,2.1109,2.1109,2.1109,2.677,2.7028,2.6953,2.6401,2.5287,2.4378,2.4378,2.3609,2.3193,2.3808,2.4329,2.469,2.485,2.5064,2.5064,2.4783,2.4676,2.4449,2.4008,2.3901,2.3487,2.2672,2.2146,2.0876,1.865,1.7928,1.6942,1.5795,0.0,0.0,1.8818,0.0,0.0,0.0,0.0,0.0,1.972,2.008,1.9893,1.943,1.943,1.9492,1.9666,1.9511,1.9452,1.9533,1.9252,1.9185,1.9252,1.9252,1.9305,1.943,1.943,1.943,1.943,1.943,1.9519,1.9653,1.9519,1.984,2.0127,1.996,1.9973,2.0067,2.0201,1.9916,1.921,1.7765,1.6202,1.4547,1.2914,1.2363,1.2753,0.0,0.0,0.0,0.0,0.0,1.1843,1.2171,1.0922,1.0181,1.067,1.3219,1.4968,1.5352,1.83,2.008,2.0167,2.0788,2.1015,2.0802,2.0922,2.0855,2.0561,2.0775,2.0735,2.0454,2.0828,2.1002,2.1002,2.1082,2.1109,2.1109,2.1109,2.1109,2.1109,2.1109,2.1109,2.1109,2.1109,2.1109,2.1109,2.1109,2.1109,2.1109,2.8142,2.8888,2.9535,3.0395,2.8477,2.6548,2.5606,2.409,2.3287,2.3888,2.4476,2.4783,2.4649,2.513,2.5291,2.4863,2.4823,2.4649,2.4235,2.4088,2.3728,2.3086,2.2806,2.1623,1.9421,1.9201,1.8226,1.642,0.0,0.0,1.8612,0.0,0.0,0.0,0.0,2.0227,1.9813,1.9973,1.9853,1.9546,1.947,1.9466,0.0,1.9484,1.9466,1.9586,1.9426,1.943,1.943,1.943,1.943,1.943,1.943,1.943,1.943,1.943,1.9479,1.9573,1.947,1.9693,2.0,1.984,1.9893,2.0067,2.0361,2.0428,2.0002,1.8557,1.7438,1.6034,1.3585,1.3543,1.4493,0.0,0.0,0.0,0.0,0.0,0.0,0.0,1.1337,1.0351,1.0683,1.2845,1.4471,1.5132,1.7973,1.9733,2.0027,2.0722,2.0975,2.0681,2.1082,2.1096,2.0681,2.1096,2.1096,2.0681,2.0975,2.1109,2.1109,2.1109,2.1109,2.1109,2.1109,2.1109,2.1109,2.1109,2.1109,2.1109,2.1109,2.1109,2.1109,2.1109,2.1109,2.1109,2.8839,3.0397,3.1983,3.3482,3.1025,2.8196,2.6442,2.468,2.3741,2.4249,2.4796,2.5024,2.473,2.5344,2.5585,2.5064,2.5024,2.4783,2.4235,2.3968,2.3674,2.334,2.2819,2.1693,1.9802,1.9633,1.8591,0.0,0.0,0.0,0.0,0.0,0.0,0.0,0.0,0.0,0.0,1.9746,1.972,1.9666,1.9452,1.943,1.943,1.943,1.943,1.943,1.943,1.943,1.943,1.943,1.943,1.943,1.943,1.943,1.943,1.943,1.943,1.943,1.943,1.9546,1.9746,1.9746,1.9933,2.0201,2.0494,2.0561,2.027,1.9042,1.8356,1.7099,1.4147,1.4726,1.6255,0.0,0.0,1.807,1.807,1.5289,0.0,0.0,1.1892,0.0,1.0656,1.2369,1.3937,1.4831,1.7518,1.9338,1.9786,2.0601,2.0922,2.0628,2.1212,2.1293,2.0802,2.1256,2.132,2.0788,2.1002,2.1109,2.1109,2.1109,2.1109,2.1109,2.1109,2.1109,2.1109,2.1109,2.1109,2.1109,2.1109,2.1109,2.1109,2.1109,2.1109,2.1109,3.102,3.1689,3.1981,3.1917,2.9124,2.6934,2.7075,2.5744,2.481,2.4917,2.5224,2.5331,2.5037,2.4917,2.4823,2.4716,2.4716,2.4569,2.4222,2.4155,2.3888,2.3354,2.322,2.2762,2.1869,2.1633,2.1332,2.0952,2.0734,2.0615,0.0,0.0,0.0,0.0,0.0,0.0,1.9439,1.9439,1.9305,1.9092,1.9292,1.943,1.943,1.943,1.943,1.943,1.943,1.943,1.943,1.943,1.943,1.943,1.943,1.943,1.943,1.943,1.943,1.943,1.943,1.9399,1.9439,1.9439,1.9479,1.9599,1.9893,1.996,2.0047,2.0257,1.8815,1.7474,1.7235,1.6999,1.742,1.8906,1.9135,1.9155,1.9155,1.7469,0.0,0.0,0.0,1.1487,1.0458,1.176,1.3421,1.5259,1.6949,1.8457,1.9754,2.0401,2.0615,2.0321,2.0655,2.1078,2.1467,2.1256,2.1256,2.1467,2.1203,2.1109,2.1109,2.1109,2.1109,2.1109,2.1109,2.1109,2.1109,2.1109,2.1109,2.1109,2.1109,2.1109,2.1109,2.1109,2.1109,2.1109,3.2388,3.328,3.3487,3.2458,3.0196,2.8423,2.785,2.6654,2.5545,2.493,2.5104,2.5117,2.4676,2.477,2.4863,2.4863,2.4583,2.4356,2.4209,2.3915,2.3621,2.334,2.318,2.2806,2.2205,2.2058,2.183,2.1537,2.1243,2.0949,2.0655,2.0508,0.0,0.0,0.0,1.98,0.0,1.9492,1.9372,1.9372,1.9372,1.943,1.943,1.943,1.943,1.943,1.943,1.943,1.943,1.943,1.943,1.943,1.943,1.943,1.943,1.943,1.943,1.943,1.943,1.943,1.943,1.943,1.943,1.9439,1.9733,1.992,2.0147,2.0588,1.9698,1.8882,1.8947,1.8191,1.8022,1.9391,1.9853,1.9987,1.984,1.8528,1.7242,0.0,0.0,0.0,1.1459,1.1415,1.2351,1.4679,1.6364,1.7886,1.9243,2.0187,2.0535,2.018,2.0668,2.1042,2.1323,2.1336,2.1336,2.1323,2.1176,2.1109,2.1109,2.1109,2.1109,2.1109,2.1109,2.1109,2.1109,2.1109,2.1109,2.1109,2.1109,2.1109,2.1109,2.1109,2.1109,2.1109,3.2736,3.3339,3.3436,3.2175,3.0595,2.9109,2.7847,2.6918,2.6039,2.505,2.5064,2.497,2.4449,2.4743,2.4983,2.4983,2.4502,2.4182,2.4115,2.3621,2.33,2.3233,2.2926,2.2525,2.1991,2.1924,2.1603,2.1015,2.1082,2.0775,2.0147,2.014,0.0,0.0,0.0,1.9613,1.984,1.9506,1.9466,1.9599,1.9439,1.943,1.943,1.943,1.943,1.943,1.943,1.943,1.943,1.943,1.943,1.943,1.943,1.943,1.943,1.943,1.943,1.943,1.943,1.943,1.943,1.943,1.943,1.9484,1.9653,1.988,2.0134,2.0428,2.0307,2.0054,1.976,1.8911,1.8578,1.9648,2.0187,2.0428,2.0254,1.9235,1.8282,0.0,0.0,0.0,1.2738,1.1292,1.158,1.4361,1.5825,1.7338,1.9097,2.0027,2.0414,2.0241,2.0748,2.1082,2.1203,2.1376,2.1376,2.1203,2.1136,2.1109,2.1109,2.1109,2.1109,2.1109,2.1109,2.1109,2.1109,2.1109,2.1109,2.1109,2.1109,2.1109,2.1109,2.1109,2.1109,2.1109,3.138,2.9776,2.87,2.8438,2.7029,2.5922,2.581,2.609,2.6253,2.5879,2.5625,2.5344,2.5037,2.481,2.4676,2.4676,2.4382,2.4088,2.3834,2.3514,2.3207,2.2926,2.2619,2.2311,2.1991,2.1724,2.1373,2.0722,2.0975,2.0668,1.984,2.0107,1.9773,1.8985,1.9519,1.9345,1.8691,1.9158,1.9225,1.9025,1.9265,1.943,1.943,1.943,1.943,1.943,1.943,1.943,1.943,1.943,1.943,1.943,1.943,1.943,1.943,1.943,1.943,1.943,1.943,1.943,1.943,1.943,1.943,1.943,1.9399,1.9484,1.9533,1.9826,1.9853,1.976,1.9466,1.9367,1.9402,1.976,1.9853,1.996,2.0201,2.0072,1.9389,1.781,0.0,0.0,1.382,1.1492,1.1704,1.5603,1.5449,1.6602,1.9926,1.996,1.9987,2.0167,2.0548,2.0975,2.1574,2.1269,2.1269,2.1574,2.1243,2.1109,2.1109,2.1109,2.1109,2.1109,2.1109,2.1109,2.1109,2.1109,2.1109,2.1109,2.1109,2.1109,2.1109,2.1109,2.1109,2.1109,3.0049,2.9801,2.9649,2.8612,2.7708,2.7278,2.7788,2.6997,2.6683,2.7469,2.6336,2.5331,2.4863,2.4703,2.4569,2.4396,2.4115,2.3821,2.3527,2.322,2.2913,2.2605,2.2485,2.2205,2.1802,2.1681,2.1333,2.0681,2.0962,2.0748,2.0054,2.0,1.9599,1.8931,1.9172,1.9172,1.9025,1.9078,1.9132,1.9199,1.9377,1.943,1.943,1.943,1.943,1.943,1.943,1.943,1.943,1.943,1.943,1.943,1.943,1.943,1.943,1.943,1.943,1.943,1.943,1.943,1.943,1.943,1.943,1.943,1.943,1.9506,1.9653,1.9773,1.98,1.9706,1.9426,1.9653,1.9867,1.9813,2.0241,2.0561,2.0508,2.0494,2.0117,1.9025,0.0,1.5803,1.5134,1.341,1.358,1.654,1.5835,1.6686,1.9794,1.9867,2.0013,2.0481,2.0267,2.0521,2.1283,2.1162,2.1162,2.1283,2.1162,2.1109,2.1109,2.1109,2.1109,2.1109,2.1109,2.1109,2.1109,2.1109,2.1109,2.1109,2.1109,2.1109,2.1109,2.1109,2.1109,2.1109,2.9169,2.9727,3.019,2.9198,2.8773,2.8773,2.9297,2.7684,2.6707,2.76,2.6406,2.5291,2.4703,2.4556,2.4462,2.4342,2.3901,2.3594,2.346,2.3086,2.2726,2.2432,2.2338,2.2058,2.1628,2.1534,2.1239,2.0681,2.0882,2.0681,2.0094,1.9813,1.9399,1.8931,1.9011,1.9118,1.9225,1.9105,1.9172,1.943,1.943,1.943,1.943,1.943,1.943,1.943,1.943,1.943,1.943,1.943,1.943,1.943,1.943,1.943,1.943,1.943,1.943,1.943,1.943,1.943,1.943,1.943,1.943,1.943,1.943,1.9533,1.9693,1.9786,1.98,1.976,1.9639,1.996,2.0187,2.008,2.0575,2.0935,2.0815,2.0735,2.0494,1.9987,1.8034,1.6643,1.6422,1.4966,1.4977,1.7241,1.65,1.7078,1.9801,1.984,2.0027,2.0535,2.0227,2.0401,2.1096,2.1109,2.1109,2.1109,2.1109,2.1109,2.1109,2.1109,2.1109,2.1109,2.1109,2.1109,2.1109,2.1109,2.1109,2.1109,2.1109,2.1109,2.1109,2.1109,2.1109,2.1109,2.9124,2.8879,2.9136,2.9374,2.9356,2.9356,2.9371,2.7684,2.6172,2.5585,2.5518,2.5291,2.4703,2.4382,2.4329,2.4609,2.3834,2.346,2.3741,2.3193,2.2726,2.2432,2.2151,2.1857,2.1628,2.1269,2.0975,2.0681,2.0681,2.0388,1.98,1.9506,1.9212,1.8931,1.9225,1.9199,1.8945,1.9239,1.9417,1.943,1.943,1.943,1.943,1.943,1.943,1.943,1.943,1.943,1.943,1.943,1.943,1.943,1.943,1.943,1.943,1.943,1.943,1.943,1.943,1.943,1.943,1.943,1.943,1.943,1.943,1.943,1.9452,1.9746,1.98,1.988,2.0113,2.0227,2.0334,2.0615,2.0681,2.0775,2.1069,2.0855,2.0561,2.0267,1.8541,1.7426,1.7569,1.5557,1.5273,1.7805,1.735,1.7921,2.0066,1.996,1.9933,2.0227,2.0521,2.0815,2.1109,2.1109,2.1109,2.1109,2.1109,2.1109,2.1109,2.1109,2.1109,2.1109,2.1109,2.1109,2.1109,2.1109,2.1109,2.1109,2.1109,2.1109,2.1109,2.1109,2.1109,2.1109,2.8423,2.7444,2.7273,2.737,2.7384,2.7841,2.9216,2.7515,2.6489,2.7496,2.6226,2.4997,2.4409,2.4262,2.4155,2.4062,2.3607,2.3273,2.3153,2.3035,2.2645,2.2151,2.2031,2.175,2.1256,2.1162,2.0962,2.0681,2.0869,2.0575,1.98,1.9907,1.9586,1.8931,1.9239,1.9319,1.9225,1.9332,1.943,1.943,1.943,1.943,1.943,1.943,1.943,1.943,1.943,1.943,1.943,1.943,1.943,1.943,1.943,1.943,1.943,1.943,1.943,1.943,1.943,1.943,1.943,1.943,1.943,1.943,1.943,1.943,1.9511,1.9733,1.98,1.9893,2.0174,2.0401,2.0561,2.0655,2.0842,2.0935,2.0828,2.0561,2.0187,1.9693,1.8782,1.8065,1.7916,1.7436,1.761,1.8861,1.909,1.9473,2.0167,1.9773,1.9826,2.0508,2.0241,2.0414,2.1096,2.1109,2.1109,2.1109,2.1109,2.1109,2.1109,2.1109,2.1109,2.1109,2.1109,2.1109,2.1109,2.1109,2.1109,2.1109,2.1109,2.1109,2.1109,2.1109,2.1109,2.1109,2.8948,2.7876,2.7541,2.7541,2.7541,2.7919,2.9216,2.7431,2.638,2.733,2.6067,2.4903,2.4422,2.4168,2.3968,2.3781,2.3394,2.3113,2.3046,2.2926,2.2645,2.2164,2.2044,2.1764,2.1283,2.1162,2.1015,2.0842,2.0909,2.0615,1.996,2.004,1.9773,1.9252,1.9332,1.943,1.943,1.943,1.943,1.943,1.943,1.943,1.943,1.943,1.943,1.943,1.943,1.943,1.943,1.943,1.943,1.943,1.943,1.943,1.943,1.943,1.943,1.943,1.943,1.943,1.943,1.943,1.943,1.9457,1.9506,1.9613,1.9773,2.0067,2.0134,2.0214,2.0508,2.0708,2.0842,2.0842,2.0989,2.1002,2.0722,2.0414,2.0054,1.9586,1.9105,1.8664,1.825,1.8584,1.8878,1.9025,1.9679,2.0067,2.0067,1.9933,2.0054,2.0494,2.0267,2.0441,2.1096,2.1109,2.1109,2.1109,2.1109,2.1109,2.1109,2.1109,2.1109,2.1109,2.1109,2.1109,2.1109,2.1109,2.1109,2.1109,2.1109,2.1109,2.1109,2.1109,2.1109,2.1109,3.0508,2.961,2.9216,2.9216,2.9201,2.9186,2.9186,2.7297,2.5798,2.5518,2.5224,2.493,2.4609,2.4102,2.3754,2.3714,2.3193,2.2979,2.3273,2.302,2.2726,2.2405,2.2124,2.1844,2.1601,2.1256,2.1109,2.1109,2.0842,2.0548,2.0254,1.996,1.9813,1.9786,1.9492,1.943,1.943,1.943,1.943,1.943,1.943,1.943,1.943,1.943,1.943,1.943,1.943,1.943,1.943,1.943,1.943,1.943,1.943,1.943,1.943,1.943,1.943,1.943,1.943,1.943,1.943,1.9399,1.9412,1.9492,1.9773,2.004,2.0321,2.0615,2.0681,2.0762,2.1056,2.1109,2.1109,2.1109,2.1109,2.1002,2.0695,2.0401,2.0107,1.9773,1.9533,1.9172,1.8611,1.9065,1.9185,1.8677,1.9386,1.984,1.9853,2.0401,2.0575,2.0267,2.0535,2.0815,2.1109,2.1109,2.1109,2.1109,2.1109,2.1109,2.1109,2.1109,2.1109,2.1109,2.1109,2.1109,2.1109,2.1109,2.1109,2.1109,2.1109,2.1109,2.1109,2.1109,2.1109,2.1109,3.0858,2.8604,2.7083,2.7083,2.6969,2.6818,2.6818,2.5995,2.5264,2.5197,2.493,2.4543,2.4035,2.3848,2.3581,2.3113,2.3008,2.2968,2.2966,2.2968,2.2632,2.2111,2.2017,2.175,2.1229,2.1149,2.1109,2.1109,2.1042,2.0855,2.0561,2.0267,2.0013,1.9786,1.9492,1.943,1.943,1.943,1.943,1.943,1.943,1.943,1.943,1.943,1.943,1.943,1.943,1.943,1.943,1.943,1.943,1.943,1.943,1.943,1.943,1.943,1.943,1.943,1.943,1.943,1.9426,1.9639,1.9867,2.004,2.0107,2.0127,2.0321,2.0615,2.0681,2.0762,2.1056,2.1109,2.1109,2.1109,2.1109,2.0922,2.0414,2.0281,1.996,1.9225,1.9466,1.9559,1.9199,1.9479,1.9826,2.0134,2.0147,2.0227,2.0454,2.0815,2.0869,2.0575,2.0641,2.0815,2.1109,2.1109,2.1109,2.1109,2.1109,2.1109,2.1109,2.1109,2.1109,2.1109,2.1109,2.1109,2.1109,2.1109,2.1109,2.1109,2.1109,2.1109,2.1109,2.1109,2.1109,2.1109,3.1921,2.8863,2.6386,2.6386,2.6146,2.6037,2.6037,2.5451,2.5077,2.5077,2.4823,2.4516,2.4195,2.3928,2.3634,2.33,2.3088,2.2928,2.2928,2.2739,2.2512,2.2205,2.1924,2.1643,2.1323,2.1176,2.1109,2.1109,2.1109,2.1029,2.0869,2.0428,2.0147,1.9987,1.9559,1.9497,1.9559,1.9426,1.9439,1.9559,1.9426,1.943,1.943,1.943,1.943,1.943,1.943,1.9452,1.9546,1.947,1.9452,1.9546,1.947,1.943,1.9399,1.9533,1.9559,1.9559,1.9559,1.9666,1.98,1.996,2.0214,2.0441,2.0441,2.0535,2.0681,2.0842,2.0869,2.0922,2.1082,2.1109,2.1109,2.1109,2.1002,2.0748,2.0294,2.012,1.9853,1.9386,1.9613,1.9786,1.976,2.0027,2.0281,2.0454,2.0575,2.0641,2.0681,2.0949,2.0975,2.0681,2.0802,2.0949,2.1109,2.1109,2.1109,2.1109,2.1109,2.1109,2.1109,2.1109,2.1109,2.1109,2.1109,2.1109,2.1109,2.1109,2.1109,2.1109,2.1109,2.1109,2.1109,2.1109,2.1109,2.1109,3.3188,2.9751,2.6768,2.6465,2.6106,2.5892,2.5892,2.5384,2.501,2.501,2.4796,2.4549,2.4569,2.4128,2.3794,2.3714,2.3233,2.2913,2.2928,2.2619,2.2445,2.2352,2.1884,2.1641,2.1547,2.1243,2.1109,2.1109,2.1109,2.1109,2.1096,2.0548,2.0294,2.0267,1.9693,1.9599,1.984,1.9559,1.9599,1.984,1.9599,1.9466,1.9439,1.9439,1.947,1.943,1.943,1.9533,1.9706,1.9506,1.9599,1.976,1.9559,1.9492,1.9546,1.9786,1.9893,1.992,1.988,2.008,2.0294,2.0294,2.0521,2.0735,2.0735,2.0935,2.1109,2.1109,2.1109,2.1109,2.1109,2.1109,2.1109,2.1109,2.0869,2.0575,2.0267,2.0013,1.9853,1.98,1.988,2.0027,2.0267,2.0535,2.0588,2.0374,2.0788,2.0949,2.0748,2.0975,2.1002,2.0748,2.0975,2.1109,2.1109,2.1109,2.1109,2.1109,2.1109,2.1109,2.1109,2.1109,2.1109,2.1109,2.1109,2.1109,2.1109,2.1109,2.1109,2.1109,2.1109,2.1109,2.1109,2.1109,2.1109,2.1109,3.3419,3.0825,2.8374,2.6689,2.5945,2.5585,2.5585,2.5077,2.4703,2.4703,2.4663,2.4543,2.4302,2.4195,2.3941,2.3434,2.3313,2.314,2.2886,2.2819,2.2579,2.2071,2.1964,2.1683,2.1189,2.1136,2.1109,2.1109,2.1109,2.1109,2.1096,2.0762,2.0601,2.0588,2.0,1.9893,2.0147,1.9853,1.9907,2.016,2.012,1.9947,1.9733,1.9733,1.9586,1.943,1.943,1.9457,1.9466,1.9666,1.976,1.984,2.004,2.0094,2.0107,2.0147,2.0347,2.0481,2.0227,2.0388,2.0601,2.0601,2.0828,2.1042,2.1042,2.1082,2.1109,2.1109,2.1109,2.1109,2.1109,2.1109,2.1109,2.1109,2.0869,2.0575,2.0267,2.0127,2.0067,1.9826,2.0241,2.0561,2.0601,2.0655,2.0762,2.0962,2.0828,2.0828,2.1029,2.1082,2.1082,2.1042,2.1082,2.1109,2.1109,2.1109,2.1109,2.1109,2.1109,2.1109,2.1109,2.1109,2.1109,2.1109,2.1109,2.1109,2.1109,2.1109,2.1109,2.1109,2.1109,2.1109,2.1109,2.1109,2.1109,2.1109,3.2983,3.0082,2.7462,2.6544,2.5905,2.5571,2.5732,2.5117,2.469,2.485,2.473,2.4583,2.4449,2.4302,2.4035,2.3607,2.342,2.3193,2.2954,2.2712,2.2432,2.2004,2.183,2.155,2.1122,2.1109,2.1109,2.1109,2.1109,2.1109,2.1096,2.0815,2.0681,2.0655,2.0227,2.0201,2.0454,2.016,2.0201,2.0454,2.0294,2.0147,2.004,2.004,1.9947,1.9826,1.9826,1.9933,2.0067,2.004,2.0134,2.0267,2.0241,2.0167,2.0267,2.0428,2.0575,2.0681,2.0695,2.0802,2.0909,2.0909,2.1015,2.1109,2.1109,2.1109,2.1109,2.1109,2.1109,2.1109,2.1109,2.1109,2.1109,2.1109,2.0735,2.0441,2.0468,2.0201,2.0067,2.0254,2.0508,2.0735,2.0895,2.0909,2.0962,2.1096,2.0989,2.0962,2.1096,2.1109,2.1109,2.1109,2.1109,2.1109,2.1109,2.1109,2.1109,2.1109,2.1109,2.1109,2.1109,2.1109,2.1109,2.1109,2.1109,2.1109,2.1109,2.1109,2.1109,2.1109,2.1109,2.1109,2.1109,2.1109,2.1109,2.1109,3.2581,2.9604,2.6925,2.6465,2.5959,2.5692,2.5919,2.5317,2.4903,2.5064,2.4877,2.4716,2.4649,2.4436,2.4155,2.3808,2.3567,2.3273,2.2886,2.2645,2.2365,2.2004,2.1643,2.1336,2.1109,2.1109,2.1109,2.1109,2.1109,2.1109,2.1109,2.0882,2.0775,2.0762,2.0468,2.0494,2.0762,2.0454,2.0508,2.0762,2.0535,2.0401,2.0334,2.0334,2.0294,2.0167,2.0167,2.0374,2.0548,2.0388,2.0494,2.0641,2.0481,2.0441,2.0481,2.0708,2.0775,2.0828,2.1042,2.1109,2.1109,2.1109,2.1109,2.1109,2.1109,2.1109,2.1109,2.1109,2.1109,2.1109,2.1109,2.1109,2.1109,2.1109,2.0681,2.0414,2.0641,2.0294,2.0174,2.0615,2.0735,2.0869,2.1082,2.1109,2.1109,2.1109,2.1109,2.1109,2.1109,2.1109,2.1109,2.1109,2.1109,2.1109,2.1109,2.1109,2.1109,2.1109,2.1109,2.1109,2.1109,2.1109,2.1109,2.1109,2.1109,2.1109,2.1109,2.1109,2.1109,2.1109,2.1109,2.1109,2.1109,2.1109,2.1109,2.1109,3.2885,3.0746,2.8608,2.6702,2.6132,2.601,2.6037,2.5665,2.5358,2.5117,2.5064,2.4943,2.4663,2.4549,2.4382,2.3821,2.3754,2.3487,2.2968,2.2914,2.2579,2.2017,2.1443,2.1136,2.1109,2.1109,2.1109,2.1109,2.1109,2.1109,2.1109,2.1082,2.1082,2.1069,2.0775,2.0802,2.1056,2.0762,2.0815,2.1082,2.1056,2.0882,2.0641,2.0641,2.0468,2.0167,2.0167,2.0254,2.0307,2.0561,2.0655,2.0722,2.0962,2.1042,2.1042,2.1069,2.1082,2.1082,2.1096,2.1109,2.1109,2.1109,2.1109,2.1109,2.1109,2.1109,2.1109,2.1109,2.1109,2.1109,2.1109,2.1109,2.1109,2.1109,2.0842,2.0655,2.0668,2.0641,2.0628,2.0668,2.0909,2.1082,2.1109,2.1109,2.1109,2.1109,2.1109,2.1109,2.1109,2.1109,2.1109,2.1109,2.1109,2.1109,2.1109,2.1109,2.1109,2.1109,2.1109,2.1109,2.1109,2.1109,2.1109,2.1109,2.1109,2.1109,2.1109,2.1109,2.1109,2.1109,2.1109,2.1109,2.1109,2.1109,2.1109,2.1109,3.2868,3.0823,2.8764,2.6768,2.6146,2.6037,2.6037,2.5545,2.5211,2.509,2.4917,2.4756,2.4649,2.4636,2.4396,2.3821,2.3768,2.3514,2.2968,2.2928,2.2605,2.2017,2.1416,2.1109,2.1109,2.1109,2.1109,2.1109,2.1109,2.1109,2.1109,2.1109,2.1109,2.1109,2.0989,2.1002,2.1096,2.0989,2.1002,2.1109,2.1109,2.1042,2.0949,2.0949,2.0869,2.0775,2.0775,2.0775,2.0802,2.0909,2.0949,2.0962,2.1069,2.1109,2.1109,2.1109,2.1109,2.1109,2.1109,2.1109,2.1109,2.1109,2.1109,2.1109,2.1109,2.1109,2.1109,2.1109,2.1109,2.1109,2.1109,2.1109,2.1109,2.1109,2.0869,2.0735,2.0922,2.0788,2.0748,2.0922,2.1042,2.1109,2.1109,2.1109,2.1109,2.1109,2.1109,2.1109,2.1109,2.1109,2.1109,2.1109,2.1109,2.1109,2.1109,2.1109,2.1109,2.1109,2.1109,2.1109,2.1109,2.1109,2.1109,2.1109,2.1109,2.1109,2.1109,2.1109,2.1109,2.1109,2.1109,2.1109,2.1109,2.1109,2.1109,2.1109,3.2792,3.0284,2.7969,2.6502,2.6092,2.5919,2.5825,2.5478,2.5184,2.509,2.4903,2.4743,2.4649,2.4636,2.4396,2.3821,2.3768,2.3514,2.2968,2.2779,2.2498,2.2004,2.1416,2.1109,2.1109,2.1109,2.1109,2.1109,2.1109,2.1109,2.1109,2.1109,2.1109,2.1109,2.1109,2.1109,2.1109,2.1109,2.1109,2.1109,2.1109,2.1109,2.1109,2.1109,2.1109,2.1109,2.1109,2.1109,2.1109,2.1109,2.1109,2.1109,2.1109,2.1109,2.1109,2.1109,2.1109,2.1109,2.1109,2.1109,2.1109,2.1109,2.1109,2.1109,2.1109,2.1109,2.1109,2.1109,2.1109,2.1109,2.1109,2.1109,2.1109,2.1109,2.0949,2.0882,2.1082,2.0935,2.0882,2.1082,2.1109,2.1109,2.1109,2.1109,2.1109,2.1109,2.1109,2.1109,2.1109,2.1109,2.1109,2.1109,2.1109,2.1109,2.1109,2.1109,2.1109,2.1109,2.1109,2.1109,2.1109,2.1109,2.1109,2.1109,2.1109,2.1109,2.1109,2.1109,2.1109,2.1109,2.1109,2.1109,2.1109,2.1109,2.1109,2.1109,3.2505,2.9216,2.6293,2.609,2.6037,2.5852,2.5558,2.5504,2.5411,2.5117,2.5077,2.497,2.4676,2.4636,2.4396,2.3821,2.3768,2.3514,2.2968,2.2579,2.2285,2.2004,2.1416,2.1109,2.1109,2.1109,2.1109,2.1109,2.1109,2.1109,2.1109,2.1109,2.1109,2.1109,2.1109,2.1109,2.1109,2.1109,2.1109,2.1109,2.1109,2.1109,2.1109,2.1109,2.1109,2.1109,2.1109,2.1109,2.1109,2.1109,2.1109,2.1109,2.1109,2.1109,2.1109,2.1109,2.1109,2.1109,2.1109,2.1109,2.1109,2.1109,2.1109,2.1109,2.1109,2.1109,2.1109,2.1109,2.1109,2.1109,2.1109,2.1109,2.1109,2.1109,2.1109,2.1109,2.1109,2.1109,2.1109,2.1109,2.1109,2.1109,2.1109,2.1109,2.1109,2.1109,2.1109,2.1109,2.1109,2.1109,2.1109,2.1109,2.1109,2.1109,2.1109,2.1109,2.1109,2.1109,2.1109,2.1109,2.1109,2.1109,2.1109,2.1109,2.1109,2.1109,2.1109,2.1109,2.1109,2.1109,2.1109,2.1109,2.1109,2.1109,2.1109,2.1109,3.0884,2.9371,2.7976,2.631,2.6037,2.5785,2.5291,2.5211,2.5104,2.481,2.5926,2.6251,2.4784,2.5859,2.5896,2.3964,2.3768,2.3514,2.2968,2.2579,2.2285,2.2004,2.1617,2.1323,2.1109,2.1109,2.1109,2.1109,2.1109,2.1109,2.1109,2.1109,2.1109,2.1109,2.1109,2.1109,2.1109,2.1109,2.1109,2.1109,2.1109,2.1109,2.1109,2.1109,2.1109,2.1109,2.1109,2.1109,2.1109,2.1109,2.1109,2.1109,2.1109,2.1109,2.1109,2.1109,2.1109,2.1109,2.1109,2.1109,2.1109,2.1109,2.1109,2.1109,2.1109,2.1109,2.1109,2.1109,2.1109,2.1109,2.1109,2.1109,2.1109,2.1109,2.1109,2.1109,2.1109,2.1109,2.1109,2.1109,2.1109,2.1109,2.1109,2.1109,2.1109,2.1109,2.1109,2.1109,2.1109,2.1109,2.1109,2.1109,2.1109,2.1109,2.1109,2.1109,2.1109,2.1109,2.1109,2.1109,2.1109,2.1109,2.1109,2.1109,2.1109,2.1109,2.1109,2.1109,2.1109,2.1109,2.1109,2.1109,2.1109,2.1109,2.1109,2.1109,3.1268,3.0592,3.013,2.847,2.7497,2.678,2.6164,2.5411,2.5134,2.5667,2.6794,2.707,2.5859,2.6794,2.6532,2.4035,2.3554,2.333,2.2886,2.2699,2.2458,2.2164,2.1884,2.1537,2.1122,2.1109,2.1109,2.1109,2.1109,2.1109,2.1109,2.1109,2.1109,2.1109,2.1109,2.1109,2.1109,2.1109,2.1109,2.1109,2.1109,2.1109,2.1109,2.1109,2.1109,2.1109,2.1109,2.1109,2.1109,2.1109,2.1109,2.1109,2.1109,2.1109,2.1109,2.1109,2.1109,2.1109,2.1109,2.1109,2.1109,2.1109,2.1109,2.1109,2.1109,2.1109,2.1109,2.1109,2.1109,2.1109,2.1109,2.1109,2.1109,2.1109,2.1109,2.1109,2.1109,2.1109,2.1109,2.1109,2.1109,2.1109,2.1109,2.1109,2.1109,2.1109,2.1109,2.1109,2.1109,2.1109,2.1109,2.1109,2.1109,2.1109,2.1109,2.1109,2.1109,2.1109,2.1109,2.1109,2.1109,2.1109,2.1109,2.1109,2.1109,2.1109,2.1109,2.1109,2.1109,2.1109,2.1109,2.1109,2.1109,2.1109,2.1109,2.1109,3.2868,3.2505,3.2258,3.1515,2.9864,2.8327,2.761,2.5859,2.5286,2.7215,2.765,2.7722,2.7505,2.762,2.6647,2.4022,2.3289,2.2928,2.2928,2.2928,2.2726,2.2432,2.2164,2.1764,2.1203,2.1136,2.1109,2.1109,2.1109,2.1109,2.1109,2.1109,2.1109,2.1109,2.1109,2.1109,2.1109,2.1109,2.1109,2.1109,2.1109,2.1109,2.1109,2.1109,2.1109,2.1109,2.1109,2.1109,2.1109,2.1109,2.1109,2.1109,2.1109,2.1109,2.1109,2.1109,2.1109,2.1109,2.1109,2.1109,2.1109,2.1109,2.1109,2.1109,2.1109,2.1109,2.1109,2.1109,2.1109,2.1109,2.1109,2.1109,2.1109,2.1109,2.1109,2.1109,2.1109,2.1109,2.1109,2.1109,2.1109,2.1109,2.1109,2.1109,2.1109,2.1109,2.1109,2.1109,2.1109,2.1109,2.1109,2.1109,2.1109,2.1109,2.1109,2.1109,2.1109,2.1109,2.1109,2.1109,2.1109,2.1109,2.1109,2.1109,2.1109,2.1109,2.1109,2.1109,2.1109,2.1109,2.1109,2.1109,2.1109,2.1109,2.1109,2.1109,3.2868,3.2505,3.2258,3.1515,2.9864,2.8327,2.761,2.5859,2.5286,2.7215,2.8772,2.9115,2.765,2.8593,2.7857,2.4151,2.3289,2.2928,2.2928,2.2928,2.2726,2.2432,2.2352,2.2151,2.1804,2.1336,2.1109,2.1109,2.1109,2.1109,2.1109,2.1109,2.1109,2.1109,2.1109,2.1109,2.1109,2.1109,2.1109,2.1109,2.1109,2.1109,2.1109,2.1109,2.1109,2.1109,2.1109,2.1109,2.1109,2.1109,2.1109,2.1109,2.1109,2.1109,2.1109,2.1109,2.1109,2.1109,2.1109,2.1109,2.1109,2.1109,2.1109,2.1109,2.1109,2.1109,2.1109,2.1109,2.1109,2.1109,2.1109,2.1109,2.1109,2.1109,2.1109,2.1109,2.1109,2.1109,2.1109,2.1109,2.1109,2.1109,2.1109,2.1109,2.1109,2.1109,2.1109,2.1109,2.1109,2.1109,2.1109,2.1109,2.1109,2.1109,2.1109,2.1109,2.1109,2.1109,2.1109,2.1109,2.1109,2.1109,2.1109,2.1109,2.1109,2.1109,2.1109,2.1109,2.1109,2.1109,2.1109,2.1109,2.1109,2.1109,2.1109,2.1109,3.4301,3.4535,3.4605,3.311,3.1104,2.9514,2.8923,2.7201,2.6997,2.9845,3.0882,3.1041,3.031,2.9996,2.8185,2.4137,2.3354,2.302,2.2941,2.3209,2.31,2.2645,2.2632,2.2498,2.2205,2.175,2.1456,2.1323,2.1176,2.1109,2.1109,2.1109,2.1109,2.1109,2.1109,2.1109,2.1109,2.1109,2.1109,2.1109,2.1109,2.1109,2.1109,2.1109,2.1109,2.1109,2.1109,2.1109,2.1109,2.1109,2.1109,2.1109,2.1109,2.1109,2.1109,2.1109,2.1109,2.1109,2.1109,2.1109,2.1109,2.1109,2.1109,2.1109,2.1109,2.1109,2.1109,2.1109,2.1109,2.1109,2.1109,2.1109,2.1109,2.1109,2.1109,2.1109,2.1109,2.1109,2.1109,2.1109,2.1109,2.1109,2.1109,2.1109,2.1109,2.1109,2.1109,2.1109,2.1109,2.1109,2.1109,2.1109,2.1109,2.1109,2.1109,2.1109,2.1109,2.1109,2.1109,2.1109,2.1109,2.1109,2.1109,2.1109,2.1109,2.1109,2.1109,2.1109,2.1109,2.1109,2.1109,2.1109,2.1109,2.1109,2.1109,2.1109,3.6331,3.6948,3.7176,3.5296,3.307,3.1313,3.0872,2.9186,2.9274,3.2752,3.2881,3.2791,3.3134,3.1131,2.8255,2.462,2.402,2.3622,2.3102,2.3447,2.3474,2.2966,2.2886,2.2752,2.2498,2.2205,2.1897,2.1614,2.1309,2.1162,2.1109,2.1109,2.1109,2.1109,2.1109,2.1109,2.1109,2.1109,2.1109,2.1109,2.1109,2.1109,2.1109,2.1109,2.1109,2.1109,2.1109,2.1109,2.1109,2.1109,2.1109,2.1109,2.1109,2.1109,2.1109,2.1109,2.1109,2.1109,2.1109,2.1109,2.1109,2.1109,2.1109,2.1109,2.1109,2.1109,2.1109,2.1109,2.1109,2.1109,2.1109,2.1109,2.1109,2.1109,2.1149,2.1162,2.1122,2.1149,2.1162,2.1122,2.1109,2.1122,2.1176,2.1189,2.1189,2.1189,2.1229,2.1216,2.1109,2.1162,2.1162,2.1109,2.1109,2.1109,2.1109,2.1109,2.1109,2.1109,2.1109,2.1109,2.1109,2.1109,2.1109,2.1109,2.1109,2.1109,2.1109,2.1109,2.1109,2.1109,2.1109,2.1109,2.1109,2.1109,2.1109,2.1109,3.8185,3.7786,3.7293,3.7003,3.496,3.325,3.2876,3.1175,3.0734,3.2874,3.3116,3.3116,3.317,3.1201,2.8868,2.6449,2.618,2.5452,2.3789,2.3487,2.3354,2.326,2.3006,2.2914,2.2806,2.2512,2.2098,2.1614,2.1574,2.1363,2.1109,2.1109,2.1109,2.1109,2.1109,2.1109,2.1109,2.1109,2.1109,2.1109,2.1109,2.1109,2.1109,2.1109,2.1109,2.1109,2.1109,2.1109,2.1109,2.1109,2.1109,2.1109,2.1109,2.1109,2.1109,2.1109,2.1109,2.1109,2.1109,2.1109,2.1109,2.1109,2.1109,2.1109,2.1109,2.1109,2.1109,2.1109,2.1109,2.1109,2.1109,2.1109,2.1109,2.1109,2.1323,2.1403,2.1149,2.1336,2.1403,2.1136,2.1109,2.1203,2.1534,2.1561,2.1561,2.1561,2.1724,2.1643,2.1136,2.1349,2.1376,2.1122,2.1109,2.1109,2.1109,2.1109,2.1109,2.1109,2.1109,2.1109,2.1109,2.1109,2.1109,2.1109,2.1109,2.1109,2.1109,2.1109,2.1109,2.1109,2.1109,2.1109,2.1109,2.1109,2.1109,2.1109,3.8164,3.7539,3.6654,3.5543,3.4327,3.3368,3.3188,3.2455,3.2595,3.4521,3.4539,3.4482,3.4708,3.2809,3.0616,2.8649,2.8424,2.7594,2.5482,2.5541,2.503,2.3665,2.3447,2.33,2.3126,2.2819,2.2458,2.2031,2.1775,2.1547,2.1349,2.1189,2.1109,2.1109,2.1109,2.1109,2.1109,2.1109,2.1109,2.1109,2.1109,2.1109,2.1109,2.1109,2.1109,2.1109,2.1109,2.1216,2.1336,2.1162,2.1216,2.1323,2.1162,2.1229,2.1363,2.1363,2.147,2.1603,2.1603,2.1603,2.1603,2.1603,2.1603,2.1603,2.1603,2.1603,2.151,2.1176,2.1109,2.1109,2.1109,2.1109,2.1162,2.1336,2.1534,2.1628,2.159,2.171,2.1683,2.139,2.1203,2.1162,2.1296,2.1309,2.1309,2.1309,2.143,2.1456,2.1363,2.1323,2.1323,2.1363,2.1189,2.1109,2.1109,2.1109,2.1109,2.1109,2.1109,2.1109,2.1109,2.1109,2.1109,2.1109,2.1109,2.1109,2.1109,2.1109,2.1109,2.1109,2.1109,2.1109,2.1109,2.1109,2.1109,2.1109]}]]